[[{"header":{"parameterUnit":"m.s-1","parameterCategory":1,"la1":30.6,"la2":29.2853,"lo1":-89.7004,"lo2":-87.6739,"dy":0.0162,"dx":0.0183,"nx":112,"ny":82,"refTime":"2023-06-21T12:00:00:Z","depth":0,"parameterNumber":2,"parameterNumberName":"U-component_of_WINDS"},"data":[0.0,0.0,0.0,0.0,0.0,0.0,0.0,0.0,0.0,0.0,0.0,0.0,0.0,0.0,0.0,0.0,0.0,0.0,0.0,0.0,0.0,0.0,0.0,0.0,0.0,0.0,0.0,0.0,0.0,0.0,0.0,0.0,0.0,0.0,0.0,0.0,0.0,0.0,0.0,0.0,0.0,0.0,0.0,0.0,0.0,0.0,0.0,0.0,0.0,0.0,0.0,0.0,0.0,0.0,0.0,0.0,0.0,0.0,0.0,0.0,0.0,0.0,0.0,0.0,0.0,0.0,0.0,0.0,0.0,0.0,0.0,0.0,0.0,0.0,0.0,0.0,0.0,0.0,0.0,0.0,0.0,0.0,0.0,0.0,0.0,0.0,0.0,0.0,0.0,0.0,-0.4519,-0.4519,-0.4519,-0.4519,-0.4519,-0.4519,-0.4522,-0.4477,0.0,0.0,0.0,0.0,0.0,0.0,0.0,0.0,0.0,0.0,0.0,0.0,0.0,0.0,0.0,0.0,0.0,0.0,0.0,0.0,0.0,0.0,0.0,0.0,0.0,0.0,0.0,0.0,0.0,0.0,0.0,0.0,0.0,0.0,0.0,0.0,0.0,0.0,0.0,0.0,0.0,0.0,0.0,0.0,0.0,0.0,0.0,0.0,0.0,0.0,0.0,0.0,0.0,0.0,0.0,0.0,0.0,0.0,0.0,0.0,0.0,0.0,0.0,0.0,0.0,0.0,0.0,0.0,0.0,0.0,0.0,0.0,0.0,0.0,0.0,0.0,0.0,0.0,0.0,0.0,0.0,0.0,0.0,0.0,0.0,0.0,0.0,0.0,0.0,0.0,0.0,0.0,0.0,0.0,0.0,0.0,0.0,0.0,0.0,0.0,0.0,0.0,0.0,0.0,-0.4519,-0.4519,-0.4519,-0.4519,-0.4519,-0.4519,-0.4519,-0.4519,0.0,0.0,0.0,0.0,0.0,0.0,0.0,0.0,0.0,0.0,0.0,0.0,0.0,0.0,0.0,0.0,0.0,0.0,0.0,0.0,0.0,0.0,0.0,0.0,0.0,0.0,0.0,0.0,0.0,0.0,0.0,0.0,0.0,0.0,0.0,0.0,0.0,0.0,0.0,0.0,0.0,0.0,0.0,0.0,0.0,0.0,0.0,0.0,0.0,0.0,0.0,0.0,0.0,0.0,0.0,0.0,0.0,0.0,0.0,0.0,0.0,0.0,0.0,0.0,0.0,0.0,0.0,0.0,0.0,0.0,0.0,0.0,0.0,0.0,0.0,0.0,0.0,0.0,0.0,0.0,0.0,0.0,0.0,0.0,0.0,0.0,0.0,0.0,0.0,0.0,0.0,0.0,0.0,0.0,0.0,0.0,0.0,0.0,0.0,0.0,0.0,0.0,0.0,-0.4519,-0.4519,-0.4519,-0.4519,-0.4519,-0.4519,-0.4519,-0.4522,-0.448,-0.4423,0.0,0.0,0.0,0.0,0.0,0.0,0.0,0.0,0.0,0.0,0.0,0.0,0.0,0.0,0.0,0.0,0.0,0.0,0.0,0.0,0.0,0.0,0.0,0.0,0.0,0.0,0.0,0.0,0.0,0.0,0.0,0.0,0.0,0.0,0.0,0.0,0.0,0.0,0.0,0.0,0.0,0.0,0.0,0.0,0.0,0.0,0.0,0.0,0.0,0.0,0.0,0.0,0.0,0.0,0.0,0.0,0.0,0.0,0.0,0.0,0.0,0.0,0.0,0.0,0.0,0.0,0.0,0.0,0.0,0.0,0.0,0.0,0.0,0.0,0.0,0.0,0.0,0.0,0.0,0.0,0.0,0.0,0.0,0.0,0.0,0.0,0.0,0.0,0.0,0.0,0.0,0.0,0.0,0.0,0.0,0.0,0.0,0.0,0.0,0.0,0.0,0.0,-0.4519,-0.4519,-0.4519,-0.4519,-0.4519,-0.4519,-0.4519,-0.4525,-0.449,-0.415,0.0,0.0,0.0,0.0,0.0,0.0,0.0,0.0,0.0,0.0,0.0,0.0,0.0,0.0,0.0,0.0,0.0,0.0,0.0,0.0,0.0,0.0,0.0,0.0,0.0,0.0,0.0,0.0,0.0,0.0,0.0,0.0,0.0,0.0,0.0,0.0,0.0,0.0,0.0,0.0,0.0,0.0,0.0,0.0,0.0,0.0,0.0,0.0,0.0,0.0,0.0,0.0,0.0,0.0,0.0,0.0,0.0,0.0,0.0,0.0,0.0,0.0,0.0,0.0,0.0,0.0,0.0,0.0,0.0,0.0,0.0,0.0,0.0,0.0,0.0,0.0,0.0,0.0,0.0,0.0,0.0,0.0,0.0,0.0,0.0,0.0,0.0,0.0,0.0,0.0,0.0,0.0,0.0,0.0,0.0,0.0,0.0,0.0,0.0,0.0,0.0,0.0,-0.4519,-0.4519,-0.4519,-0.4519,-0.4519,-0.4519,-0.4519,-0.4522,-0.448,-0.3128,0.0,0.0,0.0,0.0,0.0,0.0,0.0,0.0,0.0,0.0,0.0,0.0,0.0,0.0,0.0,0.0,0.0,0.0,0.0,0.0,0.0,0.0,0.0,0.0,0.0,0.0,0.0,0.0,0.0,0.0,0.0,0.0,0.0,0.0,0.0,0.0,0.0,0.0,0.0,0.0,0.0,0.0,0.0,0.0,0.0,0.0,0.0,0.0,0.0,0.0,0.0,0.0,0.0,0.0,0.0,0.0,0.0,0.0,0.0,0.0,0.0,0.0,0.0,0.0,0.0,0.0,0.0,0.0,0.0,0.0,0.0,0.0,0.0,0.0,0.0,0.0,0.0,0.0,0.0,0.0,0.0,0.0,0.0,0.0,0.0,0.0,0.0,0.0,0.0,0.0,0.0,0.0,0.0,0.0,0.0,0.0,0.0,0.0,0.0,0.0,0.0,0.0,-0.4748,-0.4748,0.0,-0.4748,-0.4748,-0.4748,-0.466,-0.4613,-0.4515,0.0,0.0,0.0,0.0,0.0,0.0,0.0,0.0,0.0,0.0,0.0,0.0,0.0,0.0,0.0,0.0,0.0,0.0,0.0,0.0,0.0,0.0,0.0,0.0,0.0,0.0,0.0,0.0,0.0,0.0,0.0,0.0,0.0,0.0,0.0,0.0,0.0,0.0,0.0,0.0,0.0,0.0,0.0,0.0,0.0,0.0,0.0,0.0,0.0,0.0,0.0,0.0,0.0,0.0,0.0,0.0,0.0,0.0,0.0,0.0,0.0,0.0,0.0,0.0,0.0,0.0,0.0,0.0,0.0,0.0,0.0,0.0,0.0,0.0,0.0,0.0,0.0,0.0,0.0,0.0,0.0,0.0,0.0,0.0,0.0,0.0,0.0,0.0,0.0,0.0,0.0,0.0,0.0,0.0,0.0,0.0,0.0,0.0,0.0,0.0,0.0,0.0,-0.485,-0.486,-0.4921,0.0,-0.4921,-0.4918,-0.4918,-0.4823,-0.4713,-0.4492,0.0,0.0,0.0,0.0,0.0,0.0,0.0,0.0,0.0,0.0,0.0,0.0,0.0,0.0,0.0,0.0,0.0,0.0,0.0,0.0,0.0,0.0,0.0,0.0,0.0,0.0,0.0,0.0,0.0,0.0,0.0,0.0,0.0,0.0,0.0,0.0,0.0,0.0,0.0,0.0,0.0,0.0,0.0,0.0,0.0,0.0,0.0,0.0,0.0,0.0,0.0,0.0,0.0,0.0,0.0,0.0,0.0,0.0,0.0,0.0,0.0,0.0,0.0,0.0,0.0,0.0,0.0,0.0,0.0,0.0,0.0,0.0,0.0,0.0,0.0,0.0,0.0,0.0,0.0,0.0,0.0,0.0,0.0,0.0,0.0,0.0,0.0,0.0,0.0,0.0,0.0,0.0,0.0,0.0,0.0,0.0,0.0,0.0,0.0,0.0,0.0,0.0,-0.4816,-0.4867,-0.4931,-0.5067,-0.4996,-0.4925,-0.4925,-0.4921,-0.4806,0.0,0.0,0.0,0.0,0.0,0.0,0.0,0.0,0.0,0.0,0.0,0.0,0.0,0.0,0.0,0.0,0.0,0.0,0.0,0.0,0.0,0.0,0.0,0.0,0.0,0.0,0.0,0.0,0.0,0.0,0.0,0.0,0.0,0.0,0.0,0.0,0.0,0.0,0.0,0.0,0.0,0.0,0.0,0.0,0.0,0.0,0.0,0.0,0.0,0.0,0.0,0.0,0.0,0.0,0.0,0.0,0.0,0.0,0.0,0.0,0.0,0.0,0.0,0.0,0.0,0.0,0.0,0.0,0.0,0.0,0.0,0.0,0.0,0.0,0.0,0.0,0.0,0.0,0.0,0.0,0.0,0.0,0.0,0.0,0.0,0.0,0.0,0.0,0.0,0.0,0.0,0.0,0.0,0.0,0.0,0.0,0.0,0.0,0.0,0.0,0.0,0.0,0.0,-0.5182,-0.4124,-0.3858,-0.5192,-0.5257,-0.5254,-0.5254,-0.5229,-0.5234,-0.5167,0.0,0.0,0.0,0.0,0.0,0.0,0.0,0.0,0.0,0.0,0.0,0.0,0.0,0.0,0.0,0.0,0.0,0.0,0.0,0.0,0.0,0.0,0.0,0.0,0.0,0.0,0.0,0.0,0.0,0.0,0.0,0.0,0.0,0.0,0.0,0.0,0.0,0.0,0.0,0.0,0.0,0.0,0.0,0.0,0.0,0.0,0.0,0.0,0.0,0.0,0.0,0.0,0.0,0.0,0.0,0.0,0.0,0.0,0.0,0.0,0.0,0.0,0.0,0.0,0.0,0.0,0.0,0.0,0.0,0.0,0.0,0.0,0.0,0.0,0.0,0.0,0.0,0.0,0.0,0.0,0.0,0.0,0.0,0.0,0.0,0.0,0.0,0.0,0.0,0.0,0.0,0.0,0.0,0.0,0.0,0.0,0.0,0.0,0.0,0.0,0.0,0.0,-0.5186,-0.3828,-0.2813,-0.322,-0.3894,-0.43,-0.43,-0.4306,-0.4665,-0.5332,0.0,0.0,0.0,0.0,0.0,0.0,0.0,0.0,0.0,0.0,0.0,0.0,0.0,0.0,0.0,0.0,0.0,0.0,0.0,0.0,0.0,0.0,0.0,0.0,0.0,0.0,0.0,0.0,0.0,0.0,0.0,0.0,0.0,0.0,0.0,0.0,0.0,0.0,0.0,0.0,0.0,0.0,0.0,0.0,0.0,0.0,0.0,0.0,0.0,0.0,0.0,0.0,0.0,0.0,0.0,0.0,0.0,0.0,0.0,0.0,0.0,0.0,0.0,0.0,0.0,0.0,0.0,0.0,0.0,0.0,0.0,0.0,0.0,0.0,0.0,0.0,0.0,0.0,0.0,0.0,0.0,0.0,0.0,0.0,0.0,0.0,0.0,0.0,0.0,0.0,0.0,0.0,0.0,0.0,0.0,0.0,0.0,0.0,0.0,0.0,0.0,0.0,-0.4453,-0.3493,-0.1808,-0.0201,-0.1473,-0.2477,-0.2477,-0.2477,-0.3155,-0.4794,0.0,0.0,0.0,0.0,0.0,0.0,0.0,0.0,0.0,0.0,0.0,0.0,0.0,0.0,0.0,0.0,0.0,0.0,0.0,0.0,0.0,0.0,0.0,0.0,0.0,0.0,0.0,0.0,0.0,0.0,0.0,0.0,0.0,0.0,0.0,0.0,0.0,0.0,0.0,0.0,0.0,0.0,0.0,0.0,0.0,0.0,0.0,0.0,0.0,0.0,0.0,0.0,0.0,0.0,0.0,0.0,0.0,0.0,0.0,0.0,-0.5382,0.0,0.0,0.0,0.0,0.0,0.0,0.0,0.0,0.0,0.0,0.0,0.0,0.0,0.0,0.0,0.0,0.0,0.0,0.0,0.0,0.0,0.0,0.0,0.0,0.0,0.0,0.0,0.0,0.0,0.0,0.0,0.0,0.0,0.0,0.0,0.0,0.0,0.0,0.0,0.0,0.0,-0.1078,-0.0808,-0.0404,-0.0067,-0.0336,-0.0605,-0.0605,-0.0605,-0.0739,-0.1139,-0.1136,0.0,0.0,0.0,0.0,0.0,0.0,0.0,0.0,0.0,0.0,0.0,0.0,0.0,0.0,0.0,0.0,0.0,0.0,0.0,0.0,0.0,0.0,0.0,0.0,0.0,0.0,0.0,0.0,0.0,0.0,0.0,0.0,0.0,0.0,0.0,0.0,0.0,0.0,0.0,0.0,0.0,0.0,0.0,0.0,0.0,0.0,0.0,0.0,0.0,0.0,0.0,0.0,0.0,0.0,0.0,0.0,0.0,0.0,0.0,0.0,-0.3625,0.0,0.0,0.0,0.0,0.0,0.0,0.0,0.0,0.0,0.0,0.0,0.0,0.0,0.0,0.0,0.0,0.0,0.0,0.0,0.0,0.0,0.0,0.0,0.0,0.0,0.0,0.0,0.0,0.0,0.0,0.0,0.0,0.0,0.0,0.0,0.0,0.0,0.0,0.0,0.0,-0.0,-0.0,-0.0,-0.0,-0.0,-0.0,-0.0,-0.0,-0.074,-0.2484,-0.1746,0.0,0.0,0.0,0.0,0.0,0.0,0.0,0.0,0.0,0.0,0.0,0.0,0.0,0.0,0.0,0.0,0.0,0.0,0.0,0.0,0.0,0.0,0.0,0.0,0.0,0.0,0.0,0.0,0.0,0.0,0.0,0.0,0.0,0.0,0.0,0.0,0.0,0.0,0.0,0.0,0.0,0.0,0.0,0.0,0.0,0.0,0.0,0.0,0.0,0.0,0.0,0.0,0.0,-0.547,-0.5423,-0.5457,-0.5393,-0.5406,-0.5284,-0.382,-0.1965,-0.0202,-0.3236,0.0,0.0,0.0,0.0,0.0,0.0,0.0,0.0,0.0,0.0,0.0,0.0,0.0,0.0,0.0,0.0,0.0,0.0,0.0,0.0,0.0,0.0,0.0,0.0,-0.0,-0.0,-0.0,0.0,0.0,0.0,0.0,0.0,0.0,0.0,0.0,0.0,0.0,0.0,-0.0539,-0.0202,-0.0135,-0.0404,-0.0202,-0.0135,-0.0471,-0.0741,-0.2087,-0.4791,-0.3828,-0.382,0.0,0.0,0.0,0.0,0.0,0.0,0.0,0.0,0.0,0.0,0.0,0.0,0.0,0.0,0.0,0.0,0.0,0.0,0.0,0.0,0.0,0.0,0.0,0.0,0.0,0.0,0.0,0.0,0.0,0.0,0.0,0.0,-0.9274,-0.9139,0.0,0.0,0.0,0.0,0.0,0.0,0.0,0.0,0.0,0.0,0.0,0.0,0.0,-0.5428,-0.5428,-0.5428,-0.543,-0.5559,-0.5641,-0.564,-0.5688,-0.5496,-0.5365,-0.5369,-0.5156,0.0,-0.0067,-0.0539,0.0,0.0,0.0,0.0,0.0,0.0,0.0,0.0,0.0,0.0,0.0,0.0,0.0,0.0,0.0,0.0,0.0,0.0,0.0,0.0,0.0,0.0,-0.0,-0.0,-0.0,-0.0,0.0,-0.0,-0.0,-0.0,-0.256,0.0,0.0,0.0,0.0,0.0,0.0,0.0,-0.2547,-0.1005,-0.0603,-0.2143,-0.0941,-0.0605,-0.221,-0.3768,-0.4244,-0.3151,-0.43,-0.5183,-0.5379,-0.5379,0.0,0.0,0.0,0.0,0.0,0.0,0.0,0.0,0.0,0.0,0.0,0.0,0.0,0.0,0.0,0.0,0.0,0.0,0.0,0.0,0.0,0.0,0.0,0.0,0.0,0.0,0.0,0.0,0.0,-0.7637,-0.7125,-0.7125,-0.6404,-0.5943,0.0,0.0,0.0,0.0,0.0,0.0,0.0,0.0,0.0,-0.5488,-0.5491,-0.5528,-0.5606,-0.561,-0.5644,-0.5708,-0.5803,-0.5954,-0.6026,-0.5976,-0.5327,-0.4332,-0.2964,-0.1501,-0.0,-0.0,-0.0,-0.0,0.0,0.0,0.0,0.0,-0.0,-0.0,-0.0,-0.0,-0.0,-0.0,0.0,0.0,0.0,0.0,0.0,0.0,0.0,-0.0,0.0,0.0,-0.0,-0.0,-0.0,-0.0,-0.0,-0.1602,-0.3021,0.0,-0.4319,-0.4867,-0.3303,0.0,0.0,0.0,0.0,-0.5125,-0.43,-0.3558,-0.295,-0.2744,-0.2887,-0.2956,-0.2744,-0.4372,-0.5055,-0.4292,-0.4973,-0.5379,-0.5369,-0.5376,-0.5376,0.0,0.0,0.0,0.0,0.0,0.0,0.0,0.0,0.0,0.0,0.0,0.0,0.0,0.0,0.0,0.0,0.0,0.0,0.0,0.0,0.0,0.0,0.0,0.0,0.0,0.0,0.0,0.0,-0.6465,-0.6013,-0.5752,-0.5557,-0.5428,0.0,0.0,0.0,0.0,0.0,0.0,-0.5474,-0.5474,-0.5528,-0.564,-0.5681,-0.5752,-0.5861,-0.5898,-0.5939,-0.5973,-0.6088,-0.6246,-0.6377,-0.6417,-0.5665,-0.43,-0.2549,-0.1514,-0.0873,-0.0226,-0.0,-0.0,-0.0,-0.0,-0.0,-0.0,-0.0,-0.0,-0.0,-0.0,-0.0,-0.0,-0.0,-0.0,-0.0,0.0,0.0,0.0,0.0,-0.0,-0.0,-0.0,-0.0,-0.0,-0.0801,-0.1603,-0.1603,-0.3303,-0.4932,0.0,-0.5433,-0.5403,-0.5406,0.0,0.0,0.0,0.0,-0.5389,-0.5386,-0.5389,-0.4909,-0.3549,-0.457,-0.4846,-0.348,-0.4634,-0.5386,-0.5376,-0.5372,-0.5369,-0.5428,-0.5369,-0.5372,-0.5432,0.0,0.0,0.0,0.0,0.0,0.0,0.0,0.0,0.0,0.0,0.0,0.0,0.0,0.0,0.0,0.0,0.0,0.0,0.0,0.0,0.0,0.0,0.0,0.0,0.0,0.0,0.0,0.0,0.0,-0.6719,-0.5881,0.0,0.0,0.0,0.0,-0.5566,-0.5579,-0.5637,-0.5772,-0.5779,-0.5783,-0.5789,-0.5932,-0.601,-0.6017,-0.6166,-0.6305,-0.6437,-0.6444,-0.6525,-0.6668,-0.6771,-0.6698,-0.6615,-0.6722,-0.5452,-0.3242,-0.0933,-0.0,-0.0,-0.0,-0.0,-0.0,-0.0,-0.0,-0.0,-0.0,-0.0,-0.0,-0.0,-0.0,-0.0,-0.0,-0.0,0.0,0.0,-0.0,-0.0,-0.0,-0.0,-0.0,-0.0,-0.3065,-0.595,-0.595,-0.4522,-0.3676,0.0,-0.5423,-0.5382,-0.5393,0.0,-0.3949,-0.5243,-0.5379,-0.5376,-0.5432,-0.5372,-0.5376,-0.5296,-0.5312,-0.5386,-0.5296,-0.5372,-0.5376,-0.5428,-0.5428,-0.5428,-0.5428,-0.5428,-0.5432,-0.5376,-0.5379,0.0,0.0,0.0,0.0,0.0,0.0,0.0,0.0,0.0,0.0,0.0,0.0,0.0,0.0,0.0,0.0,0.0,0.0,0.0,0.0,0.0,0.0,0.0,0.0,0.0,0.0,0.0,0.0,-0.5947,-0.5645,0.0,-0.5508,-0.5589,-0.5667,-0.5722,-0.5817,-0.5895,-0.5945,-0.6044,-0.6139,-0.623,-0.6288,-0.6363,-0.6461,-0.6515,-0.6569,-0.662,-0.6719,-0.6797,-0.6851,-0.6946,-0.699,-0.699,-0.7104,-0.6666,-0.5762,-0.4885,-0.2791,-0.0,-0.0,-0.0,-0.0,-0.0,-0.0,-0.0,-0.0,-0.0,-0.0,-0.0,-0.0,-0.0,-0.0,-0.0,-0.0,-0.0,-0.0,-0.0,-0.0,-0.2297,-0.4576,-0.4576,-0.4571,-0.4867,-0.6071,-0.573,-0.5306,-0.5705,-0.5772,-0.5737,-0.5594,-0.5297,-0.5221,-0.5731,-0.5727,-0.565,-0.5644,-0.5569,-0.5511,-0.5508,-0.5426,-0.5369,-0.5428,-0.5432,-0.5432,-0.5428,-0.5428,-0.5428,-0.5428,-0.5428,-0.5428,-0.5369,-0.5369,-0.5369,0.0,0.0,0.0,0.0,0.0,0.0,0.0,0.0,0.0,0.0,0.0,0.0,0.0,0.0,0.0,0.0,0.0,0.0,0.0,0.0,0.0,0.0,0.0,0.0,0.0,0.0,-0.6422,-0.5571,-0.5572,-0.5681,-0.5732,-0.5823,-0.5918,-0.602,-0.6122,-0.62,-0.6254,-0.6352,-0.6474,-0.662,-0.6671,-0.677,-0.6926,-0.6976,-0.7004,-0.7007,-0.7109,-0.7156,-0.716,-0.7251,-0.7295,-0.7295,-0.7312,-0.7228,-0.7312,-0.7227,-0.5419,-0.2441,-0.1524,-0.1174,-0.1176,-0.1176,-0.1176,-0.1176,-0.1176,-0.1176,-0.1173,-0.1238,-0.065,-0.0161,-0.0963,-0.1767,-0.2251,-0.1445,-0.1217,-0.1232,-0.1232,-0.3575,-0.6077,-0.6937,-0.5895,-0.5012,-0.6191,-0.6418,-0.639,-0.6288,-0.6098,-0.5888,-0.5741,-0.5806,-0.5806,-0.5888,-0.5878,-0.58,-0.58,-0.5718,-0.5661,-0.5661,-0.5528,-0.544,-0.544,-0.5459,-0.5428,-0.5428,-0.5428,-0.5428,-0.5428,-0.5428,-0.5428,-0.5428,-0.5428,-0.5428,-0.5428,0.0,0.0,0.0,0.0,0.0,0.0,0.0,0.0,0.0,0.0,0.0,0.0,0.0,0.0,0.0,0.0,0.0,0.0,0.0,0.0,0.0,0.0,0.0,-0.6951,-0.6831,-0.6619,-0.5741,-0.5732,-0.5881,-0.603,-0.6047,-0.6173,-0.6464,-0.6488,-0.6559,-0.6712,-0.6725,-0.6797,-0.6946,-0.7082,-0.7227,-0.7377,-0.7526,-0.76,-0.76,-0.76,-0.76,-0.76,-0.76,-0.76,-0.76,-0.76,-0.76,-0.76,-0.76,-0.751,-0.7176,-0.4699,-0.3703,-0.3703,-0.3703,-0.3701,-0.3699,-0.3699,-0.3697,-0.3695,-0.3695,-0.2098,-0.0671,-0.2938,-0.5228,-0.6609,-0.4376,-0.3695,-0.3695,-0.3695,-0.3695,-0.4287,-0.6592,-0.692,-0.6816,-0.6812,-0.6719,-0.6705,-0.6702,-0.623,-0.5827,-0.5823,-0.5823,-0.582,-0.5817,-0.5817,0.0,-0.5817,-0.5813,-0.581,-0.581,-0.5681,-0.5596,-0.5596,-0.546,-0.5442,-0.5442,-0.5442,-0.5439,-0.5435,-0.5435,-0.5432,-0.5428,-0.5428,-0.5428,-0.5428,0.0,0.0,0.0,0.0,0.0,0.0,0.0,0.0,0.0,0.0,0.0,0.0,0.0,0.0,0.0,0.0,0.0,0.0,0.0,0.0,0.0,0.0,-0.7938,-0.6135,-0.6647,-0.6832,-0.5978,-0.6132,-0.6305,-0.6346,-0.6451,-0.6597,-0.6787,-0.6898,-0.7024,-0.718,-0.7292,-0.7373,-0.7414,-0.7455,-0.7495,-0.7536,-0.758,-0.76,-0.76,-0.76,-0.76,-0.76,-0.76,-0.76,-0.76,-0.76,-0.76,-0.76,-0.76,-0.76,-0.7493,-0.6682,-0.645,-0.6465,-0.6465,-0.6312,-0.6138,-0.6138,-0.6163,-0.6174,-0.6174,-0.5728,-0.493,-0.3951,-0.5282,-0.6987,-0.6352,-0.6174,-0.6174,-0.6174,-0.6168,-0.634,-0.697,-0.7044,-0.6997,-0.6895,-0.6868,-0.6834,-0.6722,-0.6566,-0.6417,-0.6305,-0.6288,-0.6254,-0.6149,-0.6135,0.0,-0.6135,-0.6037,-0.5966,-0.5966,-0.5833,-0.5742,-0.5742,-0.5705,-0.5681,-0.5681,-0.5681,-0.5633,-0.5532,-0.5528,-0.5474,-0.5428,-0.5428,-0.5428,0.0,0.0,0.0,0.0,0.0,0.0,0.0,0.0,0.0,0.0,0.0,0.0,0.0,0.0,0.0,0.0,0.0,0.0,0.0,0.0,0.0,0.0,-0.8931,-0.796,-0.6243,-0.6496,-0.6745,-0.6283,-0.6481,-0.6685,-0.6746,-0.6892,-0.7044,-0.72,-0.7285,-0.7373,-0.7461,-0.755,-0.7628,-0.7685,-0.7689,-0.7719,-0.7784,-0.7784,-0.7784,-0.7784,-0.7784,-0.7784,-0.7784,-0.7784,-0.7784,-0.7784,-0.7784,-0.7784,-0.7784,-0.7784,-0.7784,0.0,0.0,0.0,0.0,0.0,-0.7476,-0.7306,-0.7306,-0.7342,-0.7272,-0.7272,-0.7272,-0.6982,-0.5626,-0.6166,-0.7175,-0.7101,-0.7081,-0.7081,-0.7081,-0.7078,-0.7071,-0.7071,-0.7061,-0.7115,-0.7034,-0.7017,-0.699,-0.6902,-0.6885,0.0,-0.6688,-0.661,-0.6539,-0.6458,-0.639,-0.6349,-0.6349,-0.622,-0.6125,-0.6125,-0.5989,-0.5895,-0.5895,-0.5837,0.0,0.0,0.0,-0.5766,-0.5681,-0.5677,0.0,0.0,0.0,-0.5515,-0.5457,-0.5457,0.0,0.0,-0.5428,-0.5428,0.0,0.0,0.0,0.0,0.0,0.0,0.0,0.0,0.0,0.0,0.0,0.0,0.0,0.0,0.0,0.0,-0.9244,-0.8803,-0.7392,-0.6831,-0.6562,-0.6532,-0.6817,-0.7054,-0.718,-0.7316,-0.7458,-0.7611,-0.7624,-0.7631,-0.7648,0.0,0.0,0.0,0.0,-0.7902,-0.8038,-0.8038,-0.8038,-0.8038,-0.8038,-0.8038,-0.8038,-0.8038,-0.8038,-0.8038,-0.8038,-0.8038,-0.8038,-0.8038,-0.8038,-0.8014,-0.775,-0.7648,-0.7648,-0.7648,-0.7638,-0.7624,-0.7624,0.0,0.0,-0.76,-0.751,-0.7396,-0.7441,-0.7411,-0.7394,-0.7234,-0.719,-0.7187,-0.717,-0.7166,-0.7163,-0.7143,-0.7139,-0.7139,-0.7139,-0.7139,-0.7139,-0.7139,-0.7139,-0.7099,-0.6973,-0.6827,-0.6719,-0.6702,-0.6583,-0.6498,-0.6498,-0.6373,-0.6285,-0.6285,0.0,0.0,-0.6057,-0.5932,-0.5854,-0.5854,-0.5837,-0.5827,-0.5827,-0.581,-0.58,-0.58,-0.58,-0.5739,-0.5613,-0.5613,-0.5545,-0.541,-0.5446,-0.5428,0.0,0.0,0.0,0.0,0.0,0.0,0.0,0.0,0.0,0.0,0.0,0.0,0.0,0.0,0.0,-1.1633,-1.1169,-1.0869,-1.1171,-0.954,-0.8006,-0.7094,-0.7282,-0.7482,-0.7509,-0.7539,-0.7614,-0.776,-0.777,-0.7824,-0.7946,-0.7953,-0.7967,-0.7994,-0.7994,-0.8011,-0.8038,-0.8038,-0.8038,-0.8038,0.0,0.0,-0.8038,-0.8038,-0.8038,-0.8038,-0.8038,-0.8038,-0.8038,-0.8038,-0.8038,-0.8035,-0.7977,-0.7953,-0.7953,-0.7953,-0.7875,-0.777,-0.777,-0.7695,-0.76,-0.76,-0.76,-0.7597,-0.7563,-0.756,0.0,-0.7519,-0.7512,-0.7482,-0.736,-0.7326,-0.7295,-0.717,-0.7139,-0.7139,-0.7139,-0.7139,-0.7139,-0.7139,-0.7139,-0.7132,-0.7102,-0.698,-0.6844,-0.6719,-0.6675,-0.6658,-0.6658,-0.6525,-0.643,-0.643,-0.6302,-0.6217,-0.6217,-0.619,-0.6173,-0.6173,-0.6054,-0.5986,-0.5986,-0.5867,-0.58,-0.58,-0.58,-0.5786,-0.5762,-0.5762,-0.5745,-0.5708,-0.5474,-0.5428,0.0,0.0,0.0,0.0,0.0,0.0,0.0,0.0,0.0,0.0,0.0,-1.1523,0.0,0.0,-1.2296,-1.2098,-1.1353,-1.0778,-1.0707,-0.9358,-0.836,-0.8268,-0.7934,-0.7706,-0.7706,-0.7777,-0.7848,-0.7919,-0.7926,-0.796,-0.8035,-0.8038,-0.8038,-0.8038,-0.8038,-0.8038,-0.8038,-0.8038,-0.8038,-0.8038,-0.8038,-0.8038,-0.8038,-0.8038,-0.8038,-0.8038,-0.8038,-0.8038,-0.8038,-0.8038,-0.8038,-0.8038,-0.8038,-0.8038,-0.8038,-0.8038,-0.7991,-0.7926,-0.7926,-0.7879,-0.7821,-0.7821,-0.7821,-0.7804,-0.7729,-0.7706,-0.7692,-0.7617,-0.76,-0.7584,-0.7506,-0.7485,-0.7465,-0.7387,-0.737,-0.735,-0.7272,-0.7255,-0.7234,-0.7153,-0.7139,-0.7139,-0.7139,-0.7082,-0.7007,-0.6932,-0.6861,-0.6814,-0.6814,-0.6681,-0.6586,-0.6586,-0.6454,-0.6366,-0.6366,-0.6302,-0.6338,-0.6338,-0.6186,-0.6146,-0.6146,-0.6071,-0.603,-0.603,-0.603,-0.5993,-0.5915,-0.5915,-0.5878,-0.5796,-0.565,-0.5583,0.0,0.0,0.0,0.0,0.0,0.0,0.0,0.0,-1.1543,-1.1657,-1.1877,-1.2131,-1.2425,-1.2766,-1.2916,-1.2377,-1.1775,-1.0999,-1.0044,-0.9332,-0.91,-0.9554,-0.8538,-0.7855,-0.7855,-0.7967,-0.8038,-0.8038,-0.8038,-0.8052,-0.8082,-0.8082,-0.8096,-0.8123,-0.8126,-0.8126,-0.8126,-0.8126,-0.8126,-0.8123,-0.8099,-0.8082,-0.8082,-0.8055,-0.8038,-0.8038,-0.8038,-0.8038,-0.8038,-0.8038,-0.8038,-0.8038,-0.8038,-0.8038,-0.8038,-0.8038,-0.8038,-0.8038,-0.8038,-0.8038,-0.8038,-0.8038,-0.8038,-0.8018,-0.7892,-0.7855,-0.7831,-0.7719,-0.7685,-0.7678,-0.7648,-0.7641,-0.7634,-0.7607,-0.76,-0.7567,-0.7441,-0.7414,-0.7377,-0.7255,-0.7231,-0.7221,-0.719,-0.7183,-0.7177,-0.7146,-0.7044,-0.697,-0.697,-0.6837,-0.6746,-0.6746,-0.6607,-0.6505,-0.6474,-0.6342,-0.6338,-0.6338,-0.6338,-0.6338,-0.6338,-0.6338,-0.6338,-0.6338,-0.6338,-0.62,-0.6074,-0.6074,-0.601,-0.5891,-0.5891,-0.5857,-1.3061,-1.1933,-1.0949,-1.0949,-1.1162,-1.1443,0.0,0.0,-1.1971,-1.2567,-1.2701,-1.2746,-1.3053,-1.3561,-1.3961,-1.3853,-1.4235,-1.4134,-1.3084,-1.2884,-1.2047,-1.0206,-0.8784,-0.8014,-0.8014,-0.8028,-0.8038,-0.8038,-0.8038,-0.8099,-0.8238,-0.8245,-0.8303,-0.8428,-0.8431,-0.8431,-0.8431,-0.8431,-0.8431,-0.8431,-0.8306,-0.8245,-0.8241,-0.8102,-0.8038,-0.8038,-0.8038,-0.8038,-0.8038,-0.8038,-0.8038,-0.8038,-0.8038,-0.8038,-0.8038,-0.8038,-0.8038,-0.8038,-0.8038,-0.8038,-0.8038,-0.8038,-0.8038,-0.8035,-0.8018,-0.8014,-0.8011,-0.7994,-0.7991,-0.796,-0.7824,-0.7787,-0.7756,-0.7631,-0.76,-0.7594,-0.758,-0.7573,-0.757,-0.7553,-0.755,-0.7506,-0.737,-0.7346,-0.7299,-0.7163,-0.7126,-0.7115,-0.7115,-0.6993,-0.6902,-0.6902,-0.6766,-0.662,-0.6485,-0.6342,-0.6338,-0.6338,-0.6338,-0.6338,-0.6338,-0.6338,-0.6338,-0.6338,-0.6338,-0.6251,-0.6234,-0.6234,-0.6227,-0.621,-0.621,-0.6064,-1.2813,-1.1913,0.0,0.0,-1.1724,-1.2011,-1.2385,-1.2518,-1.2719,-1.2966,-1.3153,-1.336,-1.3667,-1.4062,-1.4396,0.0,-1.4295,-1.3933,-1.3473,-1.2858,-1.2128,-1.1253,-0.9998,-0.8825,-0.8038,-0.8726,-0.8825,-0.8038,-0.8123,-0.8204,-0.8269,-0.8347,-0.8421,-0.8479,-0.8482,-0.8482,-0.8482,-0.8482,-0.8482,-0.8482,-0.8421,-0.8394,-0.8391,-0.8326,-0.8296,-0.8292,-0.8211,-0.8174,-0.8167,-0.8075,-0.8038,-0.8038,-0.8038,-0.8038,-0.8038,-0.8038,-0.8038,-0.8038,-0.8038,-0.8038,-0.8038,-0.8038,-0.8038,-0.8038,-0.8038,-0.8038,-0.8038,-0.8038,-0.8038,-0.8024,-0.796,-0.7943,-0.7929,-0.7868,-0.7855,-0.7831,-0.7743,-0.7723,-0.7699,-0.7614,-0.76,-0.758,-0.7516,-0.7506,-0.7451,-0.7299,-0.7197,-0.7139,-0.7139,-0.7088,-0.7021,-0.6939,-0.6871,-0.677,-0.6617,-0.6552,-0.6478,-0.639,-0.6383,-0.6346,-0.6264,-0.6338,-0.6338,-0.6338,-0.6338,-0.6338,-0.6338,-0.6338,-0.6338,-0.6338,-0.6338,-0.6193,-1.294,0.0,0.0,-1.1937,-1.2271,-1.2632,-1.2926,-1.3166,-1.3353,-1.3434,-1.3621,-1.3834,-1.4048,-1.4389,-1.471,-1.493,-1.4511,-1.3978,-1.3596,-1.3183,-1.2721,-1.195,-1.175,-1.0774,-0.8726,-0.9118,-0.9019,-0.8038,-0.8184,-0.8289,-0.8326,-0.8465,-0.8564,-0.8608,-0.8608,-0.8608,-0.8608,-0.8608,-0.8608,-0.8608,-0.8564,-0.8547,-0.8543,-0.8503,-0.8482,-0.8476,-0.8374,-0.833,-0.8319,-0.8208,-0.816,-0.816,-0.816,-0.816,-0.8157,-0.8116,-0.8075,-0.8038,-0.8038,-0.8038,-0.8038,-0.8038,-0.8038,-0.8038,-0.8038,-0.8038,-0.8038,-0.8038,-0.8038,-0.8038,-0.8038,-0.8038,-0.8038,-0.8038,-0.8038,-0.8011,-0.7896,-0.7875,-0.7845,-0.774,-0.7723,-0.7706,-0.7665,-0.7658,-0.7607,-0.7458,-0.7339,-0.7234,-0.7149,-0.7139,-0.7102,-0.6997,-0.6953,-0.6881,-0.6773,-0.6725,-0.6654,-0.6542,-0.6536,-0.6488,-0.6386,-0.6342,-0.6318,-0.6318,-0.6281,-0.6338,-0.6338,-0.6338,-0.6338,-0.6338,-0.6338,-0.6338,0.0,0.0,-1.2278,-1.2285,-1.2739,-1.326,-1.3547,-1.3539,-1.3707,-1.4001,-1.4068,-1.4075,-1.4088,-1.4563,-1.495,-1.4963,-1.5444,-1.5324,-1.4058,-1.4943,-1.4758,-1.2237,-1.4082,-1.4172,0.0,-0.8825,-0.8038,-0.8038,-0.8184,-0.833,-0.8469,-0.8621,-0.8771,-0.892,-0.8923,-0.8923,-0.8923,-0.8923,-0.8923,-0.8923,-0.8774,-0.8703,-0.8699,-0.855,-0.8482,-0.8482,-0.8476,-0.8476,-0.8476,-0.8472,-0.8469,-0.8469,-0.8469,-0.8469,-0.8452,-0.8316,-0.817,-0.8038,-0.8038,-0.8038,-0.8038,-0.8038,-0.8038,-0.8038,-0.8038,-0.8038,-0.8038,-0.8038,-0.8038,-0.8038,-0.8038,-0.8038,-0.8038,-0.8038,-0.8038,-0.8038,-0.8035,-0.8031,-0.8031,-0.8028,-0.8024,-0.798,-0.7831,-0.7804,-0.7756,-0.7614,-0.759,-0.7478,-0.718,-0.7139,-0.7139,-0.7136,-0.701,-0.6926,-0.6922,-0.6787,-0.6698,-0.6695,-0.6695,-0.6692,-0.6688,-0.6546,-0.6464,-0.6464,-0.6332,-0.6338,-0.6338,-0.6338,-0.6338,-0.6338,-0.6338,-0.6338,-1.4629,0.0,-1.2953,-1.3146,-1.3347,-1.3574,-1.3868,-1.3941,-1.3968,-1.4068,-1.4088,-1.4142,-1.4342,-1.4536,-1.4796,-1.5184,-1.5418,-1.5417,-1.5216,-1.5534,-1.5439,-1.4567,-1.3692,0.0,0.0,0.0,0.0,-0.8285,-0.833,-0.8476,-0.8625,-0.8777,-0.8886,-0.8937,-0.894,-0.894,-0.894,-0.894,-0.894,-0.894,-0.8886,-0.8862,-0.8859,-0.8808,-0.8784,-0.8777,-0.8676,-0.8632,-0.8625,-0.8523,-0.8482,-0.8482,-0.8482,-0.8482,-0.8476,-0.8428,-0.8377,-0.8319,-0.8225,-0.8194,-0.8208,-0.8303,-0.8333,-0.8316,-0.8221,-0.8194,-0.817,-0.8069,-0.8038,-0.8038,-0.8038,-0.8038,-0.8038,-0.8038,-0.8038,-0.8038,-0.8038,-0.8038,-0.8038,-0.8038,-0.8038,-0.8024,-0.797,-0.7963,-0.7913,-0.7763,-0.7573,-0.7411,-0.7309,-0.7204,-0.7139,-0.7139,-0.7099,-0.7068,-0.7068,-0.7021,-0.6953,-0.6858,-0.6851,-0.6807,-0.6705,-0.6651,-0.6624,-0.6624,-0.6576,-0.6552,-0.6552,-0.6552,-0.6552,-0.6552,-0.6552,-0.6498,-1.4752,-1.403,-1.3407,-1.3594,-1.3728,-1.3854,-1.4041,-1.4088,-1.4088,-1.4088,-1.4088,-1.4142,-1.4335,-1.4449,-1.4643,-1.5023,-1.5257,-1.5464,-1.5651,-1.5765,-1.5832,-1.5832,-1.3884,-1.2431,0.0,0.0,0.0,-0.8463,-0.8452,-0.8608,-0.8706,-0.8855,-0.894,-0.894,-0.894,-0.894,-0.894,-0.894,-0.894,-0.894,-0.894,-0.894,-0.894,-0.894,-0.894,-0.8933,-0.8835,-0.8791,-0.8784,-0.8686,-0.8645,-0.8645,-0.8645,-0.8645,-0.8638,-0.8584,-0.8564,-0.8543,-0.8397,-0.8347,-0.836,-0.8452,-0.8482,-0.8465,-0.8374,-0.8347,-0.8326,-0.8225,-0.816,-0.8123,-0.8123,-0.8079,-0.8038,-0.8038,-0.8038,-0.8038,-0.8038,-0.8038,-0.8038,-0.8038,-0.8038,-0.8038,-0.8038,-0.8038,-0.8007,-0.7909,-0.7685,-0.7509,-0.7458,-0.7319,-0.7221,-0.7221,-0.7173,-0.7139,-0.7139,-0.7139,-0.7102,-0.701,-0.7004,-0.6959,-0.6861,-0.681,-0.678,-0.678,-0.6729,-0.6702,-0.6702,-0.6702,-0.6702,-0.6702,-0.6702,-0.6647,-1.4492,-1.3995,-1.3667,-1.3667,-1.3881,-1.4088,-1.4088,-1.4088,-1.4082,-1.4068,-1.4062,-1.4062,0.0,0.0,-1.4482,-1.4516,-1.499,-1.5364,-1.5391,-1.5631,-1.5812,0.0,0.0,0.0,0.0,0.0,0.0,-0.8593,0.0,-0.8821,-0.872,-0.8859,-0.8937,-0.894,-0.894,-0.894,-0.894,-0.894,-0.894,-0.894,-0.894,-0.894,-0.894,-0.894,-0.894,-0.894,-0.894,-0.894,-0.894,-0.894,-0.894,-0.894,-0.894,-0.894,-0.892,-0.8774,-0.8723,-0.8703,-0.8557,-0.8499,-0.8496,-0.8503,-0.8506,-0.8503,-0.8496,-0.8492,-0.8492,-0.8482,-0.8384,-0.8282,-0.8282,-0.8167,-0.8052,-0.8052,-0.8045,-0.8038,-0.8038,-0.8038,-0.8038,-0.8038,-0.8038,-0.8038,-0.8038,-0.8038,-0.8038,-0.8038,-0.7916,-0.777,-0.7631,-0.7478,-0.7383,-0.7383,-0.7244,-0.7153,-0.7153,-0.7146,-0.7139,-0.7139,-0.7139,-0.7139,-0.7139,-0.701,-0.6939,-0.6939,-0.6797,-0.6722,-0.6722,-0.6722,-0.6722,-0.6722,-0.6722,-0.6719,-1.6017,-1.5028,-1.3975,-1.3975,-1.4035,-1.4088,-1.4088,-1.4088,-1.4021,-1.3801,-1.3761,-1.3761,0.0,0.0,0.0,-1.4449,-1.4643,0.0,-1.5337,-1.5464,0.0,-1.5805,0.0,-1.3852,-1.3745,-1.2682,0.0,0.0,-1.0873,-0.9931,-0.8872,-0.9892,-1.0025,-0.8937,-0.894,-0.894,-0.894,-0.894,-0.894,-0.894,-0.894,-0.894,-0.894,-0.894,-0.894,-0.894,-0.894,-0.894,-0.894,-0.894,-0.894,-0.894,-0.894,-0.894,-0.8933,-0.8896,-0.8879,-0.8876,-0.8835,-0.8747,-0.8672,-0.8784,-0.8821,-0.8801,-0.8686,-0.8652,-0.8628,-0.8513,-0.8455,-0.8428,-0.8428,-0.8319,-0.8211,-0.8211,-0.8123,-0.8038,-0.8038,-0.8038,-0.8038,-0.8038,-0.8038,-0.8038,-0.8038,-0.8038,-0.8038,-0.8038,-0.8007,-0.7926,-0.7777,-0.7631,-0.7543,-0.7543,-0.7404,-0.7312,-0.7312,-0.7207,-0.7139,-0.7139,-0.7139,-0.7139,-0.7139,-0.7105,-0.7085,-0.7085,-0.7048,-0.7027,-0.7027,-0.7027,-0.7027,-0.7027,-0.7027,-0.697,-1.5733,-1.4842,-1.4115,-1.4249,-1.4182,-1.4088,-1.4088,-1.3988,-1.3848,-1.3674,-1.354,0.0,0.0,0.0,0.0,0.0,0.0,0.0,-1.5124,-1.5317,-1.5504,0.0,-1.4762,0.0,-1.4242,-1.3367,-1.2893,0.0,-1.238,-1.1635,-1.0887,-1.1647,-1.1647,-1.0891,-1.0781,-1.0566,-0.9915,-0.9265,-0.9265,-0.9915,-0.9915,-1.0241,-1.0781,-1.0131,-0.9915,-0.9809,-0.9154,-0.894,-0.894,-0.894,-0.894,-0.894,-0.894,-0.894,-0.894,-0.894,-0.894,-0.894,-0.894,-0.8882,-0.8825,-0.891,-0.894,-0.8923,-0.8835,-0.8811,-0.8794,-0.8706,-0.8635,-0.8581,-0.8581,-0.8472,-0.8347,-0.8286,-0.8204,-0.8123,-0.8055,-0.8038,-0.8038,-0.8038,-0.8038,-0.8038,-0.8038,-0.8038,-0.8038,-0.8038,-0.8038,-0.8007,-0.7923,-0.7784,-0.7692,-0.7692,-0.756,-0.7472,-0.7472,-0.7329,-0.7241,-0.7241,-0.7177,-0.7139,-0.7139,-0.7139,-0.7139,-0.7139,-0.7139,-0.7139,-0.7139,-0.7139,-0.7139,-0.7139,-0.7139,-0.7099,-1.4733,-1.4166,-1.4148,-1.4402,-1.4275,-1.4075,-1.4041,-1.3828,-1.3539,-1.354,0.0,-1.3153,-1.3153,-1.3153,-1.326,-1.3587,0.0,-1.4249,-1.4877,-1.5177,-1.5464,-1.5792,-1.5093,-1.4574,-1.4604,-1.402,-1.3567,-1.3598,-1.3795,-1.3696,-1.3372,-1.348,-1.348,-1.3264,-1.3264,-1.2729,-1.1433,-1.0131,-1.0135,-1.1433,-1.1433,-1.2077,-1.3264,-1.1969,-1.1433,-1.1324,-1.0025,-0.9482,-0.9482,-0.9265,-0.9154,-0.9154,-0.8937,-0.894,-0.894,-0.894,-0.894,-0.894,-0.894,-0.894,-0.894,-0.894,-0.894,-0.894,-0.894,-0.894,-0.894,-0.894,-0.8845,-0.874,-0.874,-0.8628,-0.8482,-0.836,-0.8313,-0.8357,-0.8299,-0.8446,-0.8531,-0.8531,-0.8531,-0.8531,-0.8531,-0.8531,-0.8531,-0.8531,-0.8333,-0.8233,-0.8233,-0.8021,-0.7841,-0.7841,-0.7712,-0.7628,-0.7628,-0.7489,-0.7394,-0.7373,-0.7244,-0.7163,-0.7139,-0.7139,-0.7139,-0.7139,-0.7139,-0.7139,-0.7139,-0.7139,-0.7139,-0.7139,-0.7139,-0.7139,-1.5696,-1.4817,-1.4095,-1.4148,-1.4122,-1.4021,-1.3774,-1.3681,0.0,0.0,0.0,-1.2903,-1.2903,-1.2903,-1.3006,-1.3554,0.0,0.0,0.0,0.0,-1.5237,0.0,0.0,0.0,0.0,0.0,0.0,0.0,-1.6797,-1.5849,-1.348,-1.4449,-1.4449,-1.3372,-1.3264,-1.3156,-1.294,-1.2615,-1.262,-1.294,-1.294,-1.3048,-1.3264,-1.3048,-1.294,-1.294,-1.262,0.0,-1.2403,-1.1214,-1.0672,-1.0566,-0.9372,-0.894,-0.894,-0.894,-0.894,-0.894,-0.894,-0.894,-0.894,-0.894,-0.894,-0.894,-0.894,-0.894,-0.894,-0.894,-0.892,-0.8899,-0.8899,-0.8784,-0.8665,-0.8638,-0.8537,-0.8713,-0.9657,-1.0595,-1.1263,-1.1263,-1.1263,-1.1263,-1.1263,-1.1263,-1.1263,-1.1263,-1.0288,-0.9608,-0.9608,-0.87,-0.7997,-0.7997,-0.7865,-0.7773,-0.7773,-0.7641,-0.7506,-0.738,-0.7346,-0.7275,-0.7146,-0.7139,-0.7139,-0.7139,-0.7139,-0.7139,-0.7139,-0.7139,-0.7139,-0.7139,-0.7139,-0.7139,-1.5413,-1.5014,-1.4853,-1.444,-1.4082,-1.3814,-1.3674,0.0,0.0,0.0,-1.2625,-1.2518,-1.2518,0.0,0.0,0.0,0.0,0.0,0.0,0.0,0.0,0.0,0.0,0.0,0.0,0.0,0.0,-1.7562,-1.7582,-1.7041,-1.5636,-1.6174,-1.628,-1.553,-1.4776,-1.4341,-1.4341,-1.3696,-1.3696,-1.4341,-1.4341,-1.4776,-1.553,-1.477,-1.4341,-1.4341,-1.3588,-1.3264,-1.3264,-1.2512,-1.2186,-1.2186,-1.1428,-1.1214,-1.1105,-1.0351,-1.0025,-0.9915,-0.9154,-0.9372,-1.0025,-1.0025,-0.9482,-0.894,-0.894,-0.894,-0.894,-0.894,-0.9482,-1.0025,-1.0025,-1.0611,-1.1052,-1.095,-1.0888,-1.0802,-1.1217,-1.1795,-1.2087,-1.197,-1.1945,-1.1945,-1.1945,-1.1945,-1.1945,-1.1945,-1.1365,-1.0779,-1.0096,-0.941,-0.8726,-0.8038,-0.7974,-0.7929,-0.7929,-0.7794,-0.7678,-0.7604,-0.7533,-0.7421,-0.7265,-0.7261,-0.7221,-0.7143,-0.7139,-0.7139,-0.7139,-0.7139,-0.7139,-0.7139,-0.7139,-0.7139,-1.486,-1.5028,-1.5499,-1.4538,-1.3988,-1.3614,-1.348,-1.3086,0.0,0.0,-1.2465,-1.2305,-1.2305,0.0,0.0,0.0,0.0,0.0,0.0,0.0,0.0,0.0,0.0,0.0,0.0,0.0,0.0,-1.7562,-1.7582,-1.7582,-1.7582,-1.7582,-1.7582,-1.7582,-1.6499,-1.5849,-1.5849,-1.477,-1.477,-1.5849,-1.5849,-1.6499,-1.7582,-1.6393,-1.5849,-1.5849,-1.4669,-1.4234,-1.4234,-1.3911,-1.3804,-1.3696,-1.3372,-1.3264,-1.3156,-1.1969,-1.1538,-1.1433,-1.0241,-1.0566,-1.1538,-1.1538,-1.0781,-0.9805,-0.9805,-0.9805,-0.9805,-0.9805,-1.0676,-1.1538,-1.1538,-1.2403,-1.3219,-1.3143,-1.3148,-1.3249,-1.2962,-1.319,-1.3181,-1.2943,-1.2797,-1.2786,-1.2732,-1.2721,-1.2721,-1.2721,-1.2528,-1.1945,-1.097,-1.0583,-0.9899,-0.8531,-0.8137,-0.8038,-0.8038,-0.7929,-0.7845,-0.7814,-0.7706,-0.7577,-0.7424,-0.7421,-0.7346,-0.7193,-0.719,-0.7173,-0.7139,-0.7139,-0.7139,-0.7139,-0.7139,-0.7139,-1.4505,-1.4696,-1.5396,-1.4022,-1.3599,-1.35,-1.2953,0.0,0.0,-1.2398,-1.2318,-1.2305,-1.2305,-1.2305,0.0,0.0,0.0,-1.3414,0.0,0.0,0.0,0.0,0.0,0.0,0.0,0.0,0.0,-1.7562,-1.7582,-1.7582,-1.7582,-1.7582,-1.7582,-1.7582,-1.7477,-1.7364,-1.7364,-1.7259,-1.7259,-1.7364,-1.7364,-1.7477,-1.7582,-1.7477,-1.7364,-1.7364,-1.7252,-1.7147,0.0,-1.5743,-1.5204,-1.5091,-1.3804,-1.3264,-1.3264,-1.3156,-1.3053,-1.3048,-1.2945,-1.2945,-1.3053,-1.3053,-1.3048,-1.294,-1.294,-1.294,-1.294,-1.294,-1.294,-1.3053,-1.3053,-1.3156,-1.3259,-1.3239,-1.4022,-1.4787,-1.4763,-1.5605,-1.6169,-1.5986,-1.5934,-1.5848,-1.5484,-1.5439,-1.5439,-1.5439,-1.4465,-1.368,-1.3584,-1.2522,-1.1263,-0.9998,-0.8726,-0.8038,-0.8038,-0.8028,-0.796,-0.7821,-0.7797,-0.7729,-0.7584,-0.758,-0.7506,-0.7353,-0.735,-0.7282,-0.7139,-0.7139,-0.7139,-0.7139,-0.7139,-0.7139,-1.4736,-1.5087,-1.5693,-1.4482,-1.3701,-1.3039,-1.2876,0.0,-1.2445,-1.2325,-1.2305,-1.2305,-1.2305,-1.2305,-1.2338,0.0,0.0,0.0,0.0,0.0,0.0,0.0,0.0,0.0,0.0,0.0,0.0,-1.7549,-1.7582,-1.7582,-1.7582,-1.7582,-1.7582,-1.7582,-1.7582,-1.7582,-1.7582,-1.7582,-1.7582,-1.7582,-1.7582,-1.7582,-1.7582,-1.7582,-1.7582,-1.7582,-1.7582,-1.7582,0.0,-1.6929,-1.6717,-1.6711,-1.6068,-1.5855,-1.5743,-1.4883,-1.4556,-1.4449,-1.3588,-1.3804,-1.4556,-1.4556,-1.5204,-1.553,-1.3804,-1.3264,-1.3264,-1.3264,-1.3911,-1.4556,-1.4556,-1.5204,-1.5855,-1.5855,-1.62,-1.6507,-1.6336,-1.6638,-1.6887,-1.6593,-1.6393,-1.6239,-1.6119,-1.5945,-1.5832,-1.5832,-1.5337,-1.4752,-1.3974,-1.3392,-1.2328,-1.0194,-0.9509,-0.892,-0.8038,-0.8038,-0.8014,-0.795,-0.7946,-0.7882,-0.7733,-0.7726,-0.7658,-0.7512,-0.7509,-0.7431,-0.7278,-0.7278,-0.7231,-0.7139,-0.7139,-0.7139,-1.4891,-1.517,-1.5616,-1.4585,-1.3665,-1.2914,0.0,0.0,-1.2305,-1.2305,-1.2305,-1.2305,-1.2305,-1.2305,-1.2305,0.0,0.0,-1.3106,0.0,0.0,0.0,0.0,0.0,0.0,0.0,0.0,-1.7134,-1.7549,-1.7582,-1.7582,-1.7582,-1.7582,-1.7582,-1.7582,-1.7582,-1.7582,-1.7582,-1.7582,-1.7582,-1.7582,-1.7582,-1.7582,-1.7582,-1.7582,-1.7582,-1.7582,-1.7582,-1.7582,0.0,-1.7582,-1.7582,-1.7582,-1.7582,-1.7582,-1.747,-1.6393,-1.6062,-1.5956,-1.4883,-1.5204,-1.6062,-1.6062,-1.6717,-1.7259,-1.5204,-1.4561,-1.4561,-1.4561,-1.531,-1.6062,-1.6062,-1.6823,-1.7582,-1.7582,-1.7582,-1.7522,-1.7321,-1.7275,-1.7194,-1.6894,-1.6673,-1.648,-1.6299,-1.6099,-1.5925,-1.5845,-1.5832,-1.5439,-1.4561,-1.4459,-1.359,-1.1356,-1.0774,-0.9899,-0.8137,-0.8038,-0.8038,-0.8038,-0.8038,-0.7991,-0.7882,-0.7879,-0.7811,-0.7665,-0.7662,-0.759,-0.7438,-0.7394,-0.7316,-0.7207,-0.7163,-0.7139,-1.4627,-1.4759,-1.4958,-1.3825,-1.347,-1.3244,0.0,0.0,-1.2305,-1.2305,-1.2305,-1.2305,-1.2305,-1.2305,-1.2305,-1.2305,-1.2552,0.0,0.0,0.0,0.0,0.0,0.0,0.0,0.0,0.0,-1.7575,-1.7582,-1.7582,0.0,-1.7582,-1.7582,-1.7582,-1.7582,-1.7582,-1.7582,-1.7582,-1.7582,-1.7582,-1.7582,-1.7582,-1.7582,-1.7582,-1.7582,-1.7582,-1.7582,-1.7582,-1.7582,0.0,-1.7582,-1.7582,-1.7582,-1.7582,-1.7582,-1.7582,-1.7582,-1.7582,-1.7582,-1.7582,-1.7582,-1.7582,-1.7582,-1.7582,-1.7582,-1.7582,-1.7582,-1.7582,-1.7582,-1.7582,-1.7582,-1.7582,-1.7582,-1.7582,-1.7582,-1.7582,-1.7582,-1.7582,-1.7582,-1.7495,-1.7201,-1.7141,-1.6954,-1.6373,-1.6273,-1.6166,-1.5872,-1.5832,-1.5832,-1.5825,-1.5737,-1.5248,-1.3974,-1.2624,-1.0877,-0.8233,-0.8038,-0.8038,-0.8038,-0.8038,-0.8038,-0.8038,-0.8038,-0.7967,-0.7811,-0.7811,-0.774,-0.7597,-0.7444,-0.737,-0.7366,-0.721,-0.7139,-1.4512,-1.4917,-1.5471,-1.4576,-1.4001,-1.36,-1.331,0.0,-1.2305,-1.2305,-1.2305,-1.2305,-1.2305,-1.2305,-1.2305,-1.2305,-1.2552,0.0,0.0,0.0,0.0,0.0,0.0,0.0,0.0,0.0,-1.7368,-1.7569,-1.7582,-1.7582,-1.7582,-1.7582,-1.7582,-1.7582,-1.7582,-1.7582,-1.7582,-1.7582,-1.7582,-1.7582,-1.7582,-1.7582,-1.7582,-1.7582,-1.7582,-1.7582,-1.7582,-1.7582,-1.7582,-1.7582,-1.7582,-1.7582,-1.7582,-1.7582,-1.7582,-1.7582,-1.7582,-1.7582,-1.7582,-1.7582,-1.7582,-1.7582,-1.7582,-1.7582,-1.7582,-1.7582,-1.7582,-1.7582,-1.7582,-1.7582,-1.7582,-1.7582,-1.7582,-1.7582,-1.7582,-1.7582,-1.7582,-1.7582,-1.7555,-1.7462,-1.7288,-1.7094,-1.6907,-1.654,-1.6239,-1.6146,-1.5959,-1.5832,-1.5832,-1.5832,-1.5337,-1.407,-1.3488,-1.2231,-0.9608,-0.8531,-0.8038,-0.8038,-0.8038,-0.8038,-0.8038,-0.8038,-0.8018,-0.7967,-0.7967,-0.7892,-0.7743,-0.7695,-0.757,-0.737,-0.7322,-0.7241,0.0,-1.4775,-1.4901,-1.4513,-1.421,0.0,0.0,0.0,0.0,-1.2372,-1.2305,-1.2305,-1.2305,-1.2305,-1.2305,-1.2305,-1.2458,0.0,0.0,0.0,0.0,0.0,0.0,0.0,0.0,-1.6974,-1.7268,-1.7562,-1.7582,-1.7582,-1.7582,-1.7582,-1.7582,-1.7582,-1.7582,-1.7582,-1.7582,-1.7582,-1.7582,-1.7582,-1.7582,-1.7582,-1.7582,-1.7582,-1.7582,-1.7582,-1.7582,-1.7582,0.0,-1.7582,-1.7582,-1.7582,-1.7582,-1.7582,-1.7582,-1.7582,-1.7582,-1.7582,-1.7582,-1.7582,-1.7582,-1.7582,-1.7582,-1.7582,-1.7582,-1.7582,-1.7582,-1.7582,-1.7582,-1.7582,-1.7582,-1.7582,-1.7582,-1.7582,-1.7582,-1.7582,-1.7582,-1.7582,-1.7582,-1.7582,-1.7442,-1.7281,-1.7271,-1.6847,-1.6526,-1.6306,-1.6112,-1.5952,-1.5845,-1.5832,-1.5534,-1.4657,-1.4166,-1.3006,-1.0877,-0.9509,-0.8531,-0.8038,-0.8038,-0.8038,-0.8038,-0.8038,-0.8038,-0.8038,-0.8038,-0.7991,-0.7896,-0.7838,-0.7689,-0.7455,-0.7397,-0.7319,0.0,0.0,0.0,0.0,0.0,0.0,0.0,0.0,0.0,0.0,0.0,0.0,-1.2305,-1.2305,-1.2305,-1.2305,-1.2318,0.0,0.0,0.0,0.0,0.0,0.0,0.0,0.0,-1.6954,-1.7248,-1.7562,-1.7582,-1.7582,-1.7582,-1.7582,-1.7582,-1.7582,-1.7582,-1.7582,-1.7582,-1.7582,-1.7582,-1.7582,-1.7582,-1.7582,-1.7582,-1.7582,-1.7582,0.0,-1.7582,-1.7582,-1.7582,-1.7582,-1.7582,-1.7582,-1.7582,-1.7582,-1.7582,-1.7582,-1.7582,-1.7582,-1.7582,-1.7582,-1.7582,-1.7582,-1.7582,-1.7582,-1.7582,-1.7582,-1.7582,-1.7582,-1.7582,-1.7582,-1.7582,-1.7582,-1.7582,-1.7582,-1.7582,-1.7582,-1.7582,-1.7582,-1.7582,-1.7582,-1.7582,-1.7495,-1.7228,-1.7161,-1.6961,-1.642,-1.6299,-1.6172,-1.5899,-1.5845,-1.5832,-1.5832,-1.4752,-1.3494,-1.2042,-1.0681,-0.941,-0.8038,-0.8038,-0.8038,-0.8038,-0.8038,-0.8038,-0.8038,-0.8038,-0.8038,-0.8038,-0.7896,-0.7753,-0.7611,-0.7468,-0.7397,-1.541,0.0,-1.5815,-1.5239,-1.5641,0.0,0.0,0.0,0.0,0.0,0.0,0.0,0.0,0.0,0.0,-1.2305,0.0,-1.2772,0.0,0.0,0.0,0.0,0.0,0.0,-1.6653,-1.6767,-1.7027,-1.7542,-1.7582,-1.7582,-1.7582,-1.7582,-1.7582,-1.7582,-1.7582,-1.7582,-1.7582,-1.7582,-1.7582,-1.7582,-1.7582,-1.7582,-1.7582,-1.7582,-1.7582,-1.7582,-1.7582,-1.7582,-1.7582,-1.7582,-1.7582,-1.7582,-1.7582,-1.7582,-1.7582,-1.7582,-1.7582,-1.7582,-1.7582,-1.7582,-1.7582,-1.7582,-1.7582,-1.7582,-1.7582,-1.7582,-1.7582,-1.7582,-1.7582,-1.7582,-1.7582,-1.7582,-1.7582,-1.7582,-1.7582,-1.7582,-1.7582,-1.7582,-1.7582,-1.7582,-1.7582,-1.7562,-1.7495,-1.7295,-1.7101,-1.6961,-1.656,-1.6246,-1.6179,-1.5972,-1.5832,-1.5832,-1.5534,-1.4465,-1.2139,-1.0681,-0.941,-0.8038,-0.8038,-0.8038,-0.8038,-0.8038,-0.8038,-0.8038,-0.8038,-0.8038,-0.8038,-0.8004,-0.7909,-0.776,-0.7726,-0.7648,-1.541,-1.5597,-1.5694,-1.5478,-1.5846,-1.5989,0.0,0.0,0.0,0.0,0.0,0.0,0.0,0.0,0.0,0.0,0.0,0.0,0.0,0.0,0.0,0.0,0.0,0.0,0.0,-1.6707,-1.6947,-1.7535,-1.7582,-1.7582,-1.7582,-1.7582,-1.7582,-1.7582,-1.7582,-1.7582,-1.7582,-1.7582,-1.7582,-1.7582,-1.7582,-1.7582,-1.7582,-1.7582,-1.7582,-1.7582,-1.7582,-1.7582,-1.7582,-1.7582,-1.7582,-1.7582,-1.7582,-1.7582,-1.7582,-1.7582,-1.7582,-1.7582,-1.7582,-1.7582,-1.7582,-1.7582,-1.7582,-1.7582,-1.7582,-1.7582,-1.7582,-1.7582,-1.7582,-1.7582,-1.7582,-1.7582,-1.7582,-1.7582,-1.7582,-1.7582,-1.7582,-1.7582,-1.7582,-1.7582,-1.7582,-1.7582,-1.7582,-1.7455,-1.7301,-1.7174,-1.676,-1.6426,-1.6293,-1.6012,-1.5832,-1.5832,-1.5832,-1.4758,-1.2139,-1.1268,-1.0096,-0.8137,-0.8038,-0.8038,-0.8038,-0.8038,-0.8038,-0.8038,-0.8038,-0.8038,-0.8038,-0.8038,-0.7997,-0.7916,-0.7845,-0.777,-1.541,-1.5128,-1.4951,-1.5405,-1.5814,-1.5733,0.0,0.0,0.0,0.0,0.0,0.0,0.0,0.0,0.0,0.0,0.0,0.0,0.0,0.0,0.0,0.0,0.0,0.0,-1.6587,-1.668,-1.6934,-1.7475,-1.7555,-1.7582,-1.7582,-1.7582,-1.7582,-1.7582,-1.7582,-1.7582,-1.7582,-1.7582,-1.7582,-1.7582,-1.7582,-1.7582,-1.7582,-1.7582,-1.7582,-1.7582,-1.7582,0.0,-1.7582,-1.7582,-1.7582,-1.7582,-1.7582,-1.7582,-1.7582,-1.7582,-1.7582,-1.7582,-1.7582,-1.7582,-1.7582,-1.7582,-1.7582,-1.7582,-1.7582,-1.7582,-1.7582,-1.7582,-1.7582,-1.7582,-1.7582,-1.7582,-1.7582,-1.7582,-1.7582,-1.7582,-1.7582,-1.7582,-1.7582,-1.7582,-1.7582,-1.7582,-1.7582,-1.7582,-1.7502,-1.7255,-1.6921,-1.6613,-1.6373,-1.6039,-1.5832,-1.5832,-1.5635,-1.4561,-1.2139,-1.1755,-1.0583,-0.8137,-0.8038,-0.8038,-0.8038,-0.8038,-0.8038,-0.8038,-0.8038,-0.8038,-0.8038,-0.8038,-0.8038,-0.8035,-0.7906,-0.7845,-1.541,-1.5342,-1.5465,-1.6263,-1.6857,-1.6797,0.0,0.0,0.0,0.0,0.0,0.0,0.0,0.0,0.0,0.0,0.0,0.0,0.0,0.0,0.0,0.0,0.0,-1.5965,-1.6306,-1.656,-1.6847,-1.7188,-1.7442,-1.7582,-1.7582,-1.7582,-1.7582,-1.7582,-1.7582,-1.7582,-1.7582,-1.7582,-1.7582,-1.7582,-1.7582,-1.7582,-1.7582,-1.7582,-1.7582,-1.7582,0.0,-1.7582,-1.7582,-1.7582,-1.7582,-1.7582,-1.7582,-1.7582,-1.7582,-1.7582,-1.7582,-1.7582,-1.7582,-1.7582,-1.7582,-1.7582,-1.7582,-1.7582,-1.7582,-1.7582,-1.7582,-1.7582,-1.7582,-1.7582,-1.7582,-1.7582,-1.7582,-1.7582,-1.7582,-1.7582,-1.7582,-1.7582,-1.7582,-1.7582,-1.7582,-1.7582,-1.7582,-1.7582,-1.7569,-1.7522,-1.7054,-1.6693,-1.6647,-1.6166,-1.5832,-1.5832,-1.4848,-1.359,-1.2042,-1.0877,-0.9608,-0.8137,-0.8038,-0.8038,-0.8038,-0.8038,-0.8038,-0.8038,-0.8038,-0.8038,-0.8038,-0.8038,-0.8038,-0.8038,-0.8014,-0.8004,-1.541,-1.541,-1.5497,-1.5848,-1.6481,-1.6721,0.0,0.0,0.0,0.0,0.0,0.0,0.0,0.0,0.0,0.0,0.0,0.0,0.0,0.0,0.0,0.0,0.0,-1.5945,-1.6246,-1.6393,-1.6593,-1.6887,-1.7181,-1.7348,-1.7348,-1.7495,-1.7582,-1.7582,-1.7582,-1.7582,-1.7582,-1.7582,-1.7582,-1.7582,-1.7582,-1.7582,-1.7582,-1.7582,-1.7582,-1.7582,0.0,-1.7582,-1.7582,-1.7582,-1.7582,-1.7582,-1.7582,-1.7582,-1.7582,-1.7582,-1.7582,-1.7582,-1.7582,-1.7582,-1.7582,-1.7582,-1.7582,-1.7582,-1.7582,-1.7582,-1.7582,-1.7582,-1.7582,-1.7582,-1.7582,-1.7582,-1.7582,-1.7582,-1.7582,-1.7582,-1.7582,-1.7582,-1.7582,-1.7582,-1.7582,-1.7582,-1.7582,-1.7582,-1.7582,-1.7582,-1.7081,-1.6707,-1.6707,-1.6192,-1.5832,-1.5832,-1.4657,-1.3392,-1.2042,-1.0681,-0.941,-0.8038,-0.8038,-0.8038,-0.8038,-0.8038,-0.8038,-0.8038,-0.8038,-0.8038,-0.8038,-0.8038,-0.8038,-0.8038,-0.8038,-0.8038,-1.541,-1.5488,-1.5494,-1.5342,0.0,-1.6419,0.0,0.0,0.0,0.0,0.0,0.0,0.0,0.0,0.0,0.0,0.0,0.0,0.0,-1.5211,-1.5504,-1.5792,-1.5832,-1.5919,-1.6146,-1.6233,-1.6366,-1.6587,-1.6874,-1.7048,-1.7048,-1.7255,-1.7408,-1.7475,-1.7482,-1.7515,-1.7582,-1.7582,-1.7582,-1.7582,-1.7582,-1.7582,-1.7582,-1.7582,-1.7582,-1.7582,-1.7582,-1.7582,-1.7582,-1.7582,-1.7582,-1.7582,-1.7582,-1.7582,-1.7582,-1.7582,-1.7582,-1.7582,-1.7582,-1.7582,-1.7582,-1.7582,-1.7582,-1.7582,-1.7582,-1.7582,-1.7582,-1.7582,-1.7582,-1.7582,-1.7582,-1.7582,-1.7582,-1.7582,-1.7582,-1.7582,-1.7582,-1.7582,-1.7582,-1.7582,-1.7582,-1.7582,-1.7582,-1.7582,-1.7582,-1.7582,-1.7081,-1.6707,-1.6707,-1.6192,-1.5832,-1.5832,-1.4364,-1.2813,-1.1165,-1.0096,-0.9118,-0.8038,-0.8038,-0.8038,-0.8038,-0.8038,-0.8038,-0.8038,-0.8038,-0.8038,-0.8038,-0.8038,-0.8038,-0.8038,-0.8038,-0.8038,-1.541,-1.5703,-1.593,-1.5414,0.0,0.0,0.0,0.0,0.0,0.0,0.0,0.0,0.0,0.0,0.0,0.0,0.0,0.0,-1.4917,0.0,-1.5504,-1.5792,-1.5832,-1.5838,-1.5858,-1.6112,-1.6279,-1.6299,-1.6573,-1.674,-1.674,-1.6754,-1.6894,-1.7174,-1.7181,-1.7308,-1.7582,-1.7582,-1.7582,-1.7582,-1.7582,-1.7582,-1.7582,-1.7582,-1.7582,-1.7582,-1.7582,-1.7582,-1.7582,-1.7582,-1.7582,-1.7582,-1.7582,-1.7582,-1.7582,-1.7582,-1.7582,-1.7582,-1.7582,-1.7582,-1.7582,-1.7582,-1.7582,-1.7582,-1.7582,-1.7582,-1.7582,-1.7582,-1.7582,-1.7582,-1.7582,-1.7582,-1.7582,-1.7582,-1.7582,-1.7582,-1.7582,-1.7582,-1.7582,-1.7582,-1.7582,-1.7582,-1.7582,-1.7582,-1.7582,-1.7582,-1.7081,-1.6707,-1.6707,-1.6192,-1.5832,-1.5832,-1.3596,-1.1068,-0.8528,-0.8237,-0.8137,-0.8038,-0.8038,-0.8038,-0.8038,-0.8038,-0.8038,-0.8038,-0.8038,-0.8038,-0.8038,-0.8038,-0.8038,-0.8038,-0.8038,-0.8038,-1.541,-1.5732,-1.5969,-1.5414,0.0,0.0,0.0,0.0,0.0,0.0,0.0,0.0,0.0,0.0,0.0,0.0,0.0,0.0,-1.519,-1.5484,-1.5705,-1.5812,-1.5832,-1.5832,-1.5832,-1.5932,-1.5999,-1.5999,-1.6273,-1.6433,-1.6433,-1.6607,-1.676,-1.6867,-1.6874,-1.6927,-1.7034,-1.7221,-1.7315,-1.7315,-1.7495,-1.7582,-1.7582,-1.7582,-1.7582,-1.7582,-1.7582,-1.7582,-1.7582,-1.7582,-1.7582,-1.7582,-1.7582,-1.7582,-1.7582,-1.7582,-1.7582,-1.7582,-1.7582,-1.7582,-1.7582,-1.7582,-1.7582,-1.7582,-1.7582,-1.7582,-1.7582,-1.7582,-1.7582,-1.7582,-1.7582,-1.7582,-1.7582,-1.7582,-1.7582,-1.7582,-1.7582,-1.7582,-1.7582,-1.7582,-1.7582,-1.7582,-1.7582,-1.7582,-1.7582,-1.7582,-1.7081,-1.6707,-1.6707,-1.5492,-1.4657,-1.4657,-1.2231,-0.9998,-0.8137,-0.8038,-0.8038,-0.8038,-0.8038,-0.8038,-0.8038,-0.8038,-0.8038,-0.8038,-0.8038,-0.8038,-0.8038,-0.8038,-0.8038,-0.8038,-0.8038,-0.8038,-1.541,-1.583,-1.6214,0.0,0.0,0.0,0.0,0.0,0.0,0.0,0.0,0.0,0.0,0.0,0.0,0.0,0.0,-1.5064,-1.5357,-1.5645,-1.5832,-1.5832,-1.5832,-1.5832,-1.5832,-1.5832,-1.5832,-1.5832,-1.6019,-1.6132,-1.6132,-1.6319,-1.6473,-1.6567,-1.6567,-1.6613,-1.6707,-1.6907,-1.7007,-1.7014,-1.7208,-1.7402,-1.7582,-1.7582,-1.7582,-1.7582,-1.7582,-1.7582,-1.7582,-1.7582,-1.7582,-1.7582,-1.7582,-1.7582,-1.7582,-1.7582,-1.7582,-1.7582,-1.7582,-1.7582,-1.7582,-1.7582,-1.7582,-1.7582,-1.7582,-1.7582,-1.7582,-1.7582,-1.7582,-1.7582,-1.7582,-1.7582,-1.7582,-1.7582,-1.7582,-1.7582,-1.7582,-1.7582,-1.7582,-1.7582,-1.7582,-1.7582,-1.7582,-1.7582,-1.7582,-1.7582,-1.7081,-1.6707,-1.6707,-1.5089,-1.3584,-1.2711,-1.1068,-0.941,-0.8137,-0.8038,-0.8038,-0.8038,-0.8038,-0.8038,-0.8038,-0.8038,-0.8038,-0.8038,-0.8038,-0.8038,-0.8038,-0.8038,-0.8038,-0.8038,-0.8038,-0.8038,-1.541,-1.6064,0.0,0.0,0.0,0.0,0.0,0.0,0.0,0.0,0.0,0.0,0.0,0.0,0.0,-1.5882,-1.5535,-1.5154,-1.5357,-1.5651,-1.5825,-1.5825,-1.5832,-1.5832,-1.5832,-1.5832,-1.5832,-1.5832,-1.5832,-1.5832,-1.5832,-1.5832,-1.5965,-1.6259,-1.6273,-1.6406,-1.6693,-1.67,-1.67,-1.67,-1.6707,-1.7007,-1.7575,-1.7575,-1.7582,-1.7582,-1.7582,-1.7582,-1.7582,-1.7582,-1.7582,-1.7582,-1.7582,-1.7582,-1.7582,-1.7582,-1.7582,-1.7582,-1.7582,-1.7575,-1.7575,-1.7575,-1.7575,-1.7575,-1.7575,-1.7575,-1.7575,-1.7582,-1.7582,-1.7582,-1.7582,-1.7582,-1.7582,-1.7582,-1.7582,-1.7582,-1.7582,-1.7582,-1.7582,-1.7582,-1.7582,-1.7582,-1.7582,-1.7582,-1.7582,-1.7582,-1.7081,-1.6707,-1.67,-1.4991,-1.2909,-1.0293,-0.9998,-0.941,-0.8137,-0.8038,-0.8038,-0.8038,-0.8038,-0.8038,-0.8038,-0.8038,-0.8038,-0.8038,-0.8038,-0.8038,-0.8038,-0.8038,-0.8038,-0.8038,-0.8038,-0.8038,-1.541,-1.6064,0.0,0.0,0.0,0.0,0.0,0.0,0.0,0.0,0.0,0.0,0.0,0.0,0.0,-1.7469,-1.6877,-1.6699,-1.8071,-1.7617,-1.7131,-1.7131,-1.6386,-1.5832,-1.5832,-1.5832,-1.5832,-1.5832,-1.5832,-1.5832,-1.5832,-1.5832,-1.5872,-1.5959,-1.5965,-1.6005,-1.6086,-1.6293,-1.64,-1.64,-1.6607,-1.6794,-1.6974,-1.7181,-1.7281,-1.7288,-1.7495,-1.7582,-1.7582,-1.7582,-1.7582,-1.7582,-1.7582,-1.7582,-1.7582,-1.7582,-1.7455,-1.7281,-1.7281,-1.7141,-1.6967,-1.6967,-1.6967,-1.6967,-1.6967,-1.6967,-1.7007,-1.7221,-1.7281,-1.7281,-1.7281,-1.7428,-1.7582,-1.7582,-1.7582,-1.7582,-1.7582,-1.7582,-1.7582,-1.7582,-1.7582,-1.7582,-1.7582,-1.7582,-1.7582,-1.7582,-1.7081,-1.5844,-1.3565,-1.2807,-1.1458,-0.892,-0.8627,-0.8432,-0.8038,-0.8038,-0.8038,-0.8038,-0.8038,-0.8038,-0.8038,-0.8038,-0.8038,-0.8038,-0.8038,-0.8038,-0.8038,-0.8038,-0.8038,-0.8038,-0.8038,-0.8038,-1.541,0.0,0.0,0.0,0.0,0.0,0.0,0.0,0.0,0.0,0.0,0.0,0.0,0.0,0.0,-1.8718,-1.8148,-1.7962,-1.9298,-1.8864,-1.8234,-1.7777,-1.7037,-1.6386,-1.5825,-1.5832,-1.5832,-1.5832,-1.5832,-1.5832,-1.5832,-1.5832,-1.5832,-1.5832,-1.5832,-1.5832,-1.5832,-1.6005,-1.6092,-1.6099,-1.6273,-1.6359,-1.6373,-1.6787,-1.6974,-1.6981,-1.7161,-1.7235,-1.7235,-1.7235,-1.7235,-1.7235,-1.7235,-1.7235,-1.7235,-1.7235,-1.7121,-1.6974,-1.6974,-1.6854,-1.6707,-1.6707,-1.6707,-1.6707,-1.6707,-1.6707,-1.674,-1.6921,-1.6974,-1.6974,-1.6974,-1.7101,-1.7235,-1.7235,-1.7321,-1.7382,-1.7261,-1.7235,-1.7268,-1.7388,-1.7408,-1.7408,-1.7408,-1.7408,-1.7368,-1.7248,-1.6416,-1.485,-1.2186,-1.1463,-1.0386,-0.8233,-0.8038,-0.8038,-0.8038,-0.8038,-0.8038,-0.8038,-0.8038,-0.8038,-0.8038,-0.8038,-0.8038,-0.8038,-0.8038,-0.8038,-0.8038,-0.8038,-0.8038,-0.8038,-0.8038,-0.8038,0.0,0.0,0.0,0.0,0.0,0.0,0.0,0.0,0.0,0.0,0.0,0.0,0.0,-1.8868,-1.8048,-1.9856,-1.9246,-1.8829,-1.9619,-1.9745,-1.9222,-1.8056,-1.787,-1.7404,-1.6109,-1.6015,-1.6015,-1.6015,-1.5825,-1.5832,-1.5832,-1.5832,-1.5832,-1.5832,-1.5832,-1.5832,-1.5832,-1.5832,-1.5832,-1.5832,-1.5832,-1.5832,-1.5845,-1.6413,-1.668,-1.6707,-1.6707,-1.6707,-1.6707,-1.6707,-1.6707,-1.6707,-1.6707,-1.6707,-1.6707,-1.6707,-1.6687,-1.6667,-1.6667,-1.6647,-1.6627,-1.6627,-1.6627,-1.6627,-1.6627,-1.6627,-1.6633,-1.666,-1.6667,-1.6667,-1.6667,-1.6687,-1.6693,-1.664,-1.6874,-1.7034,-1.6767,-1.6707,-1.6787,-1.7061,-1.7108,-1.7108,-1.7108,-1.7108,-1.7007,-1.6707,-1.532,-1.3768,-1.2073,-1.0779,-0.9509,-0.8137,-0.8038,-0.8038,-0.8038,-0.8038,-0.8038,-0.8038,-0.8038,-0.8038,-0.8038,-0.8038,-0.8038,-0.8038,-0.8038,-0.8038,-0.8038,-0.8038,-0.8038,-0.8038,-0.8038,-0.8038,0.0,0.0,0.0,0.0,0.0,0.0,0.0,0.0,0.0,0.0,0.0,0.0,0.0,-1.952,-1.9119,-2.0695,-2.0273,-2.0292,-2.1682,-2.1289,-2.0486,-1.9222,-1.9131,-1.8588,-1.7404,-1.7318,-1.7318,-1.7318,-1.6386,-1.5832,-1.5832,-1.5832,-1.5832,-1.5832,-1.5832,-1.5832,-1.5832,-1.5832,-1.5832,-1.5832,-1.5832,-1.5832,-1.5838,-1.6199,-1.6486,-1.6707,-1.6707,-1.6707,-1.6707,-1.6707,-1.6707,-1.6707,-1.6707,-1.6707,-1.6707,-1.6707,-1.656,-1.6366,-1.6366,-1.6213,-1.6019,-1.6019,-1.6019,-1.6019,-1.6019,-1.6019,-1.6066,-1.6299,-1.6366,-1.6366,-1.6366,-1.6533,-1.6587,-1.6126,-1.642,-1.678,-1.672,-1.6707,-1.6727,-1.6787,-1.68,-1.68,-1.68,-1.68,-1.67,-1.6413,-1.5201,-1.3768,-1.2073,-1.0779,-0.9509,-0.8137,-0.8038,-0.8038,-0.8038,-0.8038,-0.8038,-0.8038,-0.8038,-0.8038,-0.8038,-0.8038,-0.8038,-0.8038,-0.8038,-0.8038,-0.8038,-0.8038,-0.8038,-0.8038,-0.8038,-0.8038,0.0,0.0,0.0,0.0,0.0,0.0,0.0,0.0,0.0,0.0,0.0,0.0,-2.0566,-2.0157,-2.0065,-2.1072,-2.091,-2.1087,-2.2337,-2.216,-2.1456,-2.0459,-2.0395,-1.9852,-1.868,-1.8596,-1.8596,-1.8596,-1.7948,-1.7296,-1.6756,-1.6669,-1.6386,-1.5825,-1.5832,-1.5832,-1.5832,-1.5832,-1.5832,-1.5832,-1.5832,-1.5832,-1.5832,-1.5985,-1.6139,-1.6286,-1.6286,-1.6286,-1.6286,-1.6286,-1.6286,-1.6286,-1.6286,-1.6286,-1.6286,-1.6286,-1.6192,-1.6059,-1.6059,-1.5959,-1.5832,-1.5832,-1.5832,-1.5832,-1.5832,-1.5832,-1.5865,-1.6019,-1.6059,-1.6059,-1.6059,-1.6172,-1.6206,-1.5899,-1.6172,-1.646,-1.6313,-1.6286,-1.6326,-1.6473,-1.65,-1.65,-1.65,-1.638,-1.6233,-1.6086,-1.4376,-1.2856,-1.196,-1.019,-0.8726,-0.8038,-0.8038,-0.8038,-0.8038,-0.8038,-0.8038,-0.8038,-0.8038,-0.8038,-0.8038,-0.8038,-0.8038,-0.8038,-0.8038,-0.8038,-0.8038,-0.8038,-0.8038,-0.8038,-0.8038,-0.8038,0.0,0.0,0.0,0.0,0.0,0.0,0.0,0.0,0.0,0.0,0.0,0.0,-2.0566,-2.0566,-2.0684,-2.1055,-2.1182,-2.1484,-2.2187,-2.2353,-2.2112,-2.1325,-2.138,-2.1042,-1.9935,-1.9852,-1.9852,-1.9852,-1.9579,-1.9039,-1.8048,-1.7777,-1.7318,-1.6473,-1.6015,-1.5927,-1.6109,-1.592,-1.5832,-1.5832,-1.5832,-1.5832,-1.5832,-1.5832,-1.5832,-1.5832,-1.5832,-1.5832,-1.5832,-1.5832,-1.5832,-1.5832,-1.5832,-1.5832,-1.5832,-1.5832,-1.5832,-1.5832,-1.5832,-1.5832,-1.5832,-1.5832,-1.5832,-1.5832,-1.5832,-1.5832,-1.5832,-1.5832,-1.5832,-1.5832,-1.5832,-1.5832,-1.5832,-1.5832,-1.6019,-1.6126,-1.5879,-1.5832,-1.5905,-1.6146,-1.6192,-1.6192,-1.6192,-1.5992,-1.573,-1.5534,-1.3397,-1.1848,-1.1556,-0.9509,-0.8038,-0.8038,-0.8038,-0.8038,-0.8038,-0.8038,-0.8038,-0.8038,-0.8038,-0.8038,-0.8038,-0.8038,-0.8038,-0.8038,-0.8038,-0.8038,-0.8038,-0.8038,-0.8038,-0.8038,-0.8038,-0.8038,0.0,0.0,0.0,0.0,0.0,0.0,0.0,0.0,0.0,0.0,0.0,-2.0566,-2.0566,-2.0566,-2.0586,-2.0644,-2.0986,-2.1279,-2.1396,-2.1728,-2.1681,-2.0839,-2.1691,-2.2015,-2.1176,-2.1025,-2.1025,-2.1025,-2.0124,-1.9405,-1.9314,-1.8234,-1.8141,-1.8948,-1.6929,-1.6292,-1.7412,-1.6386,-1.5832,-1.5832,-1.5832,-1.5832,-1.5832,-1.5832,-1.5832,-1.5832,-1.5832,-1.5832,-1.5832,-1.5832,-1.5832,-1.5832,-1.5832,-1.5832,-1.5832,-1.5832,-1.5832,-1.5832,-1.5832,-1.5832,-1.5832,-1.5832,-1.5832,-1.5832,-1.5832,-1.5832,-1.5832,-1.5832,-1.5832,-1.5832,-1.5832,-1.5832,-1.5832,-1.5832,-1.5858,-1.5879,-1.5838,-1.5832,-1.5838,-1.5879,-1.5885,-1.5885,-1.5885,-1.5852,-1.5439,-1.4364,-1.2909,-1.1458,-1.0391,-0.892,-0.8038,-0.8038,-0.8038,-0.8038,-0.8038,-0.8038,-0.8038,-0.8038,-0.8038,-0.8038,-0.8038,-0.8038,-0.8038,-0.8038,-0.8038,-0.8038,-0.8038,-0.8038,-0.8038,-0.8038,-0.8038,-0.8038,0.0,0.0,0.0,0.0,0.0,0.0,0.0,0.0,0.0,0.0,0.0,-2.0273,-2.0518,-2.0566,-2.0566,-2.0566,-2.0732,-2.0947,-2.1201,-2.1396,-2.1506,-2.14,-2.1813,-2.2049,-2.1703,-2.1627,-2.1721,-2.1947,-2.1521,-2.0988,-2.0567,-2.0034,-1.967,-1.9497,-1.8395,-1.8126,-1.868,-1.8126,-1.7483,-1.685,-1.685,-1.648,-1.5832,-1.5832,-1.5832,-1.5832,-1.5832,-1.5832,-1.5832,-1.5832,-1.5832,-1.5832,-1.5832,-1.5832,-1.5832,-1.5832,-1.5832,-1.5832,-1.5832,-1.5832,-1.5832,-1.5832,-1.5832,-1.5832,-1.5832,-1.5832,-1.5832,-1.5832,-1.5832,-1.5832,-1.5832,-1.5832,-1.5832,-1.5832,-1.5832,-1.5832,-1.5832,-1.5832,-1.5832,-1.5832,-1.5832,-1.5832,-1.5832,-1.5832,-1.5337,-1.407,-1.2716,-1.1458,-1.0194,-0.8825,-0.8038,-0.8038,-0.8038,-0.8038,-0.8038,-0.8038,-0.8038,-0.8038,-0.8038,-0.8038,-0.8038,-0.8038,-0.8038,-0.8038,-0.8038,-0.8038,-0.8038,-0.8038,-0.8038,-0.8038,-0.8038,-0.8038,0.0,0.0,0.0,0.0,0.0,0.0,0.0,0.0,0.0,0.0,-1.9463,-1.9893,-2.0322,-2.0488,-2.0566,-2.0566,-2.0566,-2.0684,-2.1016,-2.1064,-2.123,-2.167,-2.1719,-2.1768,-2.1875,-2.1885,-2.2012,-2.2324,-2.2353,-2.213,-2.1443,-2.118,-2.0731,-2.0119,-1.9577,-1.9447,-1.9808,-1.9629,-1.9047,-1.8141,-1.8141,-1.7677,-1.6749,-1.6749,-1.6749,-1.6749,-1.6103,-1.5832,-1.5832,-1.5832,-1.5832,-1.5832,-1.5832,-1.5832,-1.5832,-1.5832,-1.5832,-1.5832,-1.5832,-1.5832,-1.5832,-1.5832,-1.5832,-1.5832,-1.5832,-1.5832,-1.5832,-1.5832,-1.5832,-1.5832,-1.5832,-1.5832,-1.5832,-1.5832,-1.5832,-1.5832,-1.5832,-1.5832,-1.5832,-1.5832,-1.5832,-1.5832,-1.5832,-1.5534,-1.4854,-1.359,-1.2231,-1.0974,-0.9702,-0.863,-0.8038,-0.8038,-0.8038,-0.8038,-0.8038,-0.8038,-0.8038,-0.8038,-0.8038,-0.8038,-0.8038,-0.8038,-0.8038,-0.8038,-0.8038,-0.8038,-0.8038,-0.8038,-0.8038,-0.8038,-0.8038,-0.8038,0.0,0.0,0.0,0.0,0.0,0.0,0.0,0.0,0.0,0.0,-1.9014,-1.9453,-1.9873,-2.0283,-2.0566,-2.0566,-2.0566,-2.0576,-2.0596,-2.0596,-2.0762,-2.1211,-2.1269,-2.1426,-2.1846,-2.1885,-2.1894,-2.1914,-2.1924,-2.1924,-2.186,-2.0708,-2.0624,-2.1777,-1.9861,-1.9419,-2.0656,-1.9855,-1.9497,-1.9405,-1.9405,-1.9405,-1.9314,-1.9314,-1.9314,-1.9222,-1.6835,-1.5832,-1.5832,-1.5832,-1.5832,-1.5832,-1.5832,-1.5832,-1.5832,-1.5832,-1.5832,-1.5832,-1.5832,-1.5832,-1.5832,-1.5832,-1.5832,-1.5832,-1.5832,-1.5832,-1.5832,-1.5832,-1.5832,-1.5832,-1.5832,-1.5832,-1.5832,-1.5832,-1.5832,-1.5832,-1.5832,-1.5832,-1.5832,-1.5832,-1.5832,-1.5832,-1.5832,-1.4752,-1.3584,-1.2237,-1.0877,-0.9608,-0.8233,-0.8038,-0.8038,-0.8038,-0.8038,-0.8038,-0.8038,-0.8038,-0.8038,-0.8038,-0.8038,-0.8038,-0.8038,-0.8038,-0.8038,-0.8038,-0.8038,-0.8038,-0.8038,-0.8038,-0.8038,-0.8038,-0.8038,-0.8038,0.0,0.0,0.0,0.0,0.0,0.0,0.0,0.0,0.0,0.0,-1.8574,-1.8916,-1.9062,-1.9668,-2.0244,-2.0518,-2.0566,-2.0566,-2.0566,-2.0566,-2.0625,-2.0791,-2.0801,-2.0869,-2.1025,-2.1035,-2.1162,-2.1445,-2.1465,-2.1592,-2.1865,-2.1441,-2.1441,-2.1885,-2.1156,-2.0968,-2.1493,-2.1202,-2.0648,-1.9844,-1.9844,-1.9408,-1.8635,-1.8953,-1.9052,-1.9077,-1.8485,-1.8211,-1.8118,-1.7311,-1.7037,-1.6943,-1.6109,-1.5832,-1.5832,-1.5832,-1.5832,-1.5832,-1.5832,-1.5832,-1.5832,-1.5832,-1.5832,-1.5832,-1.5832,-1.5832,-1.5832,-1.5832,-1.5832,-1.5832,-1.5832,-1.5832,-1.5832,-1.5832,-1.5832,-1.5832,-1.5832,-1.5832,-1.5832,-1.5832,-1.5832,-1.5832,-1.5832,-1.4752,-1.3392,-1.2139,-1.0779,-0.9509,-0.8137,-0.8038,-0.8038,-0.8038,-0.8038,-0.8038,-0.8038,-0.8038,-0.8038,-0.8038,-0.8038,-0.8038,-0.8038,-0.8038,-0.8038,-0.8038,-0.8038,-0.8038,-0.8038,-0.8038,-0.8038,-0.8038,-0.8038,-0.8038,0.0,0.0,0.0,0.0,0.0,0.0,0.0,0.0,0.0,0.0,-1.8232,-1.8467,-1.8613,-1.9102,-1.9668,-2.0254,-2.0469,-2.0566,-2.0566,-2.0566,-2.0566,-2.0566,-2.0566,-2.0566,-2.0566,-2.0566,-2.0684,-2.0986,-2.1016,0.0,-2.1426,-2.1445,-2.1514,-2.166,-2.167,-2.1738,-2.1885,-2.1885,-2.1441,-2.0643,-2.0643,-2.0223,-1.9469,-1.9713,-1.9835,-1.9939,-2.0193,-1.9992,-1.9405,-1.8234,-1.7692,-1.7591,-1.6292,-1.5832,-1.5832,-1.5832,-1.5832,-1.5832,-1.5832,-1.5832,-1.5832,-1.5832,-1.5832,-1.5832,-1.5832,-1.5832,-1.5832,-1.5832,-1.5832,-1.5832,-1.5832,-1.5832,-1.5832,-1.5832,-1.5832,-1.5832,-1.5832,-1.5832,-1.5832,-1.5832,-1.5832,-1.5635,-1.5242,-1.4076,-1.2813,-1.1458,-1.019,-0.9019,-0.8137,-0.8038,-0.8038,-0.8038,-0.8038,-0.8038,-0.8038,-0.8038,-0.8038,-0.8038,-0.8038,-0.8038,-0.8038,-0.8038,-0.8038,-0.8038,-0.8038,-0.8038,-0.8038,-0.8038,-0.8038,-0.8038,-0.8038,-0.8038,0.0,0.0,0.0,0.0,0.0,0.0,0.0,0.0,0.0,-1.8008,-1.8008,-1.8135,-1.8545,-1.8562,-1.8906,-1.9736,-2.0254,-2.0547,-2.0547,-2.0557,-2.0566,-2.0566,-2.0566,-2.0566,-2.0566,-2.0566,-2.0566,-2.0566,-2.0566,-2.0566,-2.0566,-2.0566,-2.0762,-2.1201,-2.1211,-2.1416,-2.1846,-2.1846,-2.1846,-2.1846,-2.1846,-2.1846,-2.1846,-2.1865,-2.1865,-2.1865,-2.1875,-2.1019,-1.9464,-1.8303,-1.777,-1.7598,-1.6386,-1.5832,-1.5832,-1.5832,-1.5832,-1.5832,-1.5832,-1.5832,-1.5832,-1.5832,-1.5832,-1.5832,-1.5832,-1.5832,-1.5832,-1.5832,-1.5832,-1.5832,-1.5832,-1.5832,-1.5832,-1.5832,-1.5832,-1.5832,-1.5832,-1.5832,-1.5832,-1.5832,-1.5832,-1.5439,-1.4166,-1.2813,-1.1458,-1.0194,-0.8825,-0.8038,-0.8038,-0.8038,-0.8038,-0.8038,-0.8038,-0.8038,-0.8038,-0.8038,-0.8038,-0.8038,-0.8038,-0.8038,-0.8038,-0.8038,-0.8038,-0.8038,-0.8038,-0.8038,-0.8038,-0.8038,-0.8038,-0.8038,-0.8038,-0.8038,-1.8008,0.0,0.0,0.0,0.0,0.0,0.0,0.0,0.0,-1.8008,-1.8008,-1.8047,-1.8164,-1.8428,-1.8711,-1.8945,-1.9609,-2.0088,-2.0088,-2.0361,-2.0566,-2.0566,-2.0566,-2.0566,-2.0566,-2.0566,-2.0566,0.0,-2.0566,-2.0566,-2.0566,-2.0566,-2.0625,-2.0742,-2.0752,-2.081,-2.0928,-2.0928,-2.0928,-2.0928,-2.0928,-2.0928,-2.0947,-2.1269,-2.1416,-2.1426,-2.1748,-2.1669,-2.1202,-2.0237,-1.9527,-1.8864,-1.7677,-1.6574,-1.5832,-1.5832,-1.5832,-1.5832,-1.5832,-1.5832,-1.5832,-1.5832,-1.5832,-1.5832,-1.5832,-1.5832,-1.5832,-1.5832,-1.5832,-1.5832,-1.5832,-1.5832,-1.5832,-1.5832,-1.5832,-1.5832,-1.5832,-1.5832,-1.5832,-1.5832,-1.5832,-1.5439,-1.4166,-1.2813,-1.1458,-1.0194,-0.8825,-0.8038,-0.8038,-0.8038,-0.8038,-0.8038,-0.8038,-0.8038,-0.8038,-0.8038,-0.8038,-0.8038,-0.8038,-0.8038,-0.8038,-0.8038,-0.8038,-0.8038,-0.8038,-0.8038,-0.8038,-0.8038,-0.8038,-0.8038,-0.8038,-0.8038,0.0,0.0,0.0,0.0,0.0,0.0,-1.8008,-1.8008,-1.8008,0.0,-1.8008,-1.8008,-1.8008,-1.8213,-1.8379,-1.8379,-1.8945,-1.9443,-1.9629,-1.9873,-2.0098,-2.0273,-2.0293,-2.0361,-2.0547,-2.0566,-2.0566,-2.0566,-2.0566,-2.0566,-2.0566,-2.0566,-2.0566,-2.0566,-2.0566,-2.0566,-2.0566,-2.0566,-2.0566,-2.0566,-2.0566,-2.0566,-2.0576,-2.084,-2.0957,-2.0967,-2.1221,-2.1435,-2.1549,-2.0652,-1.9861,-1.9093,-1.7383,-1.6369,-1.5832,-1.5832,-1.5832,-1.5832,-1.5832,-1.5832,-1.5832,-1.5832,-1.5832,-1.5832,-1.5832,-1.5832,-1.5832,-1.5832,-1.5832,-1.5832,-1.5832,-1.5832,-1.5832,-1.5832,-1.5832,-1.5832,-1.5832,-1.5832,-1.5832,-1.5832,-1.5337,-1.4561,-1.3301,-1.194,-1.0681,-0.9312,-0.8528,-0.8038,-0.8038,-0.8038,-0.8038,-0.8038,-0.8038,-0.8038,-0.8038,-0.8038,-0.8038,-0.8038,-0.8038,-0.8038,-0.8038,-0.8038,-0.8038,-0.8038,-0.8038,-0.8038,-0.8038,-0.8038,-0.8038,-0.8038,-0.8038,-0.8038,0.0,0.0,0.0,0.0,0.0,0.0,-1.8008,-1.8008,-1.8008,0.0,-1.8008,-1.8008,-1.8008,-1.8008,-1.8008,-1.8008,-1.832,-1.8721,-1.915,-1.9258,-1.9424,-1.9805,-1.9844,-2.0,-2.0391,-2.043,-2.0439,-2.0488,-2.0537,-2.0566,-2.0566,-2.0566,-2.0566,-2.0566,-2.0566,-2.0566,-2.0566,-2.0566,-2.0566,-2.0566,-2.0566,-2.0566,-2.0566,-2.0566,-2.0566,-2.0401,-2.0401,-2.0545,-2.0661,-1.9643,-1.9006,-1.8645,-1.645,-1.5644,-1.5785,-1.5818,-1.5832,-1.5832,-1.5832,-1.5832,-1.5832,-1.5832,-1.5832,-1.5832,-1.5832,-1.5832,-1.5832,-1.5832,-1.5832,-1.5832,-1.5832,-1.5832,-1.5832,-1.5832,-1.5832,-1.5832,-1.5832,-1.5832,-1.573,-1.5635,-1.4657,-1.3488,-1.2139,-1.0877,-0.9509,-0.8237,-0.8038,-0.8038,-0.8038,-0.8038,-0.8038,-0.8038,-0.8038,-0.8038,-0.8038,-0.8038,-0.8038,-0.8038,-0.8038,-0.8038,-0.8038,-0.8038,-0.8038,-0.8038,-0.8038,-0.8038,-0.8038,-0.8038,-0.8038,-0.8038,-0.8038,-0.8038,0.0,0.0,0.0,0.0,0.0,0.0,-1.8008,-1.8008,-1.8008,0.0,-1.8008,-1.8008,-1.8008,-1.8008,-1.8008,-1.8008,-1.8076,-1.8281,-1.8701,-1.9072,-1.9316,-1.9404,-1.9404,-1.9443,-1.9531,-1.9541,-1.9678,-2.0019,-2.0361,-2.0566,-2.0566,-2.0566,-2.0566,-2.0566,-2.0566,-2.0566,-2.0566,-2.0566,-2.0566,-2.0566,-2.0566,-2.0566,-2.0566,-2.0566,-2.0167,-1.9274,-1.9274,-1.8843,-1.8019,-1.686,-1.7275,-1.8382,-1.7236,-1.6317,-1.5504,-1.5745,-1.5832,-1.5832,-1.5832,-1.5832,-1.5832,-1.5832,-1.5832,-1.5832,-1.5832,-1.5832,-1.5832,-1.5832,-1.5832,-1.5832,-1.5832,-1.5832,-1.5832,-1.5832,-1.5832,-1.5832,-1.5832,-1.5832,-1.5534,-1.4459,-1.407,-1.3488,-1.2139,-1.0877,-0.9509,-0.8237,-0.8038,-0.8038,-0.8038,-0.8038,-0.8038,-0.8038,-0.8038,-0.8038,-0.8038,-0.8038,-0.8038,-0.8038,-0.8038,-0.8038,-0.8038,-0.8038,-0.8038,-0.8038,-0.8038,-0.8038,-0.8038,-0.8038,-0.8038,-0.8038,-0.8038,-0.8038,0.0,0.0,0.0,-1.8008,0.0,0.0,0.0,-1.8008,-1.8008,-1.8008,-1.8008,-1.8008,-1.8008,-1.8008,-1.8008,-1.8008,-1.8008,-1.8086,-1.8291,-1.8516,-1.873,-1.8936,-1.8965,-1.9053,-1.9268,-1.9287,-1.9375,-1.959,-1.9805,-1.9782,-1.9437,-1.9928,-2.0101,-1.9835,-2.0323,-2.0566,-2.0566,-2.0079,-2.0079,-2.0566,-2.0079,-2.0079,-2.0566,-2.0079,-1.952,-1.8957,-1.839,-1.7827,-1.7261,-1.6108,-1.6224,-1.6985,-1.6213,-1.5659,-1.5418,-1.5558,-1.5705,-1.5832,-1.5832,-1.5832,-1.5832,-1.5832,-1.5832,-1.5832,-1.5832,-1.5832,-1.5832,-1.5832,-1.5832,-1.5832,-1.5832,-1.5832,-1.5832,-1.5832,-1.5832,-1.5832,-1.5832,-1.5337,-1.4657,-1.3974,-1.2813,-1.1745,-1.1068,-0.9899,-0.8726,-0.8137,-0.8038,-0.8038,-0.8038,-0.8038,-0.8038,-0.8038,-0.8038,-0.8038,-0.8038,-0.8038,-0.8038,-0.8038,-0.8038,-0.8038,-0.8038,-0.8038,-0.8038,-0.8038,-0.8038,-0.8038,-0.8038,-0.8038,-0.8038,-0.8038,-0.8038,-0.8038,0.0,0.0,0.0,0.0,0.0,-1.8008,0.0,0.0,0.0,-1.8008,-1.8008,0.0,0.0,0.0,0.0,0.0,0.0,0.0,0.0,-1.7959,0.0,-1.8477,-1.8446,-1.8652,-1.9004,-1.9111,-1.916,-1.916,-1.9238,-1.9056,-1.854,-1.9402,-1.9602,-1.891,-1.9797,-2.0157,-2.0001,-1.9116,-1.9116,-1.9913,-1.9116,-1.9116,-1.9913,-1.9036,-1.855,-1.8301,-1.7415,-1.6846,-1.6609,-1.5786,-1.5372,-1.5333,-1.474,-1.481,-1.5244,-1.5357,-1.5545,-1.5752,-1.5812,-1.5832,-1.5832,-1.5832,-1.5832,-1.5832,-1.5832,-1.5832,-1.5832,-1.5832,-1.5832,-1.5832,-1.5832,-1.5832,-1.5832,-1.5832,-1.5832,-1.573,-1.5534,-1.4657,-1.3776,-1.3295,-1.1453,-0.9998,-0.9998,-0.8924,-0.8038,-0.8038,-0.8038,-0.8038,-0.8038,-0.8038,-0.8038,-0.8038,-0.8038,-0.8038,-0.8038,-0.8038,-0.8038,-0.8038,-0.8038,-0.8038,-0.8038,-0.8038,-0.8038,-0.8038,-0.8038,-0.8038,-0.8038,-0.8038,-0.8038,-0.8038,-0.8038,-0.8038,0.0,0.0,0.0,0.0,-1.8008,0.0,0.0,0.0,-1.8008,-1.8008,0.0,0.0,0.0,0.0,0.0,0.0,0.0,0.0,-1.751,-1.7773,-1.8027,-1.8076,-1.8076,-1.8105,-1.8144,-1.8496,-1.8711,-1.8711,-1.9072,-1.9307,-1.9209,-1.9632,-1.9468,-1.8425,-1.8934,-1.8718,-1.7658,-1.7577,-1.7577,-1.7658,-1.7577,-1.7585,-1.7658,-1.7577,-1.7009,-1.6108,-1.5944,-1.5296,-1.4412,-1.4334,-1.425,-1.4277,-1.4402,-1.4563,-1.4683,-1.5204,-1.5418,-1.5484,-1.5738,-1.5832,-1.5832,-1.5832,-1.5832,-1.5832,-1.5832,-1.5832,-1.5832,-1.5832,-1.5832,-1.5832,-1.5832,-1.5832,-1.5832,-1.5832,-1.5832,-1.5534,-1.4364,-1.3974,-1.3193,-1.0872,-1.019,-0.9998,-0.9998,-0.8924,-0.8038,-0.8038,-0.8038,-0.8038,-0.8038,-0.8038,-0.8038,-0.8038,-0.8038,-0.8038,-0.8038,-0.8038,-0.8038,-0.8038,-0.8038,-0.8038,-0.8038,-0.8038,-0.8038,-0.8038,-0.8038,-0.8038,-0.8038,-0.8038,-0.8038,-0.8038,-0.8038,-0.8038,0.0,0.0,0.0,0.0,0.0,0.0,-1.8008,0.0,-1.8008,0.0,0.0,0.0,0.0,0.0,0.0,0.0,-1.79,0.0,0.0,0.0,-1.8008,0.0,0.0,0.0,-1.7235,-1.7376,-1.718,-1.6687,-1.7337,-1.753,-1.7178,-1.788,-1.8341,-1.8267,-1.8524,-1.8487,-1.831,-1.7001,-1.6683,-1.7253,-1.6683,-1.6683,-1.7261,-1.6683,-1.6108,-1.5703,-1.5054,-1.4489,-1.4088,-1.4088,-1.4088,-1.4095,-1.4222,-1.4369,-1.4549,-1.4796,-1.4997,-1.519,-1.5478,-1.5578,-1.5605,-1.5772,-1.5832,-1.5832,-1.5832,-1.5832,-1.5832,-1.5832,-1.5832,-1.5832,-1.5832,-1.5832,-1.5832,-1.5832,-1.5832,-1.5439,-1.4166,-1.3295,-1.2231,-1.0386,-0.941,-0.8825,-0.8825,-0.8333,-0.8038,-0.8038,-0.8038,-0.8038,-0.8038,-0.8038,-0.8038,-0.8038,-0.8038,-0.8038,-0.8038,-0.8038,-0.8038,-0.8038,-0.8038,-0.8038,-0.8038,-0.8038,-0.8038,-0.8038,-0.8038,-0.8038,-0.8038,-0.8038,-0.8038,-0.8038,-0.8038,-0.8038,-1.8008,0.0,0.0,0.0,0.0,0.0,0.0,0.0,0.0,0.0,0.0,0.0,0.0,0.0,0.0,0.0,0.0,-1.7969,0.0,-1.7939,0.0,0.0,0.0,0.0,0.0,-1.7001,-1.6567,-1.5649,-1.621,-1.6263,-1.5534,-1.6306,-1.6919,-1.7166,-1.7286,-1.7371,-1.7506,-1.5896,-1.5539,-1.6445,-1.5628,-1.5711,-1.6363,-1.5628,-1.5296,-1.522,-1.4412,-1.4088,-1.4088,-1.4088,-1.4088,-1.4088,-1.4088,-1.4215,-1.4409,-1.4489,-1.4656,-1.4883,-1.5177,-1.5277,-1.5324,-1.5618,-1.5712,-1.5725,-1.5805,-1.5832,-1.5832,-1.5832,-1.5832,-1.5832,-1.5832,-1.5832,-1.5832,-1.5832,-1.5832,-1.5343,-1.3686,-1.2619,-1.1365,-0.9801,-0.8627,-0.8038,-0.8038,-0.8038,-0.8038,-0.8038,-0.8038,-0.8038,-0.8038,-0.8038,-0.8038,-0.8038,-0.8038,-0.8038,-0.8038,-0.8038,-0.8038,-0.8038,-0.8038,-0.8038,-0.8038,-0.8038,-0.8038,-0.8038,-0.8038,-0.8038,-0.8038,-0.8038,-0.8038,-0.8038,-0.8038,-0.8038,0.0,0.0,0.0,-1.8008,0.0,0.0,0.0,0.0,-1.8008,0.0,0.0,0.0,0.0,0.0,0.0,0.0,0.0,0.0,0.0,0.0,0.0,0.0,0.0,0.0,0.0,-1.794,-1.7579,-1.6636,-1.6567,-1.6219,-1.5251,-1.5574,-1.5413,-1.4343,-1.4728,-1.451,-1.3811,-1.3736,-1.3884,-1.4166,-1.4173,-1.4173,-1.4166,-1.4173,-1.4166,-1.4173,-1.4088,-1.4088,-1.4088,-1.4088,-1.4088,-1.4088,-1.4088,-1.4095,-1.4135,-1.4416,-1.4529,-1.4576,-1.4877,-1.4977,-1.5023,-1.5317,-1.5411,-1.5464,-1.5745,-1.5832,-1.5832,-1.5832,-1.5832,-1.5832,-1.5832,-1.5832,-1.5832,-1.5832,-1.5832,-1.5051,-1.2528,-1.1945,-1.117,-0.8528,-0.8038,-0.8038,-0.8038,-0.8038,-0.8038,-0.8038,-0.8038,-0.8038,-0.8038,-0.8038,-0.8038,-0.8038,-0.8038,-0.8038,-0.8038,-0.8038,-0.8038,-0.8038,-0.8038,-0.8038,-0.8038,-0.8038,-0.8038,-0.8038,-0.8038,-0.8038,-0.8038,-0.8038,-0.8038,-0.8038,-0.8038,-0.8038,0.0,0.0,-1.8008,-1.8008,0.0,0.0,0.0,0.0,0.0,0.0,0.0,0.0,0.0,0.0,0.0,0.0,0.0,0.0,0.0,0.0,0.0,0.0,0.0,0.0,0.0,0.0,-1.5517,-1.3867,-1.4299,-1.4522,-1.4235,-1.4351,-1.4652,-1.525,-1.4712,-1.4406,-1.4424,-1.3858,-1.3694,-1.3794,-1.3995,-1.4088,-1.4088,-1.4088,-1.4088,-1.4088,-1.4088,-1.4088,-1.4088,-1.4088,-1.4088,-1.4088,-1.4088,-1.4088,-1.4095,-1.4202,-1.4235,-1.4275,-1.4569,-1.4796,-1.4977,-1.5077,-1.511,-1.5164,-1.5451,-1.5545,-1.5585,-1.5772,-1.5832,-1.5832,-1.5832,-1.5832,-1.5832,-1.5832,-1.5146,-1.4076,-1.2237,-1.1263,-1.0096,-0.8333,-0.8038,-0.8038,-0.8038,-0.8038,-0.8038,-0.8038,-0.8038,-0.8038,-0.8038,-0.8038,-0.8038,-0.8038,-0.8038,-0.8038,-0.8038,-0.8038,-0.8038,-0.8038,-0.8038,-0.8038,-0.8038,-0.8038,-0.8038,-0.8038,-0.8038,-0.8038,-0.8038,-0.8038,-0.8038,-0.8038,-0.8038,-0.8038,-1.8008,-1.8008,0.0,-1.8008,-1.8008,0.0,-1.8008,0.0,-1.8008,0.0,0.0,0.0,0.0,0.0,0.0,0.0,0.0,0.0,0.0,-1.7226,0.0,0.0,0.0,0.0,0.0,-1.572,-1.4871,-1.2952,-1.3382,-1.3528,0.0,-1.3164,-1.3616,-1.4553,-1.3911,-1.3697,-1.4084,-1.3529,-1.338,-1.3494,-1.3788,-1.3928,-1.3935,-1.4041,-1.4088,-1.4088,-1.4088,-1.4088,-1.4088,-1.4088,-1.4088,-1.4088,-1.4088,-1.4088,-1.4088,-1.4088,-1.4088,-1.4115,-1.4302,-1.4489,-1.4669,-1.477,-1.4803,-1.4863,-1.5157,-1.5244,-1.5304,-1.5591,-1.5671,-1.5698,-1.5805,-1.5832,-1.5832,-1.5832,-1.5146,-1.4172,-1.2909,-1.1556,-1.0288,-0.892,-0.8333,-0.8038,-0.8038,-0.8038,-0.8038,-0.8038,-0.8038,-0.8038,-0.8038,-0.8038,-0.8038,-0.8038,-0.8038,-0.8038,-0.8038,-0.8038,-0.8038,-0.8038,-0.8038,-0.8038,-0.8038,-0.8038,-0.8038,-0.8038,-0.8038,-0.8038,-0.8038,-0.8038,-0.8038,-0.8038,-0.8038,-0.8038]},{"header":{"parameterUnit":"m.s-1","parameterCategory":1,"la1":30.6,"la2":29.2853,"lo1":-89.7004,"lo2":-87.6739,"dy":0.0162,"dx":0.0183,"nx":112,"ny":82,"refTime":"2023-06-21T12:00:00:Z","depth":0,"parameterNumber":3,"parameterNumberName":"V-component_of_WINDS"},"data":[0.0,0.0,0.0,0.0,0.0,0.0,0.0,0.0,0.0,0.0,0.0,0.0,0.0,0.0,0.0,0.0,0.0,0.0,0.0,0.0,0.0,0.0,0.0,0.0,0.0,0.0,0.0,0.0,0.0,0.0,0.0,0.0,0.0,0.0,0.0,0.0,0.0,0.0,0.0,0.0,0.0,0.0,0.0,0.0,0.0,0.0,0.0,0.0,0.0,0.0,0.0,0.0,0.0,0.0,0.0,0.0,0.0,0.0,0.0,0.0,0.0,0.0,0.0,0.0,0.0,0.0,0.0,0.0,0.0,0.0,0.0,0.0,0.0,0.0,0.0,0.0,0.0,0.0,0.0,0.0,0.0,0.0,0.0,0.0,0.0,0.0,0.0,0.0,0.0,0.0,-2.5303,-2.5303,-2.5303,-2.5303,-2.5303,-2.5303,-2.5322,-2.539,0.0,0.0,0.0,0.0,0.0,0.0,0.0,0.0,0.0,0.0,0.0,0.0,0.0,0.0,0.0,0.0,0.0,0.0,0.0,0.0,0.0,0.0,0.0,0.0,0.0,0.0,0.0,0.0,0.0,0.0,0.0,0.0,0.0,0.0,0.0,0.0,0.0,0.0,0.0,0.0,0.0,0.0,0.0,0.0,0.0,0.0,0.0,0.0,0.0,0.0,0.0,0.0,0.0,0.0,0.0,0.0,0.0,0.0,0.0,0.0,0.0,0.0,0.0,0.0,0.0,0.0,0.0,0.0,0.0,0.0,0.0,0.0,0.0,0.0,0.0,0.0,0.0,0.0,0.0,0.0,0.0,0.0,0.0,0.0,0.0,0.0,0.0,0.0,0.0,0.0,0.0,0.0,0.0,0.0,0.0,0.0,0.0,0.0,0.0,0.0,0.0,0.0,0.0,0.0,-2.5303,-2.5303,-2.5303,-2.5303,-2.5303,-2.5303,-2.5303,-2.5303,0.0,0.0,0.0,0.0,0.0,0.0,0.0,0.0,0.0,0.0,0.0,0.0,0.0,0.0,0.0,0.0,0.0,0.0,0.0,0.0,0.0,0.0,0.0,0.0,0.0,0.0,0.0,0.0,0.0,0.0,0.0,0.0,0.0,0.0,0.0,0.0,0.0,0.0,0.0,0.0,0.0,0.0,0.0,0.0,0.0,0.0,0.0,0.0,0.0,0.0,0.0,0.0,0.0,0.0,0.0,0.0,0.0,0.0,0.0,0.0,0.0,0.0,0.0,0.0,0.0,0.0,0.0,0.0,0.0,0.0,0.0,0.0,0.0,0.0,0.0,0.0,0.0,0.0,0.0,0.0,0.0,0.0,0.0,0.0,0.0,0.0,0.0,0.0,0.0,0.0,0.0,0.0,0.0,0.0,0.0,0.0,0.0,0.0,0.0,0.0,0.0,0.0,0.0,-2.5303,-2.5303,-2.5303,-2.5303,-2.5303,-2.5303,-2.5303,-2.5322,-2.5409,-2.5082,0.0,0.0,0.0,0.0,0.0,0.0,0.0,0.0,0.0,0.0,0.0,0.0,0.0,0.0,0.0,0.0,0.0,0.0,0.0,0.0,0.0,0.0,0.0,0.0,0.0,0.0,0.0,0.0,0.0,0.0,0.0,0.0,0.0,0.0,0.0,0.0,0.0,0.0,0.0,0.0,0.0,0.0,0.0,0.0,0.0,0.0,0.0,0.0,0.0,0.0,0.0,0.0,0.0,0.0,0.0,0.0,0.0,0.0,0.0,0.0,0.0,0.0,0.0,0.0,0.0,0.0,0.0,0.0,0.0,0.0,0.0,0.0,0.0,0.0,0.0,0.0,0.0,0.0,0.0,0.0,0.0,0.0,0.0,0.0,0.0,0.0,0.0,0.0,0.0,0.0,0.0,0.0,0.0,0.0,0.0,0.0,0.0,0.0,0.0,0.0,0.0,0.0,-2.5303,-2.5303,-2.5303,-2.5303,-2.5303,-2.5303,-2.5303,-2.5341,-2.5466,-2.5484,0.0,0.0,0.0,0.0,0.0,0.0,0.0,0.0,0.0,0.0,0.0,0.0,0.0,0.0,0.0,0.0,0.0,0.0,0.0,0.0,0.0,0.0,0.0,0.0,0.0,0.0,0.0,0.0,0.0,0.0,0.0,0.0,0.0,0.0,0.0,0.0,0.0,0.0,0.0,0.0,0.0,0.0,0.0,0.0,0.0,0.0,0.0,0.0,0.0,0.0,0.0,0.0,0.0,0.0,0.0,0.0,0.0,0.0,0.0,0.0,0.0,0.0,0.0,0.0,0.0,0.0,0.0,0.0,0.0,0.0,0.0,0.0,0.0,0.0,0.0,0.0,0.0,0.0,0.0,0.0,0.0,0.0,0.0,0.0,0.0,0.0,0.0,0.0,0.0,0.0,0.0,0.0,0.0,0.0,0.0,0.0,0.0,0.0,0.0,0.0,0.0,0.0,-2.5303,-2.5303,-2.5303,-2.5303,-2.5303,-2.5303,-2.5303,-2.5322,-2.5409,-2.5473,0.0,0.0,0.0,0.0,0.0,0.0,0.0,0.0,0.0,0.0,0.0,0.0,0.0,0.0,0.0,0.0,0.0,0.0,0.0,0.0,0.0,0.0,0.0,0.0,0.0,0.0,0.0,0.0,0.0,0.0,0.0,0.0,0.0,0.0,0.0,0.0,0.0,0.0,0.0,0.0,0.0,0.0,0.0,0.0,0.0,0.0,0.0,0.0,0.0,0.0,0.0,0.0,0.0,0.0,0.0,0.0,0.0,0.0,0.0,0.0,0.0,0.0,0.0,0.0,0.0,0.0,0.0,0.0,0.0,0.0,0.0,0.0,0.0,0.0,0.0,0.0,0.0,0.0,0.0,0.0,0.0,0.0,0.0,0.0,0.0,0.0,0.0,0.0,0.0,0.0,0.0,0.0,0.0,0.0,0.0,0.0,0.0,0.0,0.0,0.0,0.0,0.0,-2.6928,-2.6928,0.0,-2.6928,-2.6928,-2.6928,-2.6428,-2.6159,-2.6275,0.0,0.0,0.0,0.0,0.0,0.0,0.0,0.0,0.0,0.0,0.0,0.0,0.0,0.0,0.0,0.0,0.0,0.0,0.0,0.0,0.0,0.0,0.0,0.0,0.0,0.0,0.0,0.0,0.0,0.0,0.0,0.0,0.0,0.0,0.0,0.0,0.0,0.0,0.0,0.0,0.0,0.0,0.0,0.0,0.0,0.0,0.0,0.0,0.0,0.0,0.0,0.0,0.0,0.0,0.0,0.0,0.0,0.0,0.0,0.0,0.0,0.0,0.0,0.0,0.0,0.0,0.0,0.0,0.0,0.0,0.0,0.0,0.0,0.0,0.0,0.0,0.0,0.0,0.0,0.0,0.0,0.0,0.0,0.0,0.0,0.0,0.0,0.0,0.0,0.0,0.0,0.0,0.0,0.0,0.0,0.0,0.0,0.0,0.0,0.0,0.0,0.0,-2.7862,-2.792,-2.7909,0.0,-2.7909,-2.789,-2.789,-2.7351,-2.7073,-2.721,0.0,0.0,0.0,0.0,0.0,0.0,0.0,0.0,0.0,0.0,0.0,0.0,0.0,0.0,0.0,0.0,0.0,0.0,0.0,0.0,0.0,0.0,0.0,0.0,0.0,0.0,0.0,0.0,0.0,0.0,0.0,0.0,0.0,0.0,0.0,0.0,0.0,0.0,0.0,0.0,0.0,0.0,0.0,0.0,0.0,0.0,0.0,0.0,0.0,0.0,0.0,0.0,0.0,0.0,0.0,0.0,0.0,0.0,0.0,0.0,0.0,0.0,0.0,0.0,0.0,0.0,0.0,0.0,0.0,0.0,0.0,0.0,0.0,0.0,0.0,0.0,0.0,0.0,0.0,0.0,0.0,0.0,0.0,0.0,0.0,0.0,0.0,0.0,0.0,0.0,0.0,0.0,0.0,0.0,0.0,0.0,0.0,0.0,0.0,0.0,0.0,0.0,-2.8027,-2.7958,-2.7967,-2.8022,-2.7975,-2.7928,-2.7928,-2.7909,-2.7969,0.0,0.0,0.0,0.0,0.0,0.0,0.0,0.0,0.0,0.0,0.0,0.0,0.0,0.0,0.0,0.0,0.0,0.0,0.0,0.0,0.0,0.0,0.0,0.0,0.0,0.0,0.0,0.0,0.0,0.0,0.0,0.0,0.0,0.0,0.0,0.0,0.0,0.0,0.0,0.0,0.0,0.0,0.0,0.0,0.0,0.0,0.0,0.0,0.0,0.0,0.0,0.0,0.0,0.0,0.0,0.0,0.0,0.0,0.0,0.0,0.0,0.0,0.0,0.0,0.0,0.0,0.0,0.0,0.0,0.0,0.0,0.0,0.0,0.0,0.0,0.0,0.0,0.0,0.0,0.0,0.0,0.0,0.0,0.0,0.0,0.0,0.0,0.0,0.0,0.0,0.0,0.0,0.0,0.0,0.0,0.0,0.0,0.0,0.0,0.0,0.0,0.0,0.0,-2.9767,-2.9814,-2.981,-2.9825,-2.9813,-2.9794,-2.9794,-2.9283,-2.8945,-2.8937,0.0,0.0,0.0,0.0,0.0,0.0,0.0,0.0,0.0,0.0,0.0,0.0,0.0,0.0,0.0,0.0,0.0,0.0,0.0,0.0,0.0,0.0,0.0,0.0,0.0,0.0,0.0,0.0,0.0,0.0,0.0,0.0,0.0,0.0,0.0,0.0,0.0,0.0,0.0,0.0,0.0,0.0,0.0,0.0,0.0,0.0,0.0,0.0,0.0,0.0,0.0,0.0,0.0,0.0,0.0,0.0,0.0,0.0,0.0,0.0,0.0,0.0,0.0,0.0,0.0,0.0,0.0,0.0,0.0,0.0,0.0,0.0,0.0,0.0,0.0,0.0,0.0,0.0,0.0,0.0,0.0,0.0,0.0,0.0,0.0,0.0,0.0,0.0,0.0,0.0,0.0,0.0,0.0,0.0,0.0,0.0,0.0,0.0,0.0,0.0,0.0,0.0,-3.0579,-3.0621,-3.0613,-3.0632,-3.0613,-3.0598,-3.0598,-3.0163,-2.9872,-2.986,0.0,0.0,0.0,0.0,0.0,0.0,0.0,0.0,0.0,0.0,0.0,0.0,0.0,0.0,0.0,0.0,0.0,0.0,0.0,0.0,0.0,0.0,0.0,0.0,0.0,0.0,0.0,0.0,0.0,0.0,0.0,0.0,0.0,0.0,0.0,0.0,0.0,0.0,0.0,0.0,0.0,0.0,0.0,0.0,0.0,0.0,0.0,0.0,0.0,0.0,0.0,0.0,0.0,0.0,0.0,0.0,0.0,0.0,0.0,0.0,0.0,0.0,0.0,0.0,0.0,0.0,0.0,0.0,0.0,0.0,0.0,0.0,0.0,0.0,0.0,0.0,0.0,0.0,0.0,0.0,0.0,0.0,0.0,0.0,0.0,0.0,0.0,0.0,0.0,0.0,0.0,0.0,0.0,0.0,0.0,0.0,0.0,0.0,0.0,0.0,0.0,0.0,-3.0714,-3.0661,-3.065,-3.0702,-3.0668,-3.0623,-3.0623,-3.0623,-3.0658,-3.0702,0.0,0.0,0.0,0.0,0.0,0.0,0.0,0.0,0.0,0.0,0.0,0.0,0.0,0.0,0.0,0.0,0.0,0.0,0.0,0.0,0.0,0.0,0.0,0.0,0.0,0.0,0.0,0.0,0.0,0.0,0.0,0.0,0.0,0.0,0.0,0.0,0.0,0.0,0.0,0.0,0.0,0.0,0.0,0.0,0.0,0.0,0.0,0.0,0.0,0.0,0.0,0.0,0.0,0.0,0.0,0.0,0.0,0.0,0.0,0.0,-3.0525,0.0,0.0,0.0,0.0,0.0,0.0,0.0,0.0,0.0,0.0,0.0,0.0,0.0,0.0,0.0,0.0,0.0,0.0,0.0,0.0,0.0,0.0,0.0,0.0,0.0,0.0,0.0,0.0,0.0,0.0,0.0,0.0,0.0,0.0,0.0,0.0,0.0,0.0,0.0,0.0,0.0,-3.086,-3.0849,-3.0837,-3.0859,-3.0838,-3.0834,-3.0834,-3.0834,-3.0792,-3.0701,-3.0604,0.0,0.0,0.0,0.0,0.0,0.0,0.0,0.0,0.0,0.0,0.0,0.0,0.0,0.0,0.0,0.0,0.0,0.0,0.0,0.0,0.0,0.0,0.0,0.0,0.0,0.0,0.0,0.0,0.0,0.0,0.0,0.0,0.0,0.0,0.0,0.0,0.0,0.0,0.0,0.0,0.0,0.0,0.0,0.0,0.0,0.0,0.0,0.0,0.0,0.0,0.0,0.0,0.0,0.0,0.0,0.0,0.0,0.0,0.0,0.0,-3.0626,0.0,0.0,0.0,0.0,0.0,0.0,0.0,0.0,0.0,0.0,0.0,0.0,0.0,0.0,0.0,0.0,0.0,0.0,0.0,0.0,0.0,0.0,0.0,0.0,0.0,0.0,0.0,0.0,0.0,0.0,0.0,0.0,0.0,0.0,0.0,0.0,0.0,0.0,0.0,0.0,-3.0898,-3.0898,-3.0898,-3.0898,-3.0898,-3.0898,-3.0898,-3.0898,-3.0831,-3.07,-3.0751,0.0,0.0,0.0,0.0,0.0,0.0,0.0,0.0,0.0,0.0,0.0,0.0,0.0,0.0,0.0,0.0,0.0,0.0,0.0,0.0,0.0,0.0,0.0,0.0,0.0,0.0,0.0,0.0,0.0,0.0,0.0,0.0,0.0,0.0,0.0,0.0,0.0,0.0,0.0,0.0,0.0,0.0,0.0,0.0,0.0,0.0,0.0,0.0,0.0,0.0,0.0,0.0,0.0,-3.0629,-3.0756,-3.0948,-3.0979,-3.1056,-3.1157,-3.1114,-3.1012,-3.0898,-3.0787,0.0,0.0,0.0,0.0,0.0,0.0,0.0,0.0,0.0,0.0,0.0,0.0,0.0,0.0,0.0,0.0,0.0,0.0,0.0,0.0,0.0,0.0,0.0,0.0,-3.0898,-3.0898,-3.0898,0.0,0.0,0.0,0.0,0.0,0.0,0.0,0.0,0.0,0.0,0.0,-3.0855,-3.0859,-3.0859,-3.0857,-3.0878,-3.0898,-3.0856,-3.087,-3.0808,-3.0683,-3.0621,-3.0563,0.0,0.0,0.0,0.0,0.0,0.0,0.0,0.0,0.0,0.0,0.0,0.0,0.0,0.0,0.0,0.0,0.0,0.0,0.0,0.0,0.0,0.0,0.0,0.0,0.0,0.0,0.0,0.0,0.0,0.0,0.0,0.0,-2.9412,-2.9434,0.0,0.0,0.0,0.0,0.0,0.0,0.0,0.0,0.0,0.0,0.0,0.0,0.0,-3.0398,-3.0398,-3.0398,-3.0794,-3.1525,-3.159,-3.1987,-3.2673,-3.2844,-3.2945,-3.2964,-3.3018,0.0,-3.0898,-3.0874,0.0,0.0,0.0,0.0,0.0,0.0,0.0,0.0,0.0,0.0,0.0,0.0,0.0,0.0,0.0,0.0,0.0,0.0,0.0,0.0,0.0,0.0,-3.0898,-3.0898,-3.0898,-3.0898,0.0,-3.0898,-3.0898,-3.0898,-3.0812,0.0,0.0,0.0,0.0,0.0,0.0,0.0,-3.0656,-3.0687,-3.0697,-3.0648,-3.0806,-3.0834,-3.0643,-3.0687,-3.0684,-3.062,-3.0598,-3.056,-3.0506,-3.0506,0.0,0.0,0.0,0.0,0.0,0.0,0.0,0.0,0.0,0.0,0.0,0.0,0.0,0.0,0.0,0.0,0.0,0.0,0.0,0.0,0.0,0.0,0.0,0.0,0.0,0.0,0.0,0.0,0.0,-2.9799,-2.9965,-2.9965,-3.0128,-3.0222,0.0,0.0,0.0,0.0,0.0,0.0,0.0,0.0,0.0,-3.1121,-3.1141,-3.1352,-3.1795,-3.1814,-3.2006,-3.2372,-3.291,-3.334,-3.3743,-3.4327,-3.4612,-3.4652,-3.4757,-3.4381,-3.3633,-3.2695,-3.2305,-3.2305,0.0,0.0,0.0,0.0,-3.2305,-3.2305,-3.2305,-3.2305,-3.2226,-3.1777,0.0,0.0,0.0,0.0,0.0,0.0,0.0,-3.1621,0.0,0.0,-3.2305,-3.2305,-3.2305,-3.2305,-3.2305,-3.1893,-3.1378,0.0,-3.0733,-3.073,-3.078,0.0,0.0,0.0,0.0,-3.0629,-3.0598,-3.0634,-3.0639,-3.06,-3.0685,-3.0698,-3.06,-3.0627,-3.0621,-3.054,-3.0535,-3.0506,-3.0448,-3.0487,-3.0487,0.0,0.0,0.0,0.0,0.0,0.0,0.0,0.0,0.0,0.0,0.0,0.0,0.0,0.0,0.0,0.0,0.0,0.0,0.0,0.0,0.0,0.0,0.0,0.0,0.0,0.0,0.0,0.0,-3.0095,-3.0228,-3.0299,-3.0355,-3.0398,0.0,0.0,0.0,0.0,0.0,0.0,-3.1044,-3.1044,-3.1352,-3.1987,-3.2218,-3.2622,-3.3237,-3.3449,-3.368,-3.3872,-3.4526,-3.4974,-3.5268,-3.5935,-3.6279,-3.6328,-3.6454,-3.6511,-3.6376,-3.4491,-3.373,-3.3711,-3.3496,-3.3398,-3.3398,-3.3398,-3.3398,-3.3398,-3.3398,-3.3398,-3.3301,-3.2695,-3.2519,-3.2383,-3.1738,0.0,0.0,0.0,0.0,-3.2519,-3.2519,-3.2949,-3.3398,-3.3398,-3.3389,-3.3379,-3.3379,-3.2803,-3.2044,0.0,-3.0814,-3.0641,-3.066,0.0,0.0,0.0,0.0,-3.0564,-3.0544,-3.0564,-3.0565,-3.0556,-3.0578,-3.0595,-3.0545,-3.0549,-3.0544,-3.0487,-3.0467,-3.0448,-3.0398,-3.0448,-3.0467,-3.0417,0.0,0.0,0.0,0.0,0.0,0.0,0.0,0.0,0.0,0.0,0.0,0.0,0.0,0.0,0.0,0.0,0.0,0.0,0.0,0.0,0.0,0.0,0.0,0.0,0.0,0.0,0.0,0.0,0.0,-2.9999,-3.0254,0.0,0.0,0.0,0.0,-3.1564,-3.1641,-3.1968,-3.2737,-3.2776,-3.2795,-3.2833,-3.3641,-3.4083,-3.4122,-3.4968,-3.5757,-3.6507,-3.6546,-3.7007,-3.7815,-3.7916,-3.7988,-3.8003,-3.8123,-3.8187,-3.8006,-3.5613,-3.4629,-3.4551,-3.3711,-3.3398,-3.3398,-3.3398,-3.3398,-3.3398,-3.3398,-3.3398,-3.3398,-3.3359,-3.334,-3.332,-3.3281,-3.3262,0.0,0.0,-3.3301,-3.334,-3.334,-3.3379,-3.3398,-3.3398,-3.3355,-3.332,-3.332,-3.3229,-3.2901,0.0,-3.1153,-3.0525,-3.0583,0.0,-3.0507,-3.051,-3.0506,-3.0487,-3.0417,-3.0467,-3.0487,-3.0421,-3.0518,-3.0544,-3.0421,-3.0467,-3.0487,-3.0398,-3.0398,-3.0398,-3.0398,-3.0398,-3.0417,-3.0487,-3.0506,0.0,0.0,0.0,0.0,0.0,0.0,0.0,0.0,0.0,0.0,0.0,0.0,0.0,0.0,0.0,0.0,0.0,0.0,0.0,0.0,0.0,0.0,0.0,0.0,0.0,0.0,0.0,0.0,-3.0241,-3.0835,0.0,-3.1237,-3.1698,-3.2141,-3.2449,-3.2987,-3.343,-3.3718,-3.4276,-3.4814,-3.5334,-3.5661,-3.6084,-3.6642,-3.6949,-3.7257,-3.7546,-3.8104,-3.8546,-3.8854,-3.9392,-3.9642,-3.9642,-3.9781,-3.9837,-3.9741,-3.8401,-3.7553,-3.7051,-3.6738,-3.668,-3.6758,-3.6758,-3.6758,-3.6758,-3.6758,-3.6758,-3.6641,-3.6094,-3.5527,-3.5078,-3.5078,-3.5078,-3.5078,-3.5078,-3.5488,-3.5918,-3.5918,-3.6255,-3.661,-3.661,-3.6571,-3.6355,-3.5797,-3.5181,-3.4477,-3.3641,-3.2737,-3.2128,-3.2134,-3.2085,-3.2058,-3.209,-3.2071,-3.2045,-3.2006,-3.1583,-3.1256,-3.1237,-3.0775,-3.0448,-3.0398,-3.0417,-3.0417,-3.0398,-3.0398,-3.0398,-3.0398,-3.0398,-3.0398,-3.0448,-3.0448,-3.0448,0.0,0.0,0.0,0.0,0.0,0.0,0.0,0.0,0.0,0.0,0.0,0.0,0.0,0.0,0.0,0.0,0.0,0.0,0.0,0.0,0.0,0.0,0.0,0.0,0.0,0.0,-3.0543,-3.0809,-3.1602,-3.2218,-3.2506,-3.3026,-3.3564,-3.4141,-3.4718,-3.5161,-3.5468,-3.6026,-3.6719,-3.7546,-3.7834,-3.8392,-3.9277,-3.9565,-3.9719,-3.9738,-4.0315,-4.0585,-4.0604,-4.1123,-4.1373,-4.1373,-4.147,-4.1524,-4.147,-4.0989,-4.0479,-3.9906,-3.8798,-3.8419,-3.8498,-3.8498,-3.8498,-3.8498,-3.8498,-3.8498,-3.84,-3.7831,-3.726,-3.6816,-3.6784,-3.6793,-3.6806,-3.6788,-3.7187,-3.7636,-3.7636,-3.7996,-3.8369,-3.8362,-3.8299,-3.807,-3.75,-3.6867,-3.6238,-3.5661,-3.4147,-3.2974,-3.2981,-3.2929,-3.2929,-3.2974,-3.2917,-3.2891,-3.2891,-3.2429,-3.2102,-3.2102,-3.1352,-3.0852,-3.0852,-3.0571,-3.0398,-3.0398,-3.0398,-3.0398,-3.0398,-3.0398,-3.0398,-3.0398,-3.0398,-3.0398,-3.0398,0.0,0.0,0.0,0.0,0.0,0.0,0.0,0.0,0.0,0.0,0.0,0.0,0.0,0.0,0.0,0.0,0.0,0.0,0.0,0.0,0.0,0.0,0.0,-3.0106,-3.0814,-3.1479,-3.1751,-3.2506,-3.3353,-3.4199,-3.4295,-3.5007,-3.6661,-3.6796,-3.7199,-3.8065,-3.8142,-3.8546,-3.9392,-4.0162,-4.0989,-4.1835,-4.2681,-4.3104,-4.3104,-4.3104,-4.3104,-4.3104,-4.3104,-4.3104,-4.3104,-4.3104,-4.3104,-4.3104,-4.3104,-4.314,-4.288,-3.9703,-3.8455,-3.8455,-3.8455,-3.8435,-3.8416,-3.8416,-3.8397,-3.8377,-3.8377,-3.8419,-3.8451,-3.8403,-3.8415,-3.846,-3.8404,-3.8377,-3.8377,-3.8377,-3.8377,-3.8374,-3.8363,-3.8266,-3.8166,-3.8146,-3.8104,-3.8027,-3.8007,-3.5334,-3.3045,-3.3026,-3.3026,-3.3006,-3.2987,-3.2987,0.0,-3.2987,-3.2968,-3.2949,-3.2949,-3.2218,-3.1737,-3.1737,-3.0968,-3.0475,-3.0475,-3.0475,-3.0456,-3.0436,-3.0436,-3.0417,-3.0398,-3.0398,-3.0398,-3.0398,0.0,0.0,0.0,0.0,0.0,0.0,0.0,0.0,0.0,0.0,0.0,0.0,0.0,0.0,0.0,0.0,0.0,0.0,0.0,0.0,0.0,0.0,-3.0972,-3.1199,-3.2312,-3.3211,-3.3474,-3.4776,-3.5757,-3.5988,-3.6584,-3.7411,-3.8488,-3.9123,-3.9835,-4.0719,-4.1354,-4.1816,-4.2047,-4.2277,-4.2508,-4.2739,-4.2989,-4.3104,-4.3104,-4.3104,-4.3104,-4.3104,-4.3104,-4.3104,-4.3104,-4.3104,-4.3104,-4.3104,-4.3104,-4.3104,-4.3044,-4.2189,-4.1909,-4.2005,-4.2005,-4.1614,-4.1067,-4.1067,-4.0629,-4.0113,-4.0113,-4.012,-4.0148,-4.0118,-4.0122,-4.0138,-4.0105,-4.0113,-4.0113,-4.0113,-4.0075,-4.0028,-4.0042,-3.995,-3.9681,-3.9104,-3.895,-3.8757,-3.8123,-3.7238,-3.6392,-3.5757,-3.5661,-3.5468,-3.4872,-3.4795,0.0,-3.4795,-3.4237,-3.3833,-3.3833,-3.3083,-3.2564,-3.2564,-3.2352,-3.2218,-3.2218,-3.2218,-3.1948,-3.1371,-3.1352,-3.1044,-3.0398,-3.0398,-3.0398,0.0,0.0,0.0,0.0,0.0,0.0,0.0,0.0,0.0,0.0,0.0,0.0,0.0,0.0,0.0,0.0,0.0,0.0,0.0,0.0,0.0,0.0,-3.2202,-3.2838,-3.3684,-3.4213,-3.4702,-3.5185,-3.6757,-3.7911,-3.8257,-3.9084,-3.995,-4.0835,-4.1316,-4.1816,-4.2316,-4.2816,-4.3258,-4.3585,-4.3605,-4.3778,-4.4143,-4.4143,-4.4143,-4.4143,-4.4143,-4.4143,-4.4143,-4.4143,-4.4143,-4.4143,-4.4143,-4.4143,-4.4143,-4.4143,-4.4143,0.0,0.0,0.0,0.0,0.0,-4.2948,-4.2521,-4.2521,-4.2178,-4.1774,-4.1774,-4.1774,-4.1724,-4.1338,-4.126,-4.1216,-4.0793,-4.0677,-4.0677,-4.0677,-4.0658,-4.062,-4.062,-4.0562,-4.0354,-3.9892,-3.9796,-3.9642,-3.9142,-3.9046,0.0,-3.793,-3.7488,-3.7084,-3.6622,-3.6238,-3.6007,-3.6007,-3.5276,-3.4737,-3.4737,-3.3968,-3.343,-3.343,-3.3103,0.0,0.0,0.0,-3.2699,-3.2218,-3.2199,0.0,0.0,0.0,-3.1275,-3.0948,-3.0948,0.0,0.0,-3.0398,-3.0398,0.0,0.0,0.0,0.0,0.0,0.0,0.0,0.0,0.0,0.0,0.0,0.0,0.0,0.0,0.0,0.0,-3.4202,-3.5306,-3.6744,-3.6415,-3.6286,-3.7046,-3.8661,-4.0008,-4.0719,-4.1489,-4.2297,-4.3162,-4.3239,-4.3278,-4.3374,0.0,0.0,0.0,0.0,-4.4816,-4.5586,-4.5586,-4.5586,-4.5586,-4.5586,-4.5586,-4.5586,-4.5586,-4.5586,-4.5586,-4.5586,-4.5586,-4.5586,-4.5586,-4.5586,-4.5451,-4.3951,-4.3374,-4.3374,-4.3374,-4.3316,-4.3239,-4.3239,0.0,0.0,-4.3104,-4.314,-4.3041,-4.22,-4.2027,-4.1931,-4.1027,-4.0777,-4.0758,-4.0662,-4.0642,-4.0623,-4.0508,-4.0489,-4.0489,-4.0489,-4.0489,-4.0489,-4.0489,-4.0489,-4.0258,-3.9546,-3.8719,-3.8104,-3.8007,-3.7334,-3.6853,-3.6853,-3.6142,-3.5641,-3.5641,0.0,0.0,-3.4353,-3.3641,-3.3199,-3.3199,-3.3103,-3.3045,-3.3045,-3.2949,-3.2891,-3.2891,-3.2891,-3.2545,-3.1833,-3.1833,-3.1448,-3.0679,-3.0494,-3.0398,0.0,0.0,0.0,0.0,0.0,0.0,0.0,0.0,0.0,0.0,0.0,0.0,0.0,0.0,0.0,-3.3548,-3.463,-3.6115,-3.8327,-3.8986,-3.935,-3.9723,-4.1296,-4.2431,-4.2585,-4.2758,-4.3181,-4.4008,-4.4066,-4.4374,-4.5066,-4.5105,-4.5182,-4.5336,-4.5336,-4.5432,-4.5586,-4.5586,-4.5586,-4.5586,0.0,0.0,-4.5586,-4.5586,-4.5586,-4.5586,-4.5586,-4.5586,-4.5586,-4.5586,-4.5586,-4.5566,-4.524,-4.5105,-4.5105,-4.5105,-4.4662,-4.4066,-4.4066,-4.3643,-4.3104,-4.3104,-4.3104,-4.3085,-4.2893,-4.2874,0.0,-4.2643,-4.2604,-4.2431,-4.1739,-4.1546,-4.1373,-4.0662,-4.0489,-4.0489,-4.0489,-4.0489,-4.0489,-4.0489,-4.0489,-4.045,-4.0277,-3.9585,-3.8815,-3.8104,-3.7853,-3.7757,-3.7757,-3.7007,-3.6469,-3.6469,-3.5738,-3.5257,-3.5257,-3.5103,-3.5007,-3.5007,-3.4334,-3.3949,-3.3949,-3.3276,-3.2891,-3.2891,-3.2891,-3.2814,-3.2679,-3.2679,-3.2583,-3.2372,-3.1044,-3.0398,0.0,0.0,0.0,0.0,0.0,0.0,0.0,0.0,0.0,0.0,0.0,-3.1659,0.0,0.0,-3.4246,-3.5639,-3.6845,-3.8216,-3.9958,-4.1357,-4.2028,-4.1568,-4.2806,-4.3701,-4.3701,-4.4105,-4.4509,-4.4913,-4.4951,-4.5143,-4.5566,-4.5586,-4.5586,-4.5586,-4.5586,-4.5586,-4.5586,-4.5586,-4.5586,-4.5586,-4.5586,-4.5586,-4.5586,-4.5586,-4.5586,-4.5586,-4.5586,-4.5586,-4.5586,-4.5586,-4.5586,-4.5586,-4.5586,-4.5586,-4.5586,-4.5586,-4.5316,-4.4951,-4.4951,-4.4682,-4.4355,-4.4355,-4.4355,-4.4259,-4.3835,-4.3701,-4.3624,-4.3201,-4.3104,-4.3008,-4.2566,-4.245,-4.2335,-4.1893,-4.1797,-4.1681,-4.1239,-4.1143,-4.1027,-4.0566,-4.0489,-4.0489,-4.0489,-4.0162,-3.9738,-3.9315,-3.8911,-3.8642,-3.8642,-3.7892,-3.7353,-3.7353,-3.6603,-3.6103,-3.6103,-3.5738,-3.5493,-3.5493,-3.5084,-3.4853,-3.4853,-3.443,-3.4199,-3.4199,-3.4199,-3.3987,-3.3545,-3.3545,-3.3333,-3.2872,-3.2045,-3.166,0.0,0.0,0.0,0.0,0.0,0.0,0.0,0.0,-3.1715,-3.2027,-3.2632,-3.333,-3.4137,-3.5073,-3.6223,-3.7811,-3.9126,-4.0344,-4.1437,-4.2983,-4.3751,-4.3094,-4.3924,-4.4547,-4.4547,-4.5182,-4.5586,-4.5586,-4.5586,-4.5663,-4.5836,-4.5836,-4.5913,-4.6067,-4.6086,-4.6086,-4.6086,-4.6086,-4.6086,-4.6067,-4.5932,-4.5836,-4.5836,-4.5682,-4.5586,-4.5586,-4.5586,-4.5586,-4.5586,-4.5586,-4.5586,-4.5586,-4.5586,-4.5586,-4.5586,-4.5586,-4.5586,-4.5586,-4.5586,-4.5586,-4.5586,-4.5586,-4.5586,-4.547,-4.4759,-4.4547,-4.4412,-4.3778,-4.3585,-4.3547,-4.3374,-4.3335,-4.3297,-4.3143,-4.3104,-4.2912,-4.22,-4.2047,-4.1835,-4.1143,-4.1008,-4.095,-4.0777,-4.0739,-4.07,-4.0527,-3.995,-3.9527,-3.9527,-3.8777,-3.8257,-3.8257,-3.7469,-3.6892,-3.6719,-3.5968,-3.5493,-3.5493,-3.5493,-3.5493,-3.5493,-3.5493,-3.5493,-3.5493,-3.5493,-3.5161,-3.4449,-3.4449,-3.4083,-3.341,-3.341,-3.3218,-2.7851,-2.8987,-3.0081,-3.0081,-3.0668,-3.1439,0.0,0.0,-3.2889,-3.4293,-3.466,-3.5018,-3.5862,-3.7257,-3.8358,-3.8584,-3.9921,-4.1342,-4.2464,-4.281,-4.3439,-4.4649,-4.5189,-4.5451,-4.5451,-4.5528,-4.5586,-4.5586,-4.5586,-4.5932,-4.6721,-4.6759,-4.7086,-4.7798,-4.7817,-4.7817,-4.7817,-4.7817,-4.7817,-4.7817,-4.7105,-4.6759,-4.674,-4.5951,-4.5586,-4.5586,-4.5586,-4.5586,-4.5586,-4.5586,-4.5586,-4.5586,-4.5586,-4.5586,-4.5586,-4.5586,-4.5586,-4.5586,-4.5586,-4.5586,-4.5586,-4.5586,-4.5586,-4.5566,-4.547,-4.5451,-4.5432,-4.5336,-4.5316,-4.5143,-4.4374,-4.4162,-4.3989,-4.3278,-4.3104,-4.3066,-4.2989,-4.2951,-4.2931,-4.2835,-4.2816,-4.2566,-4.1797,-4.1662,-4.1393,-4.0623,-4.0412,-4.0354,-4.0354,-3.9662,-3.9142,-3.9142,-3.8373,-3.7546,-3.6776,-3.5968,-3.5493,-3.5493,-3.5493,-3.5493,-3.5493,-3.5493,-3.5493,-3.5493,-3.5493,-3.5449,-3.5353,-3.5353,-3.5315,-3.5218,-3.5218,-3.4391,-2.861,-2.986,0.0,0.0,-3.221,-3.2999,-3.3798,-3.4394,-3.4945,-3.5624,-3.6138,-3.6707,-3.7551,-3.8634,-3.9551,0.0,-4.1224,-4.2254,-4.2731,-4.3409,-4.4105,-4.4719,-4.5096,-4.54,-4.5586,-4.5419,-4.54,-4.5586,-4.6067,-4.6528,-4.6894,-4.7336,-4.7759,-4.8086,-4.8105,-4.8105,-4.8105,-4.8105,-4.8105,-4.8105,-4.7759,-4.7605,-4.7586,-4.7221,-4.7048,-4.7028,-4.6567,-4.6355,-4.6317,-4.5797,-4.5586,-4.5586,-4.5586,-4.5586,-4.5586,-4.5586,-4.5586,-4.5586,-4.5586,-4.5586,-4.5586,-4.5586,-4.5586,-4.5586,-4.5586,-4.5586,-4.5586,-4.5586,-4.5586,-4.5509,-4.5143,-4.5047,-4.497,-4.4624,-4.4547,-4.4412,-4.3912,-4.3797,-4.3662,-4.3181,-4.3104,-4.2989,-4.2624,-4.2566,-4.2258,-4.1393,-4.0816,-4.0489,-4.0489,-4.02,-3.9815,-3.9354,-3.8969,-3.8392,-3.7526,-3.7161,-3.6738,-3.6238,-3.6199,-3.5988,-3.5526,-3.5493,-3.5493,-3.5493,-3.5493,-3.5493,-3.5493,-3.5493,-3.5493,-3.5493,-3.5493,-3.5122,-2.9408,0.0,0.0,-3.2797,-3.3715,-3.4706,-3.5514,-3.6174,-3.6688,-3.6909,-3.7422,-3.801,-3.8597,-3.9533,-4.0414,-4.102,-4.2142,-4.302,-4.3122,-4.3801,-4.4364,-4.4599,-4.4631,-4.4877,-4.5419,-4.5322,-4.5342,-4.5586,-4.6413,-4.7009,-4.7221,-4.8009,-4.8567,-4.8817,-4.8817,-4.8817,-4.8817,-4.8817,-4.8817,-4.8817,-4.8567,-4.8471,-4.8452,-4.8221,-4.8105,-4.8067,-4.749,-4.724,-4.7182,-4.6547,-4.6278,-4.6278,-4.6278,-4.6278,-4.6259,-4.6028,-4.5797,-4.5586,-4.5586,-4.5586,-4.5586,-4.5586,-4.5586,-4.5586,-4.5586,-4.5586,-4.5586,-4.5586,-4.5586,-4.5586,-4.5586,-4.5586,-4.5586,-4.5586,-4.5586,-4.5432,-4.4778,-4.4662,-4.4489,-4.3893,-4.3797,-4.3701,-4.347,-4.3431,-4.3143,-4.2297,-4.1623,-4.1027,-4.0546,-4.0489,-4.0277,-3.9681,-3.9431,-3.9027,-3.8411,-3.8142,-3.7738,-3.7103,-3.7065,-3.6796,-3.6219,-3.5968,-3.5834,-3.5834,-3.5622,-3.5493,-3.5493,-3.5493,-3.5493,-3.5493,-3.5493,-3.5493,0.0,0.0,-3.3733,-3.3752,-3.5,-3.6431,-3.7221,-3.7452,-3.7661,-3.8469,-3.8652,-3.867,-3.8707,-4.001,-4.1075,-4.1111,-4.2433,-4.3575,-4.3918,-4.3707,-4.3791,-4.4501,-4.3992,-4.3943,0.0,-4.54,-4.5586,-4.5586,-4.6413,-4.724,-4.8029,-4.8894,-4.974,-5.0587,-5.0606,-5.0606,-5.0606,-5.0606,-5.0606,-5.0606,-4.976,-4.9356,-4.9336,-4.849,-4.8105,-4.8105,-4.8067,-4.8067,-4.8067,-4.8048,-4.8029,-4.8029,-4.8029,-4.8029,-4.7932,-4.7163,-4.6336,-4.5586,-4.5586,-4.5586,-4.5586,-4.5586,-4.5586,-4.5586,-4.5586,-4.5586,-4.5586,-4.5586,-4.5586,-4.5586,-4.5586,-4.5586,-4.5586,-4.5586,-4.5586,-4.5586,-4.5566,-4.5547,-4.5547,-4.5528,-4.5509,-4.5259,-4.4412,-4.4259,-4.3989,-4.3181,-4.3047,-4.2412,-4.0719,-4.0489,-4.0489,-4.0469,-3.9758,-3.9277,-3.9258,-3.8488,-3.7988,-3.7969,-3.7969,-3.795,-3.793,-3.7123,-3.6661,-3.6661,-3.5911,-3.5493,-3.5493,-3.5493,-3.5493,-3.5493,-3.5493,-3.5493,-3.1732,0.0,-3.5587,-3.6119,-3.667,-3.7294,-3.8102,-3.8303,-3.8377,-3.8652,-3.8707,-3.8854,-3.9405,-3.9937,-4.0653,-4.1717,-4.2359,-4.2941,-4.3572,-4.3563,-4.3597,-4.3855,-4.4095,0.0,0.0,0.0,0.0,-4.6395,-4.724,-4.8067,-4.8913,-4.9779,-5.0394,-5.0683,-5.0702,-5.0702,-5.0702,-5.0702,-5.0702,-5.0702,-5.0394,-5.026,-5.024,-4.9952,-4.9817,-4.9779,-4.9202,-4.8952,-4.8913,-4.8336,-4.8105,-4.8105,-4.8105,-4.8105,-4.8067,-4.7798,-4.7509,-4.7182,-4.6644,-4.6471,-4.6547,-4.7086,-4.7259,-4.7163,-4.6624,-4.6471,-4.6336,-4.5759,-4.5586,-4.5586,-4.5586,-4.5586,-4.5586,-4.5586,-4.5586,-4.5586,-4.5586,-4.5586,-4.5586,-4.5586,-4.5586,-4.5509,-4.5201,-4.5163,-4.4874,-4.4028,-4.2951,-4.2027,-4.145,-4.0854,-4.0489,-4.0489,-4.0258,-4.0085,-4.0085,-3.9815,-3.9431,-3.8892,-3.8854,-3.8604,-3.8027,-3.7719,-3.7565,-3.7565,-3.7296,-3.7161,-3.7161,-3.7161,-3.7161,-3.7161,-3.7161,-3.6853,-3.3134,-3.4945,-3.6835,-3.7349,-3.7716,-3.8065,-3.8579,-3.8707,-3.8707,-3.8707,-3.8707,-3.8854,-3.9386,-3.9698,-4.023,-4.1277,-4.1919,-4.2488,-4.3002,-4.3314,-4.3497,-4.3497,-4.4035,-4.4447,0.0,0.0,0.0,-4.6799,-4.7932,-4.8817,-4.9375,-5.0221,-5.0702,-5.0702,-5.0702,-5.0702,-5.0702,-5.0702,-5.0702,-5.0702,-5.0702,-5.0702,-5.0702,-5.0702,-5.0702,-5.0664,-5.0106,-4.9856,-4.9817,-4.926,-4.9029,-4.9029,-4.9029,-4.9029,-4.899,-4.8682,-4.8567,-4.8452,-4.7625,-4.7336,-4.7413,-4.7932,-4.8105,-4.8009,-4.749,-4.7336,-4.7221,-4.6644,-4.6278,-4.6067,-4.6067,-4.5817,-4.5586,-4.5586,-4.5586,-4.5586,-4.5586,-4.5586,-4.5586,-4.5586,-4.5586,-4.5586,-4.5586,-4.5586,-4.5413,-4.4855,-4.3585,-4.2585,-4.2297,-4.1508,-4.095,-4.095,-4.0681,-4.0489,-4.0489,-4.0489,-4.0277,-3.9758,-3.9719,-3.9469,-3.8911,-3.8623,-3.845,-3.845,-3.8161,-3.8007,-3.8007,-3.8007,-3.8007,-3.8007,-3.8007,-3.77,-3.4141,-3.5988,-3.7551,-3.7551,-3.8138,-3.8707,-3.8707,-3.8707,-3.8689,-3.8652,-3.8634,-3.8634,0.0,0.0,-3.979,-3.9882,-4.1185,-4.2213,-4.2286,-4.2947,-4.3442,0.0,0.0,0.0,0.0,0.0,0.0,-4.6935,0.0,-4.9394,-4.9452,-5.024,-5.0683,-5.0702,-5.0702,-5.0702,-5.0702,-5.0702,-5.0702,-5.0702,-5.0702,-5.0702,-5.0702,-5.0702,-5.0702,-5.0702,-5.0702,-5.0702,-5.0702,-5.0702,-5.0702,-5.0702,-5.0702,-5.0702,-5.0587,-4.976,-4.9471,-4.9356,-4.8529,-4.8202,-4.8182,-4.8221,-4.824,-4.8221,-4.8182,-4.8163,-4.8163,-4.8105,-4.7548,-4.6971,-4.6971,-4.6317,-4.5663,-4.5663,-4.5624,-4.5586,-4.5586,-4.5586,-4.5586,-4.5586,-4.5586,-4.5586,-4.5586,-4.5586,-4.5586,-4.5586,-4.4893,-4.4066,-4.3278,-4.2412,-4.1873,-4.1873,-4.1085,-4.0566,-4.0566,-4.0527,-4.0489,-4.0489,-4.0489,-4.0489,-4.0489,-3.9758,-3.9354,-3.9354,-3.8546,-3.8123,-3.8123,-3.8123,-3.8123,-3.8123,-3.8123,-3.8104,-3.5349,-3.6964,-3.8395,-3.8395,-3.856,-3.8707,-3.8707,-3.8707,-3.8524,-3.7918,-3.7808,-3.7808,0.0,0.0,0.0,-3.9698,-4.023,0.0,-4.2139,-4.2488,0.0,-4.3424,0.0,-4.427,-4.4957,-4.612,0.0,0.0,-4.8543,-4.9362,-5.0317,-5.0306,-5.0399,-5.0683,-5.0702,-5.0702,-5.0702,-5.0702,-5.0702,-5.0702,-5.0702,-5.0702,-5.0702,-5.0702,-5.0702,-5.0702,-5.0702,-5.0702,-5.0702,-5.0702,-5.0702,-5.0702,-5.0702,-5.0702,-5.0664,-5.0452,-5.0356,-5.0337,-5.0106,-4.9606,-4.9183,-4.9817,-5.0029,-4.9913,-4.926,-4.9067,-4.8933,-4.8279,-4.7952,-4.7798,-4.7798,-4.7182,-4.6567,-4.6567,-4.6067,-4.5586,-4.5586,-4.5586,-4.5586,-4.5586,-4.5586,-4.5586,-4.5586,-4.5586,-4.5586,-4.5586,-4.5413,-4.4951,-4.4105,-4.3278,-4.2777,-4.2777,-4.1989,-4.147,-4.147,-4.0873,-4.0489,-4.0489,-4.0489,-4.0489,-4.0489,-4.0296,-4.0181,-4.0181,-3.9969,-3.9854,-3.9854,-3.9854,-3.9854,-3.9854,-3.9854,-3.9527,-3.684,-3.7921,-3.8781,-3.9148,-3.8964,-3.8707,-3.8707,-3.8432,-3.8046,-3.7569,-3.7202,0.0,0.0,0.0,0.0,0.0,0.0,0.0,-4.1552,-4.2084,-4.2598,0.0,-4.4119,0.0,-4.5171,-4.6617,-4.7702,0.0,-4.8745,-4.941,-5.014,-4.9949,-4.9949,-5.0159,-5.0183,-5.0249,-5.0421,-5.0604,-5.0604,-5.0421,-5.0421,-5.0336,-5.0183,-5.0358,-5.0421,-5.0462,-5.0624,-5.0702,-5.0702,-5.0702,-5.0702,-5.0702,-5.0702,-5.0702,-5.0702,-5.0702,-5.0702,-5.0702,-5.0702,-5.0375,-5.0048,-5.0529,-5.0702,-5.0606,-5.0106,-4.9971,-4.9875,-4.9375,-4.8971,-4.8663,-4.8663,-4.8048,-4.7336,-4.699,-4.6528,-4.6067,-4.5682,-4.5586,-4.5586,-4.5586,-4.5586,-4.5586,-4.5586,-4.5586,-4.5586,-4.5586,-4.5586,-4.5413,-4.4932,-4.4143,-4.3624,-4.3624,-4.2874,-4.2374,-4.2374,-4.1566,-4.1066,-4.1066,-4.07,-4.0489,-4.0489,-4.0489,-4.0489,-4.0489,-4.0489,-4.0489,-4.0489,-4.0489,-4.0489,-4.0489,-4.0489,-4.0258,-3.8132,-3.8658,-3.8872,-3.957,-3.9221,-3.867,-3.8579,-3.7991,-3.7452,-3.7202,0.0,-3.6138,-3.6138,-3.6138,-3.6431,-3.7331,0.0,-3.9148,-4.0873,-4.1699,-4.2488,-4.3387,-4.4461,-4.5188,-4.5281,-4.6955,-4.8104,-4.8217,-4.8912,-4.9386,-4.9475,-4.9445,-4.9445,-4.9504,-4.9504,-4.9664,-5.0019,-5.0358,-5.0377,-5.0019,-5.0019,-4.9827,-4.9504,-4.9853,-5.0019,-5.0043,-5.0399,-5.0544,-5.0544,-5.0604,-5.0624,-5.0624,-5.0683,-5.0702,-5.0702,-5.0702,-5.0702,-5.0702,-5.0702,-5.0702,-5.0702,-5.0702,-5.0702,-5.0702,-5.0702,-5.0702,-5.0702,-5.0702,-5.0164,-4.9567,-4.9567,-4.8933,-4.8105,-4.7413,-4.7144,-4.6799,-4.5896,-4.5571,-4.5476,-4.5476,-4.5476,-4.5476,-4.5476,-4.5476,-4.5476,-4.5476,-4.5513,-4.5531,-4.5531,-4.4914,-4.447,-4.447,-4.3739,-4.3258,-4.3258,-4.247,-4.1931,-4.1816,-4.1085,-4.0623,-4.0489,-4.0489,-4.0489,-4.0489,-4.0489,-4.0489,-4.0489,-4.0489,-4.0489,-4.0489,-4.0489,-4.0489,-3.7661,-3.835,-3.8726,-3.8872,-3.8799,-3.8524,-3.7845,-3.7588,0.0,0.0,0.0,-3.521,-3.521,-3.521,-3.5734,-3.7239,0.0,0.0,0.0,0.0,-4.1864,0.0,0.0,0.0,0.0,0.0,0.0,0.0,-4.844,-4.8779,-4.9445,-4.9171,-4.9171,-4.9475,-4.9504,-4.9532,-4.9589,-4.9673,-4.9692,-4.9589,-4.9589,-4.9561,-4.9504,-4.9561,-4.9589,-4.9589,-4.9692,0.0,-4.9746,-5.0068,-5.0206,-5.0249,-5.0565,-5.0702,-5.0702,-5.0702,-5.0702,-5.0702,-5.0702,-5.0702,-5.0702,-5.0702,-5.0702,-5.0702,-5.0702,-5.0702,-5.0702,-5.0702,-5.0587,-5.0471,-5.0471,-4.9817,-4.9144,-4.899,-4.8413,-4.7588,-4.6428,-4.5441,-4.4757,-4.4757,-4.4757,-4.4757,-4.4757,-4.4757,-4.4757,-4.4757,-4.5011,-4.5201,-4.5201,-4.5285,-4.5355,-4.5355,-4.4605,-4.4085,-4.4085,-4.3335,-4.2566,-4.1854,-4.1662,-4.1258,-4.0527,-4.0489,-4.0489,-4.0489,-4.0489,-4.0489,-4.0489,-4.0489,-4.0489,-4.0489,-4.0489,-4.0489,-3.8389,-3.8609,-3.8441,-3.914,-3.8689,-3.7955,-3.7569,0.0,0.0,0.0,-3.4688,-3.4394,-3.4394,0.0,0.0,0.0,0.0,0.0,0.0,0.0,0.0,0.0,0.0,0.0,0.0,0.0,0.0,-4.8251,-4.8306,-4.8458,-4.8847,-4.8692,-4.8657,-4.8881,-4.9094,-4.9202,-4.9202,-4.9386,-4.9386,-4.9202,-4.9202,-4.9094,-4.8881,-4.9075,-4.9202,-4.9202,-4.9416,-4.9504,-4.9504,-4.9719,-4.98,-4.98,-4.9999,-5.0068,-5.0092,-5.0313,-5.0399,-5.0421,-5.0624,-5.0565,-5.0399,-5.0399,-5.0544,-5.0702,-5.0702,-5.0702,-5.0702,-5.0702,-5.0544,-5.0399,-5.0399,-4.992,-4.9344,-4.8886,-4.8119,-4.7258,-4.6277,-4.5609,-4.5108,-4.4674,-4.458,-4.458,-4.458,-4.458,-4.458,-4.458,-4.4751,-4.4896,-4.5074,-4.5243,-4.5419,-4.5586,-4.522,-4.497,-4.497,-4.4201,-4.3547,-4.3124,-4.272,-4.2085,-4.12,-4.1181,-4.095,-4.0508,-4.0489,-4.0489,-4.0489,-4.0489,-4.0489,-4.0489,-4.0489,-4.0489,-3.8711,-3.8645,-3.8122,-3.9145,-3.8432,-3.7404,-3.7037,-3.5954,0.0,0.0,-3.4247,-3.3807,-3.3807,0.0,0.0,0.0,0.0,0.0,0.0,0.0,0.0,0.0,0.0,0.0,0.0,0.0,0.0,-4.8251,-4.8306,-4.8306,-4.8306,-4.8306,-4.8306,-4.8306,-4.8604,-4.8779,-4.8779,-4.9075,-4.9075,-4.8779,-4.8779,-4.8604,-4.8306,-4.864,-4.8779,-4.8779,-4.9126,-4.9234,-4.9234,-4.9326,-4.9356,-4.9386,-4.9475,-4.9504,-4.9532,-4.9853,-4.9974,-5.0019,-5.0336,-5.0249,-4.9974,-4.9974,-5.0183,-5.0442,-5.0442,-5.0442,-5.0442,-5.0442,-5.0225,-4.9974,-4.9974,-4.9746,-4.9334,-4.8626,-4.7815,-4.6976,-4.6346,-4.5998,-4.5594,-4.4768,-4.4627,-4.459,-4.4402,-4.4364,-4.4364,-4.4364,-4.4419,-4.458,-4.483,-4.4943,-4.5118,-4.5476,-4.5568,-4.5586,-4.5586,-4.497,-4.4489,-4.4316,-4.3701,-4.297,-4.2104,-4.2085,-4.1662,-4.0796,-4.0777,-4.0681,-4.0489,-4.0489,-4.0489,-4.0489,-4.0489,-4.0489,-3.7298,-3.779,-3.7869,-3.7754,-3.7617,-3.7092,-3.5587,0.0,0.0,-3.4064,-3.3844,-3.3807,-3.3807,-3.3807,0.0,0.0,0.0,-3.6853,0.0,0.0,0.0,0.0,0.0,0.0,0.0,0.0,0.0,-4.8251,-4.8306,-4.8306,-4.8306,-4.8306,-4.8306,-4.8306,-4.8344,-4.8364,-4.8364,-4.8402,-4.8402,-4.8364,-4.8364,-4.8344,-4.8306,-4.8344,-4.8364,-4.8364,-4.8383,-4.8421,0.0,-4.8813,-4.8963,-4.8978,-4.9356,-4.9504,-4.9504,-4.9532,-4.958,-4.9561,-4.9608,-4.9608,-4.958,-4.958,-4.9561,-4.9589,-4.9589,-4.9589,-4.9589,-4.9589,-4.9589,-4.958,-4.958,-4.9532,-4.9485,-4.9409,-4.8502,-4.762,-4.7546,-4.6638,-4.5659,-4.4833,-4.4685,-4.4446,-4.3726,-4.3597,-4.3597,-4.3597,-4.3868,-4.4058,-4.4087,-4.4401,-4.4757,-4.5096,-4.5419,-4.5586,-4.5586,-4.5528,-4.5143,-4.4355,-4.422,-4.3835,-4.3008,-4.2989,-4.2566,-4.17,-4.1681,-4.1296,-4.0489,-4.0489,-4.0489,-4.0489,-4.0489,-4.0489,-3.5796,-3.62,-3.6091,-3.63,-3.6163,-3.5826,-3.5137,0.0,-3.4192,-3.3862,-3.3807,-3.3807,-3.3807,-3.3807,-3.3899,0.0,0.0,0.0,0.0,0.0,0.0,0.0,0.0,0.0,0.0,0.0,0.0,-4.8214,-4.8306,-4.8306,-4.8306,-4.8306,-4.8306,-4.8306,-4.8306,-4.8306,-4.8306,-4.8306,-4.8306,-4.8306,-4.8306,-4.8306,-4.8306,-4.8306,-4.8306,-4.8306,-4.8306,-4.8306,0.0,-4.8477,-4.855,-4.8532,-4.8728,-4.8797,-4.8813,-4.9062,-4.9139,-4.9171,-4.9416,-4.9356,-4.9139,-4.9139,-4.8963,-4.8881,-4.9356,-4.9504,-4.9504,-4.9504,-4.9326,-4.9139,-4.9139,-4.8963,-4.8797,-4.8797,-4.8416,-4.7941,-4.7442,-4.6985,-4.6397,-4.559,-4.5039,-4.4617,-4.4287,-4.3809,-4.3497,-4.3497,-4.3612,-4.3772,-4.3986,-4.4146,-4.4455,-4.5052,-4.5222,-4.5362,-4.5586,-4.5586,-4.5451,-4.5086,-4.5066,-4.4701,-4.3855,-4.3816,-4.3431,-4.2604,-4.2585,-4.2143,-4.1277,-4.1277,-4.1008,-4.0489,-4.0489,-4.0489,-3.3841,-3.4273,-3.4266,-3.4781,-3.4691,-3.454,0.0,0.0,-3.3807,-3.3807,-3.3807,-3.3807,-3.3807,-3.3807,-3.3807,0.0,0.0,-3.6009,0.0,0.0,0.0,0.0,0.0,0.0,0.0,0.0,-4.7076,-4.8214,-4.8306,-4.8306,-4.8306,-4.8306,-4.8306,-4.8306,-4.8306,-4.8306,-4.8306,-4.8306,-4.8306,-4.8306,-4.8306,-4.8306,-4.8306,-4.8306,-4.8306,-4.8306,-4.8306,-4.8306,0.0,-4.8306,-4.8306,-4.8306,-4.8306,-4.8306,-4.8326,-4.864,-4.8709,-4.8744,-4.9062,-4.8963,-4.8709,-4.8709,-4.855,-4.8402,-4.8963,-4.9158,-4.9158,-4.9158,-4.893,-4.8709,-4.8709,-4.8513,-4.8306,-4.8306,-4.8306,-4.8141,-4.759,-4.7462,-4.7241,-4.6416,-4.581,-4.5278,-4.4782,-4.4232,-4.3754,-4.3534,-4.3497,-4.3597,-4.3836,-4.3849,-4.4106,-4.4713,-4.4877,-4.5118,-4.5568,-4.5586,-4.5586,-4.5586,-4.5586,-4.5316,-4.4701,-4.4682,-4.4297,-4.347,-4.3451,-4.3047,-4.2181,-4.1931,-4.1489,-4.0873,-4.0623,-4.0489,-3.1367,-3.2016,-3.2634,-3.3172,-3.3339,-3.3408,0.0,0.0,-3.3807,-3.3807,-3.3807,-3.3807,-3.3807,-3.3807,-3.3807,-3.3807,-3.4486,0.0,0.0,0.0,0.0,0.0,0.0,0.0,0.0,0.0,-4.8288,-4.8306,-4.8306,0.0,-4.8306,-4.8306,-4.8306,-4.8306,-4.8306,-4.8306,-4.8306,-4.8306,-4.8306,-4.8306,-4.8306,-4.8306,-4.8306,-4.8306,-4.8306,-4.8306,-4.8306,-4.8306,0.0,-4.8306,-4.8306,-4.8306,-4.8306,-4.8306,-4.8306,-4.8306,-4.8306,-4.8306,-4.8306,-4.8306,-4.8306,-4.8306,-4.8306,-4.8306,-4.8306,-4.8306,-4.8306,-4.8306,-4.8306,-4.8306,-4.8306,-4.8306,-4.8306,-4.8306,-4.8306,-4.8306,-4.8306,-4.8306,-4.8067,-4.726,-4.7095,-4.6581,-4.4984,-4.4709,-4.4415,-4.3608,-4.3497,-4.3497,-4.3479,-4.3532,-4.3664,-4.3986,-4.4392,-4.4872,-4.5531,-4.5586,-4.5586,-4.5586,-4.5586,-4.5586,-4.5586,-4.5586,-4.5182,-4.4297,-4.4297,-4.3893,-4.3085,-4.222,-4.1797,-4.1777,-4.0893,-4.0489,-3.0254,-3.0926,-3.1373,-3.1799,-3.2588,-3.3243,-3.3361,0.0,-3.3807,-3.3807,-3.3807,-3.3807,-3.3807,-3.3807,-3.3807,-3.3807,-3.4486,0.0,0.0,0.0,0.0,0.0,0.0,0.0,0.0,0.0,-4.7719,-4.8269,-4.8306,-4.8306,-4.8306,-4.8306,-4.8306,-4.8306,-4.8306,-4.8306,-4.8306,-4.8306,-4.8306,-4.8306,-4.8306,-4.8306,-4.8306,-4.8306,-4.8306,-4.8306,-4.8306,-4.8306,-4.8306,-4.8306,-4.8306,-4.8306,-4.8306,-4.8306,-4.8306,-4.8306,-4.8306,-4.8306,-4.8306,-4.8306,-4.8306,-4.8306,-4.8306,-4.8306,-4.8306,-4.8306,-4.8306,-4.8306,-4.8306,-4.8306,-4.8306,-4.8306,-4.8306,-4.8306,-4.8306,-4.8306,-4.8306,-4.8306,-4.8233,-4.7976,-4.7498,-4.6966,-4.6452,-4.5443,-4.4617,-4.436,-4.3846,-4.3497,-4.3497,-4.3497,-4.3612,-4.3955,-4.4117,-4.4482,-4.5201,-4.5476,-4.5586,-4.5586,-4.5586,-4.5586,-4.5586,-4.5586,-4.547,-4.5182,-4.5182,-4.4759,-4.3912,-4.3643,-4.2931,-4.1797,-4.1527,-4.1066,0.0,-2.9473,-3.0217,-3.0773,-3.1729,0.0,0.0,0.0,0.0,-3.3762,-3.3807,-3.3807,-3.3807,-3.3807,-3.3807,-3.3807,-3.4229,0.0,0.0,0.0,0.0,0.0,0.0,0.0,0.0,-4.6636,-4.7443,-4.8251,-4.8306,-4.8306,-4.8306,-4.8306,-4.8306,-4.8306,-4.8306,-4.8306,-4.8306,-4.8306,-4.8306,-4.8306,-4.8306,-4.8306,-4.8306,-4.8306,-4.8306,-4.8306,-4.8306,-4.8306,0.0,-4.8306,-4.8306,-4.8306,-4.8306,-4.8306,-4.8306,-4.8306,-4.8306,-4.8306,-4.8306,-4.8306,-4.8306,-4.8306,-4.8306,-4.8306,-4.8306,-4.8306,-4.8306,-4.8306,-4.8306,-4.8306,-4.8306,-4.8306,-4.8306,-4.8306,-4.8306,-4.8306,-4.8306,-4.8306,-4.8306,-4.8306,-4.7921,-4.748,-4.713,-4.6287,-4.5406,-4.48,-4.4268,-4.3828,-4.3534,-4.3497,-4.3563,-4.3804,-4.3924,-4.4261,-4.4872,-4.5222,-4.5476,-4.5586,-4.5586,-4.5586,-4.5586,-4.5586,-4.5586,-4.5586,-4.5586,-4.5316,-4.4778,-4.4451,-4.3605,-4.2277,-4.195,-4.1508,0.0,0.0,0.0,0.0,0.0,0.0,0.0,0.0,0.0,0.0,0.0,0.0,-3.3807,-3.3807,-3.3807,-3.3807,-3.3844,0.0,0.0,0.0,0.0,0.0,0.0,0.0,0.0,-4.6581,-4.7388,-4.8251,-4.8306,-4.8306,-4.8306,-4.8306,-4.8306,-4.8306,-4.8306,-4.8306,-4.8306,-4.8306,-4.8306,-4.8306,-4.8306,-4.8306,-4.8306,-4.8306,-4.8306,0.0,-4.8306,-4.8306,-4.8306,-4.8306,-4.8306,-4.8306,-4.8306,-4.8306,-4.8306,-4.8306,-4.8306,-4.8306,-4.8306,-4.8306,-4.8306,-4.8306,-4.8306,-4.8306,-4.8306,-4.8306,-4.8306,-4.8306,-4.8306,-4.8306,-4.8306,-4.8306,-4.8306,-4.8306,-4.8306,-4.8306,-4.8306,-4.8306,-4.8306,-4.8306,-4.8306,-4.8067,-4.7333,-4.715,-4.6599,-4.5112,-4.4782,-4.4433,-4.3681,-4.3534,-4.3497,-4.3497,-4.3772,-4.4136,-4.4553,-4.4919,-4.5243,-4.5586,-4.5586,-4.5586,-4.5586,-4.5586,-4.5586,-4.5586,-4.5586,-4.5586,-4.5586,-4.4778,-4.397,-4.3162,-4.2354,-4.195,-2.6691,0.0,-2.9128,-2.9588,-3.0698,0.0,0.0,0.0,0.0,0.0,0.0,0.0,0.0,0.0,0.0,-3.3807,0.0,-3.5092,0.0,0.0,0.0,0.0,0.0,0.0,-4.5755,-4.6067,-4.6783,-4.8196,-4.8306,-4.8306,-4.8306,-4.8306,-4.8306,-4.8306,-4.8306,-4.8306,-4.8306,-4.8306,-4.8306,-4.8306,-4.8306,-4.8306,-4.8306,-4.8306,-4.8306,-4.8306,-4.8306,-4.8306,-4.8306,-4.8306,-4.8306,-4.8306,-4.8306,-4.8306,-4.8306,-4.8306,-4.8306,-4.8306,-4.8306,-4.8306,-4.8306,-4.8306,-4.8306,-4.8306,-4.8306,-4.8306,-4.8306,-4.8306,-4.8306,-4.8306,-4.8306,-4.8306,-4.8306,-4.8306,-4.8306,-4.8306,-4.8306,-4.8306,-4.8306,-4.8306,-4.8306,-4.8251,-4.8067,-4.7517,-4.6985,-4.6599,-4.5498,-4.4635,-4.4452,-4.3883,-4.3497,-4.3497,-4.3563,-4.3868,-4.4527,-4.4919,-4.5243,-4.5586,-4.5586,-4.5586,-4.5586,-4.5586,-4.5586,-4.5586,-4.5586,-4.5586,-4.5586,-4.5393,-4.4855,-4.4008,-4.3816,-4.3374,-2.6691,-2.7709,-2.8905,-2.9419,-3.0439,-3.1551,0.0,0.0,0.0,0.0,0.0,0.0,0.0,0.0,0.0,0.0,0.0,0.0,0.0,0.0,0.0,0.0,0.0,0.0,0.0,-4.5902,-4.6562,-4.8177,-4.8306,-4.8306,-4.8306,-4.8306,-4.8306,-4.8306,-4.8306,-4.8306,-4.8306,-4.8306,-4.8306,-4.8306,-4.8306,-4.8306,-4.8306,-4.8306,-4.8306,-4.8306,-4.8306,-4.8306,-4.8306,-4.8306,-4.8306,-4.8306,-4.8306,-4.8306,-4.8306,-4.8306,-4.8306,-4.8306,-4.8306,-4.8306,-4.8306,-4.8306,-4.8306,-4.8306,-4.8306,-4.8306,-4.8306,-4.8306,-4.8306,-4.8306,-4.8306,-4.8306,-4.8306,-4.8306,-4.8306,-4.8306,-4.8306,-4.8306,-4.8306,-4.8306,-4.8306,-4.8306,-4.8306,-4.7957,-4.7535,-4.7186,-4.6049,-4.5131,-4.4764,-4.3993,-4.3497,-4.3497,-4.3497,-4.3791,-4.4527,-4.4776,-4.5074,-4.5568,-4.5586,-4.5586,-4.5586,-4.5586,-4.5586,-4.5586,-4.5586,-4.5586,-4.5586,-4.5586,-4.5355,-4.4893,-4.4489,-4.4066,-2.6691,-2.7433,-2.8416,-2.9281,-3.0058,-3.1046,0.0,0.0,0.0,0.0,0.0,0.0,0.0,0.0,0.0,0.0,0.0,0.0,0.0,0.0,0.0,0.0,0.0,0.0,-4.5571,-4.5828,-4.6526,-4.8012,-4.8233,-4.8306,-4.8306,-4.8306,-4.8306,-4.8306,-4.8306,-4.8306,-4.8306,-4.8306,-4.8306,-4.8306,-4.8306,-4.8306,-4.8306,-4.8306,-4.8306,-4.8306,-4.8306,0.0,-4.8306,-4.8306,-4.8306,-4.8306,-4.8306,-4.8306,-4.8306,-4.8306,-4.8306,-4.8306,-4.8306,-4.8306,-4.8306,-4.8306,-4.8306,-4.8306,-4.8306,-4.8306,-4.8306,-4.8306,-4.8306,-4.8306,-4.8306,-4.8306,-4.8306,-4.8306,-4.8306,-4.8306,-4.8306,-4.8306,-4.8306,-4.8306,-4.8306,-4.8306,-4.8306,-4.8306,-4.8086,-4.7407,-4.6489,-4.5645,-4.4984,-4.4066,-4.3497,-4.3497,-4.3548,-4.3836,-4.4527,-4.465,-4.4943,-4.5568,-4.5586,-4.5586,-4.5586,-4.5586,-4.5586,-4.5586,-4.5586,-4.5586,-4.5586,-4.5586,-4.5586,-4.5566,-4.4836,-4.4489,-2.6691,-2.6843,-2.7335,-2.8745,-2.9644,-3.0617,0.0,0.0,0.0,0.0,0.0,0.0,0.0,0.0,0.0,0.0,0.0,0.0,0.0,0.0,0.0,0.0,0.0,-4.3864,-4.48,-4.5498,-4.6287,-4.7223,-4.7921,-4.8306,-4.8306,-4.8306,-4.8306,-4.8306,-4.8306,-4.8306,-4.8306,-4.8306,-4.8306,-4.8306,-4.8306,-4.8306,-4.8306,-4.8306,-4.8306,-4.8306,0.0,-4.8306,-4.8306,-4.8306,-4.8306,-4.8306,-4.8306,-4.8306,-4.8306,-4.8306,-4.8306,-4.8306,-4.8306,-4.8306,-4.8306,-4.8306,-4.8306,-4.8306,-4.8306,-4.8306,-4.8306,-4.8306,-4.8306,-4.8306,-4.8306,-4.8306,-4.8306,-4.8306,-4.8306,-4.8306,-4.8306,-4.8306,-4.8306,-4.8306,-4.8306,-4.8306,-4.8306,-4.8306,-4.8269,-4.8141,-4.6856,-4.5865,-4.5736,-4.4415,-4.3497,-4.3497,-4.374,-4.4106,-4.4553,-4.4872,-4.5201,-4.5568,-4.5586,-4.5586,-4.5586,-4.5586,-4.5586,-4.5586,-4.5586,-4.5586,-4.5586,-4.5586,-4.5586,-4.5586,-4.5451,-4.5393,-2.6691,-2.6691,-2.7114,-2.8887,-2.943,-3.0011,0.0,0.0,0.0,0.0,0.0,0.0,0.0,0.0,0.0,0.0,0.0,0.0,0.0,0.0,0.0,0.0,0.0,-4.3809,-4.4635,-4.5039,-4.559,-4.6397,-4.7205,-4.7664,-4.7664,-4.8067,-4.8306,-4.8306,-4.8306,-4.8306,-4.8306,-4.8306,-4.8306,-4.8306,-4.8306,-4.8306,-4.8306,-4.8306,-4.8306,-4.8306,0.0,-4.8306,-4.8306,-4.8306,-4.8306,-4.8306,-4.8306,-4.8306,-4.8306,-4.8306,-4.8306,-4.8306,-4.8306,-4.8306,-4.8306,-4.8306,-4.8306,-4.8306,-4.8306,-4.8306,-4.8306,-4.8306,-4.8306,-4.8306,-4.8306,-4.8306,-4.8306,-4.8306,-4.8306,-4.8306,-4.8306,-4.8306,-4.8306,-4.8306,-4.8306,-4.8306,-4.8306,-4.8306,-4.8306,-4.8306,-4.6929,-4.5902,-4.5902,-4.4488,-4.3497,-4.3497,-4.3804,-4.4146,-4.4553,-4.4919,-4.5243,-4.5586,-4.5586,-4.5586,-4.5586,-4.5586,-4.5586,-4.5586,-4.5586,-4.5586,-4.5586,-4.5586,-4.5586,-4.5586,-4.5586,-4.5586,-2.6691,-2.6826,-2.7386,-2.916,0.0,-2.9621,0.0,0.0,0.0,0.0,0.0,0.0,0.0,0.0,0.0,0.0,0.0,0.0,0.0,-4.1791,-4.2598,-4.3387,-4.3497,-4.3736,-4.436,-4.4599,-4.4966,-4.5571,-4.6361,-4.6838,-4.6838,-4.7407,-4.7829,-4.8012,-4.8031,-4.8122,-4.8306,-4.8306,-4.8306,-4.8306,-4.8306,-4.8306,-4.8306,-4.8306,-4.8306,-4.8306,-4.8306,-4.8306,-4.8306,-4.8306,-4.8306,-4.8306,-4.8306,-4.8306,-4.8306,-4.8306,-4.8306,-4.8306,-4.8306,-4.8306,-4.8306,-4.8306,-4.8306,-4.8306,-4.8306,-4.8306,-4.8306,-4.8306,-4.8306,-4.8306,-4.8306,-4.8306,-4.8306,-4.8306,-4.8306,-4.8306,-4.8306,-4.8306,-4.8306,-4.8306,-4.8306,-4.8306,-4.8306,-4.8306,-4.8306,-4.8306,-4.6929,-4.5902,-4.5902,-4.4488,-4.3497,-4.3497,-4.3881,-4.4318,-4.4781,-4.5074,-4.5322,-4.5586,-4.5586,-4.5586,-4.5586,-4.5586,-4.5586,-4.5586,-4.5586,-4.5586,-4.5586,-4.5586,-4.5586,-4.5586,-4.5586,-4.5586,-2.6691,-2.7199,-2.8014,-2.9298,0.0,0.0,0.0,0.0,0.0,0.0,0.0,0.0,0.0,0.0,0.0,0.0,0.0,0.0,-4.0983,0.0,-4.2598,-4.3387,-4.3497,-4.3516,-4.3571,-4.4268,-4.4727,-4.4782,-4.5535,-4.5993,-4.5993,-4.603,-4.6416,-4.7186,-4.7205,-4.7553,-4.8306,-4.8306,-4.8306,-4.8306,-4.8306,-4.8306,-4.8306,-4.8306,-4.8306,-4.8306,-4.8306,-4.8306,-4.8306,-4.8306,-4.8306,-4.8306,-4.8306,-4.8306,-4.8306,-4.8306,-4.8306,-4.8306,-4.8306,-4.8306,-4.8306,-4.8306,-4.8306,-4.8306,-4.8306,-4.8306,-4.8306,-4.8306,-4.8306,-4.8306,-4.8306,-4.8306,-4.8306,-4.8306,-4.8306,-4.8306,-4.8306,-4.8306,-4.8306,-4.8306,-4.8306,-4.8306,-4.8306,-4.8306,-4.8306,-4.8306,-4.6929,-4.5902,-4.5902,-4.4488,-4.3497,-4.3497,-4.4125,-4.4806,-4.5457,-4.555,-4.5568,-4.5586,-4.5586,-4.5586,-4.5586,-4.5586,-4.5586,-4.5586,-4.5586,-4.5586,-4.5586,-4.5586,-4.5586,-4.5586,-4.5586,-4.5586,-2.6691,-2.7249,-2.8082,-2.9298,0.0,0.0,0.0,0.0,0.0,0.0,0.0,0.0,0.0,0.0,0.0,0.0,0.0,0.0,-4.1735,-4.2543,-4.3149,-4.3442,-4.3497,-4.3497,-4.3497,-4.3773,-4.3956,-4.3956,-4.4709,-4.5149,-4.5149,-4.5626,-4.6049,-4.6342,-4.6361,-4.6507,-4.6801,-4.7315,-4.7572,-4.7572,-4.8067,-4.8306,-4.8306,-4.8306,-4.8306,-4.8306,-4.8306,-4.8306,-4.8306,-4.8306,-4.8306,-4.8306,-4.8306,-4.8306,-4.8306,-4.8306,-4.8306,-4.8306,-4.8306,-4.8306,-4.8306,-4.8306,-4.8306,-4.8306,-4.8306,-4.8306,-4.8306,-4.8306,-4.8306,-4.8306,-4.8306,-4.8306,-4.8306,-4.8306,-4.8306,-4.8306,-4.8306,-4.8306,-4.8306,-4.8306,-4.8306,-4.8306,-4.8306,-4.8306,-4.8306,-4.8306,-4.6929,-4.5902,-4.5902,-4.4675,-4.3804,-4.3804,-4.4482,-4.5096,-4.5568,-4.5586,-4.5586,-4.5586,-4.5586,-4.5586,-4.5586,-4.5586,-4.5586,-4.5586,-4.5586,-4.5586,-4.5586,-4.5586,-4.5586,-4.5586,-4.5586,-4.5586,-2.6691,-2.7418,-2.8369,0.0,0.0,0.0,0.0,0.0,0.0,0.0,0.0,0.0,0.0,0.0,0.0,0.0,0.0,-4.1387,-4.2194,-4.2983,-4.3497,-4.3497,-4.3497,-4.3497,-4.3497,-4.3497,-4.3497,-4.3497,-4.4011,-4.4323,-4.4323,-4.4837,-4.5259,-4.5516,-4.5516,-4.5645,-4.5902,-4.6452,-4.6728,-4.6746,-4.7278,-4.781,-4.8306,-4.8306,-4.8306,-4.8306,-4.8306,-4.8306,-4.8306,-4.8306,-4.8306,-4.8306,-4.8306,-4.8306,-4.8306,-4.8306,-4.8306,-4.8306,-4.8306,-4.8306,-4.8306,-4.8306,-4.8306,-4.8306,-4.8306,-4.8306,-4.8306,-4.8306,-4.8306,-4.8306,-4.8306,-4.8306,-4.8306,-4.8306,-4.8306,-4.8306,-4.8306,-4.8306,-4.8306,-4.8306,-4.8306,-4.8306,-4.8306,-4.8306,-4.8306,-4.8306,-4.6929,-4.5902,-4.5902,-4.4772,-4.4087,-4.4327,-4.4806,-4.5243,-4.5568,-4.5586,-4.5586,-4.5586,-4.5586,-4.5586,-4.5586,-4.5586,-4.5586,-4.5586,-4.5586,-4.5586,-4.5586,-4.5586,-4.5586,-4.5586,-4.5586,-4.5586,-2.6691,-2.7824,0.0,0.0,0.0,0.0,0.0,0.0,0.0,0.0,0.0,0.0,0.0,0.0,0.0,-3.9063,-4.0209,-4.1354,-4.2194,-4.3002,-4.3479,-4.3479,-4.3497,-4.3497,-4.3497,-4.3497,-4.3497,-4.3497,-4.3497,-4.3497,-4.3497,-4.3497,-4.3864,-4.4672,-4.4709,-4.5076,-4.5865,-4.5883,-4.5883,-4.5883,-4.5902,-4.6728,-4.8288,-4.8288,-4.8306,-4.8306,-4.8306,-4.8306,-4.8306,-4.8306,-4.8306,-4.8306,-4.8306,-4.8306,-4.8306,-4.8306,-4.8306,-4.8306,-4.8306,-4.8288,-4.8288,-4.8288,-4.8288,-4.8288,-4.8288,-4.8288,-4.8288,-4.8306,-4.8306,-4.8306,-4.8306,-4.8306,-4.8306,-4.8306,-4.8306,-4.8306,-4.8306,-4.8306,-4.8306,-4.8306,-4.8306,-4.8306,-4.8306,-4.8306,-4.8306,-4.8306,-4.6929,-4.5902,-4.5883,-4.4804,-4.429,-4.503,-4.5096,-4.5243,-4.5568,-4.5586,-4.5586,-4.5586,-4.5586,-4.5586,-4.5586,-4.5586,-4.5586,-4.5586,-4.5586,-4.5586,-4.5586,-4.5586,-4.5586,-4.5586,-4.5586,-4.5586,-2.6691,-2.7824,0.0,0.0,0.0,0.0,0.0,0.0,0.0,0.0,0.0,0.0,0.0,0.0,0.0,-3.9236,-4.0003,-4.0818,-4.1809,-4.2531,-4.2939,-4.2939,-4.325,-4.3497,-4.3497,-4.3497,-4.3497,-4.3497,-4.3497,-4.3497,-4.3497,-4.3497,-4.3608,-4.3846,-4.3864,-4.3975,-4.4195,-4.4764,-4.5057,-4.5057,-4.5626,-4.614,-4.6636,-4.7205,-4.748,-4.7498,-4.8067,-4.8306,-4.8306,-4.8306,-4.8306,-4.8306,-4.8306,-4.8306,-4.8306,-4.8306,-4.7957,-4.748,-4.748,-4.7095,-4.6617,-4.6617,-4.6617,-4.6617,-4.6617,-4.6617,-4.6728,-4.7315,-4.748,-4.748,-4.748,-4.7884,-4.8306,-4.8306,-4.8306,-4.8306,-4.8306,-4.8306,-4.8306,-4.8306,-4.8306,-4.8306,-4.8306,-4.8306,-4.8306,-4.8306,-4.6929,-4.569,-4.5073,-4.4665,-4.4707,-4.5362,-4.5438,-4.5495,-4.5586,-4.5586,-4.5586,-4.5586,-4.5586,-4.5586,-4.5586,-4.5586,-4.5586,-4.5586,-4.5586,-4.5586,-4.5586,-4.5586,-4.5586,-4.5586,-4.5586,-4.5586,-2.6691,0.0,0.0,0.0,0.0,0.0,0.0,0.0,0.0,0.0,0.0,0.0,0.0,0.0,0.0,-3.9024,-3.9593,-4.0342,-4.1623,-4.2121,-4.244,-4.2655,-4.2976,-4.325,-4.3479,-4.3497,-4.3497,-4.3497,-4.3497,-4.3497,-4.3497,-4.3497,-4.3497,-4.3497,-4.3497,-4.3497,-4.3497,-4.3975,-4.4213,-4.4232,-4.4709,-4.4947,-4.4984,-4.6122,-4.6636,-4.6654,-4.715,-4.7352,-4.7352,-4.7352,-4.7352,-4.7352,-4.7352,-4.7352,-4.7352,-4.7352,-4.704,-4.6636,-4.6636,-4.6305,-4.5902,-4.5902,-4.5902,-4.5902,-4.5902,-4.5902,-4.5993,-4.6489,-4.6636,-4.6636,-4.6636,-4.6985,-4.7352,-4.7352,-4.759,-4.7755,-4.7425,-4.7352,-4.7443,-4.7774,-4.7829,-4.7829,-4.7829,-4.7829,-4.7719,-4.7388,-4.6359,-4.5366,-4.4697,-4.4726,-4.4988,-4.5531,-4.5586,-4.5586,-4.5586,-4.5586,-4.5586,-4.5586,-4.5586,-4.5586,-4.5586,-4.5586,-4.5586,-4.5586,-4.5586,-4.5586,-4.5586,-4.5586,-4.5586,-4.5586,-4.5586,-4.5586,0.0,0.0,0.0,0.0,0.0,0.0,0.0,0.0,0.0,0.0,0.0,0.0,0.0,-3.644,-3.7418,-3.8348,-3.9028,-3.9923,-4.1364,-4.1629,-4.1937,-4.2537,-4.2616,-4.2808,-4.3375,-4.341,-4.341,-4.341,-4.3479,-4.3497,-4.3497,-4.3497,-4.3497,-4.3497,-4.3497,-4.3497,-4.3497,-4.3497,-4.3497,-4.3497,-4.3497,-4.3497,-4.3534,-4.5094,-4.5828,-4.5902,-4.5902,-4.5902,-4.5902,-4.5902,-4.5902,-4.5902,-4.5902,-4.5902,-4.5902,-4.5902,-4.5847,-4.5792,-4.5792,-4.5736,-4.5681,-4.5681,-4.5681,-4.5681,-4.5681,-4.5681,-4.57,-4.5773,-4.5792,-4.5792,-4.5792,-4.5847,-4.5865,-4.5718,-4.6361,-4.6801,-4.6067,-4.5902,-4.6122,-4.6874,-4.7003,-4.7003,-4.7003,-4.7003,-4.6728,-4.5902,-4.5456,-4.5032,-4.4667,-4.4896,-4.5222,-4.5568,-4.5586,-4.5586,-4.5586,-4.5586,-4.5586,-4.5586,-4.5586,-4.5586,-4.5586,-4.5586,-4.5586,-4.5586,-4.5586,-4.5586,-4.5586,-4.5586,-4.5586,-4.5586,-4.5586,-4.5586,0.0,0.0,0.0,0.0,0.0,0.0,0.0,0.0,0.0,0.0,0.0,0.0,0.0,-3.6139,-3.6728,-3.7143,-3.8129,-3.898,-3.9521,-4.0464,-4.1313,-4.1937,-4.1979,-4.2244,-4.2808,-4.2864,-4.2864,-4.2864,-4.325,-4.3497,-4.3497,-4.3497,-4.3497,-4.3497,-4.3497,-4.3497,-4.3497,-4.3497,-4.3497,-4.3497,-4.3497,-4.3497,-4.3516,-4.4507,-4.5296,-4.5902,-4.5902,-4.5902,-4.5902,-4.5902,-4.5902,-4.5902,-4.5902,-4.5902,-4.5902,-4.5902,-4.5498,-4.4966,-4.4966,-4.4544,-4.4011,-4.4011,-4.4011,-4.4011,-4.4011,-4.4011,-4.414,-4.4782,-4.4966,-4.4966,-4.4966,-4.5424,-4.5571,-4.4305,-4.5112,-4.6104,-4.5938,-4.5902,-4.5957,-4.6122,-4.6159,-4.6159,-4.6159,-4.6159,-4.5883,-4.5094,-4.5105,-4.5032,-4.4667,-4.4896,-4.5222,-4.5568,-4.5586,-4.5586,-4.5586,-4.5586,-4.5586,-4.5586,-4.5586,-4.5586,-4.5586,-4.5586,-4.5586,-4.5586,-4.5586,-4.5586,-4.5586,-4.5586,-4.5586,-4.5586,-4.5586,-4.5586,0.0,0.0,0.0,0.0,0.0,0.0,0.0,0.0,0.0,0.0,0.0,0.0,-3.5622,-3.581,-3.6198,-3.6683,-3.7337,-3.8042,-3.8885,-3.9569,-4.0353,-4.1261,-4.1358,-4.1621,-4.2203,-4.2262,-4.2262,-4.2262,-4.2541,-4.281,-4.3087,-4.3142,-4.325,-4.3479,-4.3497,-4.3497,-4.3497,-4.3497,-4.3497,-4.3497,-4.3497,-4.3497,-4.3497,-4.392,-4.4342,-4.4745,-4.4745,-4.4745,-4.4745,-4.4745,-4.4745,-4.4745,-4.4745,-4.4745,-4.4745,-4.4745,-4.4488,-4.4121,-4.4121,-4.3846,-4.3497,-4.3497,-4.3497,-4.3497,-4.3497,-4.3497,-4.3589,-4.4011,-4.4121,-4.4121,-4.4121,-4.4433,-4.4525,-4.3681,-4.4433,-4.5223,-4.4819,-4.4745,-4.4856,-4.5259,-4.5333,-4.5333,-4.5333,-4.5002,-4.4599,-4.4195,-4.4575,-4.4834,-4.4636,-4.5033,-4.5419,-4.5586,-4.5586,-4.5586,-4.5586,-4.5586,-4.5586,-4.5586,-4.5586,-4.5586,-4.5586,-4.5586,-4.5586,-4.5586,-4.5586,-4.5586,-4.5586,-4.5586,-4.5586,-4.5586,-4.5586,-4.5586,0.0,0.0,0.0,0.0,0.0,0.0,0.0,0.0,0.0,0.0,0.0,0.0,-3.5622,-3.5622,-3.5825,-3.6468,-3.6688,-3.7212,-3.843,-3.8717,-3.9282,-4.0533,-4.0637,-4.0856,-4.156,-4.1621,-4.1621,-4.1621,-4.175,-4.2021,-4.2519,-4.2655,-4.2864,-4.3196,-4.341,-4.3463,-4.3375,-4.3444,-4.3497,-4.3497,-4.3497,-4.3497,-4.3497,-4.3497,-4.3497,-4.3497,-4.3497,-4.3497,-4.3497,-4.3497,-4.3497,-4.3497,-4.3497,-4.3497,-4.3497,-4.3497,-4.3497,-4.3497,-4.3497,-4.3497,-4.3497,-4.3497,-4.3497,-4.3497,-4.3497,-4.3497,-4.3497,-4.3497,-4.3497,-4.3497,-4.3497,-4.3497,-4.3497,-4.3497,-4.4011,-4.4305,-4.3626,-4.3497,-4.3699,-4.436,-4.4488,-4.4488,-4.4488,-4.3938,-4.3513,-4.3563,-4.4165,-4.4606,-4.4682,-4.5222,-4.5586,-4.5586,-4.5586,-4.5586,-4.5586,-4.5586,-4.5586,-4.5586,-4.5586,-4.5586,-4.5586,-4.5586,-4.5586,-4.5586,-4.5586,-4.5586,-4.5586,-4.5586,-4.5586,-4.5586,-4.5586,-4.5586,0.0,0.0,0.0,0.0,0.0,0.0,0.0,0.0,0.0,0.0,0.0,-3.5622,-3.5622,-3.5622,-3.5656,-3.5757,-3.6349,-3.6857,-3.706,-3.7635,-3.8516,-3.9818,-3.9538,-3.9717,-4.0897,-4.1041,-4.1041,-4.1041,-4.149,-4.1853,-4.1895,-4.244,-4.248,-4.2062,-4.2977,-4.3286,-4.2826,-4.325,-4.3497,-4.3497,-4.3497,-4.3497,-4.3497,-4.3497,-4.3497,-4.3497,-4.3497,-4.3497,-4.3497,-4.3497,-4.3497,-4.3497,-4.3497,-4.3497,-4.3497,-4.3497,-4.3497,-4.3497,-4.3497,-4.3497,-4.3497,-4.3497,-4.3497,-4.3497,-4.3497,-4.3497,-4.3497,-4.3497,-4.3497,-4.3497,-4.3497,-4.3497,-4.3497,-4.3497,-4.3571,-4.3626,-4.3516,-4.3497,-4.3516,-4.3626,-4.3644,-4.3644,-4.3644,-4.3552,-4.3597,-4.3881,-4.429,-4.4707,-4.5007,-4.5362,-4.5586,-4.5586,-4.5586,-4.5586,-4.5586,-4.5586,-4.5586,-4.5586,-4.5586,-4.5586,-4.5586,-4.5586,-4.5586,-4.5586,-4.5586,-4.5586,-4.5586,-4.5586,-4.5586,-4.5586,-4.5586,-4.5586,0.0,0.0,0.0,0.0,0.0,0.0,0.0,0.0,0.0,0.0,0.0,-3.5115,-3.5537,-3.5622,-3.5622,-3.5622,-3.591,-3.6282,-3.6721,-3.706,-3.7628,-3.8606,-3.8554,-3.8577,-3.9153,-3.9217,-3.9388,-3.9799,-4.0053,-4.0533,-4.1251,-4.1534,-4.1707,-4.181,-4.2306,-4.2444,-4.2203,-4.2444,-4.2734,-4.305,-4.305,-4.3214,-4.3497,-4.3497,-4.3497,-4.3497,-4.3497,-4.3497,-4.3497,-4.3497,-4.3497,-4.3497,-4.3497,-4.3497,-4.3497,-4.3497,-4.3497,-4.3497,-4.3497,-4.3497,-4.3497,-4.3497,-4.3497,-4.3497,-4.3497,-4.3497,-4.3497,-4.3497,-4.3497,-4.3497,-4.3497,-4.3497,-4.3497,-4.3497,-4.3497,-4.3497,-4.3497,-4.3497,-4.3497,-4.3497,-4.3497,-4.3497,-4.3497,-4.3497,-4.3612,-4.3955,-4.4346,-4.4707,-4.5052,-4.54,-4.5586,-4.5586,-4.5586,-4.5586,-4.5586,-4.5586,-4.5586,-4.5586,-4.5586,-4.5586,-4.5586,-4.5586,-4.5586,-4.5586,-4.5586,-4.5586,-4.5586,-4.5586,-4.5586,-4.5586,-4.5586,-4.5586,0.0,0.0,0.0,0.0,0.0,0.0,0.0,0.0,0.0,0.0,-3.3711,-3.4455,-3.5199,-3.5487,-3.5622,-3.5622,-3.5622,-3.5825,-3.64,-3.6485,-3.6772,-3.7533,-3.7618,-3.7702,-3.7889,-3.7905,-3.8125,-3.8667,-3.8717,-3.9115,-4.0117,-4.0256,-4.0468,-4.0797,-4.1276,-4.1467,-4.1296,-4.1619,-4.2038,-4.248,-4.248,-4.2675,-4.3069,-4.3069,-4.3069,-4.3069,-4.3356,-4.3497,-4.3497,-4.3497,-4.3497,-4.3497,-4.3497,-4.3497,-4.3497,-4.3497,-4.3497,-4.3497,-4.3497,-4.3497,-4.3497,-4.3497,-4.3497,-4.3497,-4.3497,-4.3497,-4.3497,-4.3497,-4.3497,-4.3497,-4.3497,-4.3497,-4.3497,-4.3497,-4.3497,-4.3497,-4.3497,-4.3497,-4.3497,-4.3497,-4.3497,-4.3497,-4.3497,-4.3563,-4.3758,-4.4106,-4.4482,-4.4849,-4.5161,-4.5457,-4.5586,-4.5586,-4.5586,-4.5586,-4.5586,-4.5586,-4.5586,-4.5586,-4.5586,-4.5586,-4.5586,-4.5586,-4.5586,-4.5586,-4.5586,-4.5586,-4.5586,-4.5586,-4.5586,-4.5586,-4.5586,-4.5586,0.0,0.0,0.0,0.0,0.0,0.0,0.0,0.0,0.0,0.0,-3.2933,-3.3694,-3.4421,-3.5131,-3.5622,-3.5622,-3.5622,-3.5639,-3.5673,-3.5673,-3.596,-3.6738,-3.684,-3.711,-3.7838,-3.7905,-3.7922,-3.7956,-3.7973,-3.7973,-3.8055,-3.8539,-3.8584,-3.8102,-3.9835,-4.0486,-3.9891,-4.1165,-4.181,-4.1853,-4.1853,-4.1853,-4.1895,-4.1895,-4.1895,-4.1937,-4.3014,-4.3497,-4.3497,-4.3497,-4.3497,-4.3497,-4.3497,-4.3497,-4.3497,-4.3497,-4.3497,-4.3497,-4.3497,-4.3497,-4.3497,-4.3497,-4.3497,-4.3497,-4.3497,-4.3497,-4.3497,-4.3497,-4.3497,-4.3497,-4.3497,-4.3497,-4.3497,-4.3497,-4.3497,-4.3497,-4.3497,-4.3497,-4.3497,-4.3497,-4.3497,-4.3497,-4.3497,-4.3772,-4.4087,-4.4501,-4.4872,-4.5201,-4.5531,-4.5586,-4.5586,-4.5586,-4.5586,-4.5586,-4.5586,-4.5586,-4.5586,-4.5586,-4.5586,-4.5586,-4.5586,-4.5586,-4.5586,-4.5586,-4.5586,-4.5586,-4.5586,-4.5586,-4.5586,-4.5586,-4.5586,-4.5586,0.0,0.0,0.0,0.0,0.0,0.0,0.0,0.0,0.0,0.0,-3.2171,-3.2763,-3.3017,-3.4066,-3.5064,-3.5537,-3.5622,-3.5622,-3.5622,-3.5622,-3.5723,-3.6011,-3.6028,-3.6146,-3.6417,-3.6434,-3.6654,-3.7144,-3.7178,-3.7398,-3.7872,-3.8091,-3.8091,-3.7905,-3.8562,-3.882,-3.8576,-3.9049,-3.9455,-3.98,-3.98,-4.0014,-4.0423,-4.0878,-4.1091,-4.1144,-4.2011,-4.2386,-4.2426,-4.2846,-4.2976,-4.3014,-4.3375,-4.3497,-4.3497,-4.3497,-4.3497,-4.3497,-4.3497,-4.3497,-4.3497,-4.3497,-4.3497,-4.3497,-4.3497,-4.3497,-4.3497,-4.3497,-4.3497,-4.3497,-4.3497,-4.3497,-4.3497,-4.3497,-4.3497,-4.3497,-4.3497,-4.3497,-4.3497,-4.3497,-4.3497,-4.3497,-4.3497,-4.3772,-4.4146,-4.4527,-4.4896,-4.5222,-4.5568,-4.5586,-4.5586,-4.5586,-4.5586,-4.5586,-4.5586,-4.5586,-4.5586,-4.5586,-4.5586,-4.5586,-4.5586,-4.5586,-4.5586,-4.5586,-4.5586,-4.5586,-4.5586,-4.5586,-4.5586,-4.5586,-4.5586,-4.5586,0.0,0.0,0.0,0.0,0.0,0.0,0.0,0.0,0.0,0.0,-3.1579,-3.1985,-3.2239,-3.3085,-3.4066,-3.5081,-3.5453,-3.5622,-3.5622,-3.5622,-3.5622,-3.5622,-3.5622,-3.5622,-3.5622,-3.5622,-3.5825,-3.6349,-3.64,0.0,-3.711,-3.7144,-3.7263,-3.7516,-3.7533,-3.7652,-3.7905,-3.7905,-3.8091,-3.8418,-3.8418,-3.8641,-3.9048,-3.9538,-3.9783,-3.9774,-4.028,-4.099,-4.1853,-4.244,-4.2711,-4.2732,-4.3286,-4.3497,-4.3497,-4.3497,-4.3497,-4.3497,-4.3497,-4.3497,-4.3497,-4.3497,-4.3497,-4.3497,-4.3497,-4.3497,-4.3497,-4.3497,-4.3497,-4.3497,-4.3497,-4.3497,-4.3497,-4.3497,-4.3497,-4.3497,-4.3497,-4.3497,-4.3497,-4.3497,-4.3497,-4.3548,-4.3646,-4.3974,-4.4318,-4.4707,-4.5033,-4.5342,-4.5568,-4.5586,-4.5586,-4.5586,-4.5586,-4.5586,-4.5586,-4.5586,-4.5586,-4.5586,-4.5586,-4.5586,-4.5586,-4.5586,-4.5586,-4.5586,-4.5586,-4.5586,-4.5586,-4.5586,-4.5586,-4.5586,-4.5586,-4.5586,0.0,0.0,0.0,0.0,0.0,0.0,0.0,0.0,0.0,-3.119,-3.119,-3.141,-3.2121,-3.2313,-3.2747,-3.4184,-3.5081,-3.5588,-3.5588,-3.5605,-3.5622,-3.5622,-3.5622,-3.5622,-3.5622,-3.5622,-3.5622,-3.5622,-3.5622,-3.5622,-3.5622,-3.5622,-3.596,-3.6721,-3.6738,-3.7094,-3.7838,-3.7838,-3.7838,-3.7838,-3.7838,-3.7838,-3.7838,-3.7872,-3.7872,-3.7872,-3.7889,-3.9325,-4.174,-4.2346,-4.2637,-4.275,-4.325,-4.3497,-4.3497,-4.3497,-4.3497,-4.3497,-4.3497,-4.3497,-4.3497,-4.3497,-4.3497,-4.3497,-4.3497,-4.3497,-4.3497,-4.3497,-4.3497,-4.3497,-4.3497,-4.3497,-4.3497,-4.3497,-4.3497,-4.3497,-4.3497,-4.3497,-4.3497,-4.3497,-4.3497,-4.3597,-4.3924,-4.4318,-4.4707,-4.5052,-4.54,-4.5586,-4.5586,-4.5586,-4.5586,-4.5586,-4.5586,-4.5586,-4.5586,-4.5586,-4.5586,-4.5586,-4.5586,-4.5586,-4.5586,-4.5586,-4.5586,-4.5586,-4.5586,-4.5586,-4.5586,-4.5586,-4.5586,-4.5586,-4.5586,-4.5586,-3.119,0.0,0.0,0.0,0.0,0.0,0.0,0.0,0.0,-3.119,-3.119,-3.1258,-3.1461,-3.1918,-3.2408,-3.2814,-3.3964,-3.4793,-3.4793,-3.5267,-3.5622,-3.5622,-3.5622,-3.5622,-3.5622,-3.5622,-3.5622,0.0,-3.5622,-3.5622,-3.5622,-3.5622,-3.5723,-3.5926,-3.5943,-3.6045,-3.6248,-3.6248,-3.6248,-3.6248,-3.6248,-3.6248,-3.6282,-3.684,-3.7094,-3.711,-3.7669,-3.8299,-3.9049,-4.0149,-4.117,-4.2121,-4.2675,-4.3178,-4.3497,-4.3497,-4.3497,-4.3497,-4.3497,-4.3497,-4.3497,-4.3497,-4.3497,-4.3497,-4.3497,-4.3497,-4.3497,-4.3497,-4.3497,-4.3497,-4.3497,-4.3497,-4.3497,-4.3497,-4.3497,-4.3497,-4.3497,-4.3497,-4.3497,-4.3497,-4.3497,-4.3597,-4.3924,-4.4318,-4.4707,-4.5052,-4.54,-4.5586,-4.5586,-4.5586,-4.5586,-4.5586,-4.5586,-4.5586,-4.5586,-4.5586,-4.5586,-4.5586,-4.5586,-4.5586,-4.5586,-4.5586,-4.5586,-4.5586,-4.5586,-4.5586,-4.5586,-4.5586,-4.5586,-4.5586,-4.5586,-4.5586,0.0,0.0,0.0,0.0,0.0,0.0,-3.119,-3.119,-3.119,0.0,-3.119,-3.119,-3.119,-3.1546,-3.1833,-3.1833,-3.2814,-3.3677,-3.3998,-3.4421,-3.481,-3.5115,-3.5148,-3.5267,-3.5588,-3.5622,-3.5622,-3.5622,-3.5622,-3.5622,-3.5622,-3.5622,-3.5622,-3.5622,-3.5622,-3.5622,-3.5622,-3.5622,-3.5622,-3.5622,-3.5622,-3.5622,-3.5639,-3.6096,-3.6299,-3.6315,-3.6755,-3.7127,-3.7513,-3.8436,-3.9835,-4.1416,-4.2226,-4.2922,-4.3497,-4.3497,-4.3497,-4.3497,-4.3497,-4.3497,-4.3497,-4.3497,-4.3497,-4.3497,-4.3497,-4.3497,-4.3497,-4.3497,-4.3497,-4.3497,-4.3497,-4.3497,-4.3497,-4.3497,-4.3497,-4.3497,-4.3497,-4.3497,-4.3497,-4.3497,-4.3612,-4.3836,-4.4194,-4.4561,-4.4919,-4.5263,-4.5457,-4.5586,-4.5586,-4.5586,-4.5586,-4.5586,-4.5586,-4.5586,-4.5586,-4.5586,-4.5586,-4.5586,-4.5586,-4.5586,-4.5586,-4.5586,-4.5586,-4.5586,-4.5586,-4.5586,-4.5586,-4.5586,-4.5586,-4.5586,-4.5586,-4.5586,0.0,0.0,0.0,0.0,0.0,0.0,-3.119,-3.119,-3.119,0.0,-3.119,-3.119,-3.119,-3.119,-3.119,-3.119,-3.1732,-3.2425,-3.3169,-3.3355,-3.3643,-3.4303,-3.437,-3.4641,-3.5318,-3.5385,-3.5402,-3.5487,-3.5571,-3.5622,-3.5622,-3.5622,-3.5622,-3.5622,-3.5622,-3.5622,-3.5622,-3.5622,-3.5622,-3.5622,-3.5622,-3.5622,-3.5622,-3.5622,-3.5622,-3.5694,-3.5694,-3.6129,-3.6894,-3.7335,-3.8754,-4.0677,-4.176,-4.2693,-4.3369,-4.3461,-4.3497,-4.3497,-4.3497,-4.3497,-4.3497,-4.3497,-4.3497,-4.3497,-4.3497,-4.3497,-4.3497,-4.3497,-4.3497,-4.3497,-4.3497,-4.3497,-4.3497,-4.3497,-4.3497,-4.3497,-4.3497,-4.3497,-4.3513,-4.3548,-4.3804,-4.4117,-4.4527,-4.4872,-4.5222,-4.555,-4.5586,-4.5586,-4.5586,-4.5586,-4.5586,-4.5586,-4.5586,-4.5586,-4.5586,-4.5586,-4.5586,-4.5586,-4.5586,-4.5586,-4.5586,-4.5586,-4.5586,-4.5586,-4.5586,-4.5586,-4.5586,-4.5586,-4.5586,-4.5586,-4.5586,-4.5586,0.0,0.0,0.0,0.0,0.0,0.0,-3.119,-3.119,-3.119,0.0,-3.119,-3.119,-3.119,-3.119,-3.119,-3.119,-3.1309,-3.1664,-3.2391,-3.3034,-3.3457,-3.3609,-3.3609,-3.3677,-3.3829,-3.3846,-3.4083,-3.4675,-3.5267,-3.5622,-3.5622,-3.5622,-3.5622,-3.5622,-3.5622,-3.5622,-3.5622,-3.5622,-3.5622,-3.5622,-3.5622,-3.5622,-3.5622,-3.5622,-3.5827,-3.6249,-3.6249,-3.6585,-3.715,-3.7647,-3.8574,-3.9873,-4.1103,-4.1958,-4.2598,-4.3259,-4.3497,-4.3497,-4.3497,-4.3497,-4.3497,-4.3497,-4.3497,-4.3497,-4.3497,-4.3497,-4.3497,-4.3497,-4.3497,-4.3497,-4.3497,-4.3497,-4.3497,-4.3497,-4.3497,-4.3497,-4.3497,-4.3497,-4.3563,-4.3849,-4.3955,-4.4117,-4.4527,-4.4872,-4.5222,-4.555,-4.5586,-4.5586,-4.5586,-4.5586,-4.5586,-4.5586,-4.5586,-4.5586,-4.5586,-4.5586,-4.5586,-4.5586,-4.5586,-4.5586,-4.5586,-4.5586,-4.5586,-4.5586,-4.5586,-4.5586,-4.5586,-4.5586,-4.5586,-4.5586,-4.5586,-4.5586,0.0,0.0,0.0,-3.119,0.0,0.0,0.0,-3.119,-3.119,-3.119,-3.119,-3.119,-3.119,-3.119,-3.119,-3.119,-3.119,-3.1326,-3.1681,-3.207,-3.2442,-3.2797,-3.2848,-3.3,-3.3372,-3.3406,-3.3558,-3.3931,-3.4303,-3.4788,-3.5429,-3.5222,-3.5348,-3.5968,-3.5739,-3.5622,-3.5622,-3.5854,-3.5854,-3.5622,-3.5854,-3.5854,-3.5622,-3.5854,-3.6139,-3.6416,-3.6684,-3.696,-3.7228,-3.772,-3.8222,-3.8831,-4.013,-4.1332,-4.2359,-4.2745,-4.3149,-4.3497,-4.3497,-4.3497,-4.3497,-4.3497,-4.3497,-4.3497,-4.3497,-4.3497,-4.3497,-4.3497,-4.3497,-4.3497,-4.3497,-4.3497,-4.3497,-4.3497,-4.3497,-4.3497,-4.3497,-4.3612,-4.3804,-4.3986,-4.4318,-4.4612,-4.4806,-4.5118,-4.5419,-4.5568,-4.5586,-4.5586,-4.5586,-4.5586,-4.5586,-4.5586,-4.5586,-4.5586,-4.5586,-4.5586,-4.5586,-4.5586,-4.5586,-4.5586,-4.5586,-4.5586,-4.5586,-4.5586,-4.5586,-4.5586,-4.5586,-4.5586,-4.5586,-4.5586,-4.5586,-4.5586,0.0,0.0,0.0,0.0,0.0,-3.119,0.0,0.0,0.0,-3.119,-3.119,0.0,0.0,0.0,0.0,0.0,0.0,0.0,0.0,-3.1106,0.0,-3.2002,-3.211,-3.2307,-3.2916,-3.3102,-3.3186,-3.3186,-3.3322,-3.3853,-3.4869,-3.4644,-3.5002,-3.6132,-3.5899,-3.581,-3.5898,-3.6333,-3.6333,-3.5924,-3.6333,-3.6333,-3.5924,-3.6374,-3.6603,-3.6706,-3.7135,-3.7396,-3.7524,-3.7877,-3.8047,-3.8189,-3.9424,-4.0689,-4.1882,-4.2194,-4.2708,-4.3277,-4.3442,-4.3497,-4.3497,-4.3497,-4.3497,-4.3497,-4.3497,-4.3497,-4.3497,-4.3497,-4.3497,-4.3497,-4.3497,-4.3497,-4.3497,-4.3497,-4.3497,-4.3513,-4.3563,-4.3804,-4.4028,-4.4175,-4.4688,-4.5096,-4.5096,-4.5381,-4.5586,-4.5586,-4.5586,-4.5586,-4.5586,-4.5586,-4.5586,-4.5586,-4.5586,-4.5586,-4.5586,-4.5586,-4.5586,-4.5586,-4.5586,-4.5586,-4.5586,-4.5586,-4.5586,-4.5586,-4.5586,-4.5586,-4.5586,-4.5586,-4.5586,-4.5586,-4.5586,-4.5586,0.0,0.0,0.0,0.0,-3.119,0.0,0.0,0.0,-3.119,-3.119,0.0,0.0,0.0,0.0,0.0,0.0,0.0,0.0,-3.0328,-3.0784,-3.1224,-3.1309,-3.1309,-3.136,-3.1427,-3.2036,-3.2408,-3.2408,-3.3034,-3.344,-3.3609,-3.4176,-3.4763,-3.5394,-3.5987,-3.6539,-3.702,-3.7058,-3.7058,-3.702,-3.7058,-3.7076,-3.702,-3.7058,-3.7323,-3.772,-3.779,-3.8099,-3.8546,-3.8596,-3.8627,-3.87,-3.957,-4.001,-4.0341,-4.1772,-4.2359,-4.2543,-4.324,-4.3497,-4.3497,-4.3497,-4.3497,-4.3497,-4.3497,-4.3497,-4.3497,-4.3497,-4.3497,-4.3497,-4.3497,-4.3497,-4.3497,-4.3497,-4.3497,-4.3563,-4.3881,-4.3986,-4.4186,-4.4853,-4.5033,-4.5096,-4.5096,-4.5381,-4.5586,-4.5586,-4.5586,-4.5586,-4.5586,-4.5586,-4.5586,-4.5586,-4.5586,-4.5586,-4.5586,-4.5586,-4.5586,-4.5586,-4.5586,-4.5586,-4.5586,-4.5586,-4.5586,-4.5586,-4.5586,-4.5586,-4.5586,-4.5586,-4.5586,-4.5586,-4.5586,-4.5586,0.0,0.0,0.0,0.0,0.0,0.0,-3.119,0.0,-3.119,0.0,0.0,0.0,0.0,0.0,0.0,0.0,-3.1004,0.0,0.0,0.0,-3.119,0.0,0.0,0.0,-3.1579,-3.1836,-3.2142,-3.24,-3.2435,-3.2796,-3.3532,-3.3628,-3.4134,-3.5278,-3.5584,-3.6087,-3.6724,-3.7305,-3.747,-3.721,-3.747,-3.747,-3.7228,-3.747,-3.772,-3.7911,-3.8216,-3.8496,-3.8707,-3.8707,-3.8707,-3.8726,-3.9074,-3.9478,-3.9974,-4.0653,-4.1203,-4.1735,-4.2525,-4.28,-4.2873,-4.3332,-4.3497,-4.3497,-4.3497,-4.3497,-4.3497,-4.3497,-4.3497,-4.3497,-4.3497,-4.3497,-4.3497,-4.3497,-4.3497,-4.3597,-4.3924,-4.4175,-4.4482,-4.4988,-4.5243,-4.54,-4.54,-4.5513,-4.5586,-4.5586,-4.5586,-4.5586,-4.5586,-4.5586,-4.5586,-4.5586,-4.5586,-4.5586,-4.5586,-4.5586,-4.5586,-4.5586,-4.5586,-4.5586,-4.5586,-4.5586,-4.5586,-4.5586,-4.5586,-4.5586,-4.5586,-4.5586,-4.5586,-4.5586,-4.5586,-4.5586,-3.119,0.0,0.0,0.0,0.0,0.0,0.0,0.0,0.0,0.0,0.0,0.0,0.0,0.0,0.0,0.0,0.0,-3.1123,0.0,-3.1072,0.0,0.0,0.0,0.0,0.0,-3.164,-3.1825,-3.2264,-3.1986,-3.2266,-3.3314,-3.3248,-3.375,-3.5001,-3.5247,-3.5814,-3.6703,-3.7449,-3.7747,-3.7596,-3.7964,-3.7929,-3.7632,-3.7964,-3.8099,-3.815,-3.8546,-3.8707,-3.8707,-3.8707,-3.8707,-3.8707,-3.8707,-3.9056,-3.9588,-3.9808,-4.0267,-4.0891,-4.1699,-4.1974,-4.2103,-4.291,-4.3167,-4.3204,-4.3424,-4.3497,-4.3497,-4.3497,-4.3497,-4.3497,-4.3497,-4.3497,-4.3497,-4.3497,-4.3497,-4.3631,-4.4076,-4.4373,-4.4751,-4.514,-4.5438,-4.5586,-4.5586,-4.5586,-4.5586,-4.5586,-4.5586,-4.5586,-4.5586,-4.5586,-4.5586,-4.5586,-4.5586,-4.5586,-4.5586,-4.5586,-4.5586,-4.5586,-4.5586,-4.5586,-4.5586,-4.5586,-4.5586,-4.5586,-4.5586,-4.5586,-4.5586,-4.5586,-4.5586,-4.5586,-4.5586,-4.5586,0.0,0.0,0.0,-3.119,0.0,0.0,0.0,0.0,-3.119,0.0,0.0,0.0,0.0,0.0,0.0,0.0,0.0,0.0,0.0,0.0,0.0,0.0,0.0,0.0,0.0,-3.123,-3.1389,-3.1789,-3.1825,-3.2004,-3.2519,-3.3209,-3.3821,-3.4416,-3.5123,-3.6141,-3.7436,-3.7484,-3.7888,-3.8658,-3.8676,-3.8676,-3.8658,-3.8676,-3.8658,-3.8676,-3.8707,-3.8707,-3.8707,-3.8707,-3.8707,-3.8707,-3.8707,-3.8726,-3.8836,-3.9606,-3.9918,-4.0047,-4.0873,-4.1148,-4.1277,-4.2084,-4.2341,-4.2488,-4.3259,-4.3497,-4.3497,-4.3497,-4.3497,-4.3497,-4.3497,-4.3497,-4.3497,-4.3497,-4.3497,-4.3712,-4.4419,-4.458,-4.48,-4.5457,-4.5586,-4.5586,-4.5586,-4.5586,-4.5586,-4.5586,-4.5586,-4.5586,-4.5586,-4.5586,-4.5586,-4.5586,-4.5586,-4.5586,-4.5586,-4.5586,-4.5586,-4.5586,-4.5586,-4.5586,-4.5586,-4.5586,-4.5586,-4.5586,-4.5586,-4.5586,-4.5586,-4.5586,-4.5586,-4.5586,-4.5586,-4.5586,0.0,0.0,-3.119,-3.119,0.0,0.0,0.0,0.0,0.0,0.0,0.0,0.0,0.0,0.0,0.0,0.0,0.0,0.0,0.0,0.0,0.0,0.0,0.0,0.0,0.0,0.0,-3.235,-3.3069,-3.2885,-3.2809,-3.2934,-3.3203,-3.3498,-3.3853,-3.4451,-3.5214,-3.6155,-3.7064,-3.7624,-3.79,-3.845,-3.8707,-3.8707,-3.8707,-3.8707,-3.8707,-3.8707,-3.8707,-3.8707,-3.8707,-3.8707,-3.8707,-3.8707,-3.8707,-3.8726,-3.9019,-3.9111,-3.9221,-4.0029,-4.0653,-4.1148,-4.1423,-4.1515,-4.1662,-4.2451,-4.2708,-4.2818,-4.3332,-4.3497,-4.3497,-4.3497,-4.3497,-4.3497,-4.3497,-4.3679,-4.3974,-4.4501,-4.4757,-4.5074,-4.5513,-4.5586,-4.5586,-4.5586,-4.5586,-4.5586,-4.5586,-4.5586,-4.5586,-4.5586,-4.5586,-4.5586,-4.5586,-4.5586,-4.5586,-4.5586,-4.5586,-4.5586,-4.5586,-4.5586,-4.5586,-4.5586,-4.5586,-4.5586,-4.5586,-4.5586,-4.5586,-4.5586,-4.5586,-4.5586,-4.5586,-4.5586,-4.5586,-3.119,-3.119,0.0,-3.119,-3.119,0.0,-3.119,0.0,-3.119,0.0,0.0,0.0,0.0,0.0,0.0,0.0,0.0,0.0,0.0,-3.1562,0.0,0.0,0.0,0.0,0.0,-3.223,-3.2631,-3.3522,-3.3332,-3.3273,0.0,-3.3419,-3.349,-3.3669,-3.4003,-3.4552,-3.5302,-3.6186,-3.6762,-3.7074,-3.7881,-3.8267,-3.8285,-3.8579,-3.8707,-3.8707,-3.8707,-3.8707,-3.8707,-3.8707,-3.8707,-3.8707,-3.8707,-3.8707,-3.8707,-3.8707,-3.8707,-3.8781,-3.9294,-3.9808,-4.0304,-4.0579,-4.0671,-4.0836,-4.1644,-4.1882,-4.2047,-4.2837,-4.3057,-4.313,-4.3424,-4.3497,-4.3497,-4.3497,-4.3679,-4.3943,-4.429,-4.4682,-4.5011,-4.5362,-4.5513,-4.5586,-4.5586,-4.5586,-4.5586,-4.5586,-4.5586,-4.5586,-4.5586,-4.5586,-4.5586,-4.5586,-4.5586,-4.5586,-4.5586,-4.5586,-4.5586,-4.5586,-4.5586,-4.5586,-4.5586,-4.5586,-4.5586,-4.5586,-4.5586,-4.5586,-4.5586,-4.5586,-4.5586,-4.5586,-4.5586,-4.5586]}]]